GFSNGP_sfc_temp_000.txt.gz
Temp
55 58 59 57 57 58 55 54 44 50 53 59 61 61 59 60 61 60 59 59 58 57 58 59 58 59 60 59 59 57 55 55 53 53 52 51 49 48 48 47 47 46 45 44
43 57 57 51 56 57 57 58 57 56 54 64 61 61 58 57 57 56 56 56 57 58 58 58 58 58 59 58 59 58 57 54 55 54 51 49 48 47 46 46 45 44 43 43
40 47 44 38 47 56 58 60 57 46 56 60 56 57 57 56 56 54 54 55 55 57 58 58 57 58 57 58 59 57 56 56 53 47 46 47 48 48 46 43 43 41 41 41
37 38 34 54 63 62 57 59 61 61 59 58 56 57 59 56 53 53 53 54 56 57 57 57 58 58 57 58 56 56 56 55 51 48 47 48 47 46 45 43 41 40 40 40
35 38 45 51 56 54 50 50 60 57 56 56 56 56 54 56 56 54 55 57 58 59 58 57 57 57 55 54 55 55 54 51 50 47 48 47 45 44 43 41 40 40 40 37
36 32 32 49 60 62 59 42 57 55 51 50 52 41 48 55 55 56 58 59 59 58 58 57 56 55 53 52 52 50 48 48 48 49 47 45 44 43 42 41 41 39 36 35
37 34 40 56 61 61 39 42 53 51 51 50 47 47 52 56 56 58 59 59 58 58 55 55 55 54 51 51 49 51 50 48 46 46 47 46 44 43 41 40 37 33 32 32
38 34 32 59 58 44 51 54 52 52 52 50 51 52 55 56 56 57 57 57 58 55 54 54 55 53 50 49 50 49 48 46 46 46 47 48 43 40 40 38 34 30 28 30
46 44 58 60 57 58 53 51 51 50 53 53 52 53 54 54 55 56 56 56 57 54 52 53 54 53 49 49 49 47 46 45 45 46 47 45 40 38 37 36 31 29 30 28
47 56 59 59 59 56 55 54 55 55 54 54 53 54 53 54 55 55 56 55 55 52 52 51 52 52 49 49 48 45 43 43 43 42 41 41 42 40 36 31 29 29 27 25
51 57 59 56 55 55 54 55 55 56 56 56 54 54 54 53 54 54 54 54 53 51 50 49 50 49 48 47 45 43 41 41 39 36 38 39 41 35 32 32 30 27 25 24
45 56 53 52 54 55 53 53 56 55 55 56 56 54 54 52 52 52 50 51 51 50 49 49 49 46 45 44 42 37 35 36 36 35 35 36 36 35 33 32 32 31 29 24
56 57 55 54 56 57 55 57 57 55 55 54 55 53 52 50 50 47 50 49 48 47 48 46 45 43 44 41 38 36 34 34 35 34 35 33 32 31 29 32 32 32 30 29
59 56 51 53 52 56 57 56 54 57 56 54 53 52 50 48 48 47 46 47 47 47 46 42 41 41 42 42 39 36 35 32 33 35 33 32 31 32 31 30 27 28 29 29
55 55 55 57 57 57 57 56 53 52 52 50 50 48 47 45 44 43 45 45 44 42 42 41 39 37 40 39 37 36 36 33 31 33 32 32 32 31 31 30 30 29 27 27
55 56 56 54 54 54 54 52 50 49 48 47 45 42 44 43 42 41 41 41 34 33 35 35 32 35 37 39 40 38 36 31 29 32 32 32 31 30 30 30 29 29 27 24
48 47 49 49 50 50 50 50 49 45 44 42 39 38 36 35 34 36 36 36 33 34 34 34 33 37 36 38 38 37 34 33 33 32 32 31 30 30 30 29 28 28 27 21
56 54 53 52 49 48 45 43 39 38 37 39 33 31 30 30 32 33 33 34 34 34 34 34 34 34 34 37 36 34 31 32 32 31 32 31 30 30 30 29 29 28 27 26
54 52 51 50 49 41 39 37 35 35 32 33 32 32 33 33 32 33 34 33 33 32 36 34 33 34 33 34 32 32 32 32 32 31 32 31 30 30 30 30 30 28 27 27
51 51 48 46 42 33 35 33 33 34 37 35 32 32 33 33 32 34 33 31 33 34 35 34 33 31 31 33 29 32 33 32 31 31 32 31 29 30 30 30 29 29 29 28
41 40 36 35 34 33 32 34 32 32 35 32 32 32 32 34 34 34 32 32 36 35 34 34 34 34 35 35 33 32 32 32 31 31 31 31 30 30 30 30 30 30 29 29
41 37 33 32 33 34 34 33 33 34 33 32 31 32 33 33 34 34 35 34 37 35 34 34 35 34 35 29 34 31 31 32 30 31 31 31 31 30 29 29 29 29 29 29
38 36 35 33 32 34 34 34 33 33 33 33 33 32 33 34 34 32 31 36 34 35 34 34 34 34 33 31 31 31 31 30 31 31 31 31 31 30 30 29 29 29 28 28
38 39 37 35 35 34 33 36 36 35 34 34 34 33 34 33 34 36 36 35 34 34 33 33 33 33 33 31 30 30 30 30 31 31 31 32 32 31 30 30 29 29 29 29
36 37 36 34 34 36 38 40 38 37 36 36 36 37 36 36 34 35 34 34 34 33 33 33 32 32 32 31 31 31 31 31 31 30 31 30 30 31 31 31 30 29 29 29
40 40 41 41 41 42 42 41 39 40 38 36 36 35 34 34 35 34 34 34 34 34 33 33 33 32 32 31 31 32 32 31 30 30 30 29 29 29 29 30 30 29 29 29
41 38 42 42 43 43 41 40 37 35 34 33 33 34 35 34 34 34 34 33 33 33 33 33 33 33 32 32 32 32 32 31 31 31 30 29 28 28 28 28 28 28 28 28

GFSNGP_sfc_temp_003.txt.gz
Temp
47 50 52 51 50 51 48 45 35 42 46 48 49 50 51 52 53 52 51 52 51 51 50 50 50 50 51 50 50 52 52 50 47 47 46 44 43 45 45 44 42 42 41 40
35 49 48 43 47 48 49 51 49 48 45 52 52 52 51 50 50 49 49 50 50 51 51 51 51 50 50 49 49 51 50 50 52 44 43 43 45 43 43 42 41 40 39 38
31 39 36 31 40 48 51 51 49 36 46 50 48 49 46 46 48 47 47 48 49 50 51 50 49 49 46 47 48 48 49 50 45 44 43 43 43 43 43 41 38 37 36 36
26 30 23 46 55 54 50 51 52 50 48 48 47 48 47 48 46 46 48 49 49 49 49 48 47 47 47 47 47 46 45 46 45 43 42 43 43 43 41 40 37 35 34 34
27 25 36 45 51 47 43 42 50 46 47 48 49 49 44 49 49 47 47 49 49 49 48 46 46 46 46 45 45 45 43 43 43 42 42 42 41 41 40 37 34 34 34 32
25 22 19 38 52 56 53 32 48 47 45 44 44 30 38 48 49 48 50 50 49 49 48 45 45 46 44 43 43 42 43 42 42 41 41 40 40 39 36 36 36 33 32 32
28 20 31 46 54 55 32 35 46 45 44 42 39 38 44 48 48 50 50 49 51 47 45 45 46 45 43 42 41 43 43 43 42 41 40 40 39 38 36 33 31 28 29 29
30 26 24 53 51 40 42 45 45 45 45 45 44 46 48 48 49 50 48 49 49 46 45 46 46 44 42 40 43 43 42 41 40 40 41 43 37 36 35 30 29 25 21 21
36 34 46 52 49 48 48 45 45 44 46 47 47 48 47 48 48 49 48 46 47 44 45 45 44 44 41 41 42 40 39 38 38 40 41 40 37 33 31 28 24 23 24 17
39 48 51 49 50 51 49 47 47 48 51 49 48 47 47 47 46 45 44 43 45 44 43 42 44 45 42 41 40 38 36 36 36 34 35 36 36 32 29 22 21 25 22 19
40 48 48 49 49 49 49 50 51 54 53 52 48 47 46 44 44 43 42 43 43 42 42 43 43 42 42 41 39 37 35 35 32 30 31 32 33 30 27 28 27 21 19 20
36 48 46 44 48 51 50 50 51 51 51 50 47 44 44 42 42 42 41 42 42 42 42 43 40 39 39 40 37 33 32 29 28 28 27 30 30 28 33 33 33 32 30 21
47 51 49 49 51 54 51 51 51 50 49 45 45 44 42 40 41 40 41 41 41 40 41 40 38 36 37 36 35 32 31 31 27 28 26 25 24 24 20 28 34 33 31 31
51 50 45 50 48 52 53 51 51 49 47 44 43 42 40 40 40 39 39 39 40 39 38 36 36 36 36 37 35 31 31 29 25 24 23 24 29 31 29 27 25 27 29 29
49 51 51 52 52 54 53 49 46 43 42 41 41 39 38 37 36 36 38 38 37 35 35 35 35 37 39 34 33 33 31 26 22 20 20 26 29 28 27 27 27 26 24 24
50 52 52 50 51 50 47 45 42 39 39 39 38 35 37 36 35 36 35 34 30 32 32 30 32 35 34 36 34 35 28 25 24 22 22 29 28 27 27 27 27 26 24 18
44 43 45 46 45 44 43 42 41 38 38 36 34 32 32 30 28 30 30 29 26 31 33 30 33 37 34 35 34 34 24 23 23 22 24 28 28 27 27 27 27 26 23 15
51 49 48 46 43 40 38 36 34 34 33 33 26 22 23 23 26 28 27 31 33 33 34 32 34 34 33 34 32 31 28 25 25 24 28 27 28 27 27 26 26 26 25 17
49 47 44 43 41 35 34 33 29 30 28 25 22 26 25 25 25 27 32 32 33 32 33 34 33 33 32 29 27 23 20 19 24 28 25 20 24 27 27 27 27 27 27 23
43 42 41 40 36 29 30 27 28 30 31 27 22 23 25 22 27 32 33 32 33 33 34 33 34 32 30 29 27 24 17 17 22 27 18 18 20 27 27 27 27 26 26 27
37 35 32 30 27 25 25 26 23 25 29 25 27 27 25 26 25 26 31 31 32 28 31 35 33 33 32 28 25 22 20 18 23 28 18 20 18 22 28 28 27 24 23 23
36 32 29 28 25 28 28 28 31 33 32 33 33 32 31 28 26 30 33 31 32 32 32 33 32 34 33 31 31 30 23 23 26 28 16 18 22 18 23 26 26 26 26 24
34 32 31 27 26 29 31 33 33 33 32 32 28 33 33 31 30 31 29 29 31 33 33 33 33 33 33 33 31 29 27 26 21 20 23 24 26 28 28 28 27 27 27 27
32 34 31 29 28 32 30 33 30 30 30 30 34 34 32 31 30 30 31 34 34 33 34 33 33 33 33 32 30 29 25 27 27 24 23 20 27 29 30 29 28 28 27 27
31 32 29 27 29 31 32 33 31 30 29 33 32 29 28 26 28 33 34 34 34 33 33 33 33 33 33 32 31 29 28 29 29 28 27 27 27 29 27 27 29 29 28 28
34 32 32 34 33 32 32 31 31 30 25 23 23 22 22 24 31 33 34 34 34 33 33 33 33 33 33 32 31 30 30 30 30 30 29 27 27 28 28 29 29 28 28 28
33 29 30 31 31 30 27 27 27 28 31 32 31 26 27 33 31 30 33 33 33 33 33 33 33 33 33 33 32 32 31 31 31 31 29 28 27 27 28 28 27 27 26 25

GFSNGP_sfc_temp_006.txt.gz
Temp
44 46 46 45 45 45 44 42 35 40 41 44 46 46 47 48 48 48 47 48 49 47 46 45 46 45 46 45 45 46 45 44 43 42 41 42 43 42 42 42 43 42 41 39
35 44 43 40 44 44 45 47 45 42 40 47 48 47 46 46 46 46 48 47 47 47 46 47 46 44 45 45 45 45 43 43 43 43 43 41 41 40 39 39 41 41 39 36
30 35 34 31 40 45 46 46 46 37 42 46 44 44 43 43 45 45 45 46 46 45 47 45 44 45 44 44 45 44 43 43 43 42 41 40 40 39 39 38 41 37 35 34
25 27 21 43 50 50 44 45 45 44 44 45 44 44 44 45 44 45 46 47 46 46 46 45 44 44 44 44 43 42 41 41 41 41 39 39 39 38 38 40 37 34 31 32
23 24 34 43 48 46 42 39 46 44 44 45 45 43 41 47 47 46 46 47 46 46 46 43 43 44 43 42 42 41 41 40 40 40 39 38 38 37 37 36 33 32 32 31
27 21 20 37 48 52 50 33 46 45 43 43 43 29 37 45 46 46 47 47 47 45 44 43 44 43 42 41 40 39 40 40 40 39 38 38 36 35 34 34 33 33 30 29
24 17 29 43 49 51 33 36 44 44 42 42 38 38 43 44 45 47 47 47 47 44 43 43 43 42 41 40 39 41 41 40 39 39 37 37 35 34 34 32 31 27 27 27
23 19 25 48 49 39 42 42 44 43 43 42 43 44 45 47 45 46 44 44 44 43 42 42 42 42 40 38 40 40 39 38 37 37 38 39 35 34 32 31 27 23 17 19
36 34 45 48 48 47 46 43 43 43 45 45 44 44 46 44 43 43 41 41 43 40 40 41 42 41 39 39 39 38 36 35 35 35 35 35 32 29 28 26 22 22 24 16
37 46 46 49 46 48 47 45 45 46 46 48 45 45 43 42 41 40 40 40 40 40 38 38 40 40 39 39 39 36 35 34 33 32 32 32 31 30 27 20 19 24 21 19
38 45 44 46 46 46 47 47 47 49 48 49 46 42 41 40 39 39 39 39 39 37 37 37 39 38 38 38 37 35 34 34 32 28 29 30 30 28 27 28 27 21 19 19
39 46 46 45 46 48 47 47 49 50 46 46 45 41 41 38 39 38 37 37 37 37 36 37 37 36 36 35 34 34 32 31 28 26 25 29 29 29 33 33 32 33 30 21
46 50 49 47 48 50 48 49 48 48 46 42 41 40 39 38 38 37 37 37 36 36 36 35 34 32 35 34 34 33 32 31 29 27 25 24 22 23 19 27 33 34 32 31
51 48 44 46 45 50 51 49 47 45 44 41 40 39 37 37 37 36 35 35 36 36 35 34 31 31 33 36 34 30 30 29 28 26 21 21 17 24 26 21 17 19 27 30
48 48 47 49 49 50 49 47 43 40 39 38 38 36 36 35 34 34 34 34 34 32 32 34 33 32 36 35 33 32 32 27 25 19 20 19 19 21 23 24 21 21 18 25
47 48 48 48 48 47 45 43 40 38 38 37 36 34 35 34 33 33 32 32 28 30 32 33 33 33 35 36 34 31 32 27 19 20 24 25 19 21 24 23 21 21 18 16
41 41 43 43 42 42 42 42 41 38 37 35 34 31 32 29 26 29 29 28 27 31 33 33 31 36 34 35 33 30 30 28 27 27 27 27 20 21 25 23 19 22 20 13
47 45 45 43 41 39 37 36 34 34 34 33 24 18 17 18 23 25 25 26 29 32 33 32 33 33 34 34 33 29 28 28 25 27 21 18 19 21 21 20 19 19 20 19
43 41 41 41 40 36 34 32 29 29 25 23 20 23 22 23 23 25 25 23 29 31 31 31 32 32 33 33 30 22 18 16 17 20 26 20 13 24 26 22 18 21 18 17
41 40 40 39 35 30 31 27 24 27 31 25 18 16 22 24 22 23 24 25 31 31 28 29 30 33 32 31 31 27 18 14 16 18 14 13 10 19 26 23 21 16 14 15
36 35 31 30 29 26 24 24 20 23 27 27 30 29 29 29 28 22 22 26 30 27 29 32 29 33 34 33 32 26 21 19 16 18 23 25 12 14 25 25 21 16 13 12
35 32 30 27 24 27 26 24 29 31 31 31 32 32 30 32 31 22 23 27 32 27 31 32 32 33 33 33 32 30 30 28 24 23 23 18 16 17 19 23 22 25 21 18
34 32 30 27 25 28 28 28 27 27 27 29 31 27 27 33 31 29 29 30 29 33 33 33 33 33 33 33 32 31 30 28 27 27 24 23 21 19 23 27 26 27 27 26
32 34 30 28 24 26 27 33 29 29 27 28 27 30 33 31 32 28 29 27 28 33 33 34 33 33 33 33 32 32 30 30 29 28 26 25 25 25 23 25 26 27 26 25
29 30 28 26 28 30 32 32 29 29 28 28 28 33 31 31 30 28 26 30 33 33 32 34 33 33 33 33 32 31 30 30 30 29 28 28 28 28 27 27 27 28 28 27
34 31 31 33 31 30 30 28 25 24 27 28 30 31 31 30 28 31 32 32 32 32 32 33 33 33 32 32 32 32 32 31 30 30 30 30 29 29 29 28 27 27 29 28
31 26 28 30 30 30 25 29 31 30 25 25 26 24 27 30 32 31 29 30 31 31 31 30 30 30 31 31 32 32 32 32 32 31 31 31 30 30 29 28 27 27 28 27

GFSNGP_sfc_temp_009.txt.gz
Temp
40 42 43 42 43 43 41 40 35 38 39 43 43 43 44 45 44 45 45 47 47 45 46 46 44 44 43 43 44 43 43 41 41 40 40 40 39 39 39 39 40 38 37 38
34 41 40 38 43 42 42 42 41 39 38 44 45 44 44 44 44 44 46 49 48 48 47 46 44 43 44 43 43 43 42 41 42 41 41 40 39 38 40 39 38 37 39 36
29 33 34 30 38 43 43 44 42 34 41 43 41 43 42 42 43 44 46 47 46 45 45 44 43 43 42 43 43 42 41 41 41 40 39 38 38 38 37 36 36 36 34 32
24 26 22 41 46 47 44 42 42 41 42 44 43 43 43 44 43 44 45 45 45 44 44 43 42 41 42 42 41 40 40 39 39 38 38 37 37 36 35 36 34 32 31 31
23 23 33 42 45 42 41 40 44 42 42 43 42 41 40 45 45 44 44 45 44 44 43 42 41 42 41 40 40 39 39 38 38 38 37 36 35 34 34 33 31 30 31 31
25 20 21 37 45 49 47 33 44 43 41 40 40 30 37 44 45 45 46 45 44 43 42 41 41 41 39 39 38 38 38 38 38 37 36 35 34 32 32 31 31 31 31 29
19 17 29 41 48 49 34 36 43 44 43 41 39 39 43 44 44 44 44 43 42 42 40 40 40 40 39 38 37 39 39 38 37 36 35 34 33 33 32 31 30 27 28 26
25 19 27 46 46 39 43 41 45 43 43 43 43 43 44 44 44 42 41 41 41 40 39 40 40 38 36 35 38 38 37 36 35 34 35 36 31 30 30 28 27 24 17 19
35 34 44 46 46 46 46 44 43 43 44 45 44 43 44 40 40 40 40 38 39 38 38 39 38 37 35 36 37 36 35 34 33 33 33 32 30 28 27 25 21 22 23 16
37 44 45 46 47 47 46 45 44 45 45 45 45 44 41 39 39 39 37 37 37 37 35 35 36 37 36 36 36 34 33 33 34 33 31 30 30 30 27 21 21 25 21 19
36 43 44 47 47 47 46 45 45 47 47 47 43 40 42 41 39 38 37 37 36 34 34 34 35 34 34 34 33 32 32 34 32 31 29 29 30 28 27 29 28 23 20 19
36 45 45 45 48 47 45 45 47 46 45 44 45 42 41 37 37 37 35 35 34 34 33 34 34 32 32 33 32 31 32 32 31 31 29 29 28 27 33 33 33 33 32 21
47 48 47 46 47 47 47 47 47 45 44 43 43 42 40 37 37 36 35 34 33 33 33 32 31 30 31 31 31 32 31 32 32 31 28 26 24 23 18 26 32 33 33 31
49 47 42 44 44 47 47 45 46 45 44 42 41 40 37 36 36 35 34 33 33 32 31 30 31 34 33 32 34 32 32 28 29 27 28 24 23 20 18 18 16 17 25 31
48 48 47 47 47 45 45 44 42 40 40 39 39 37 36 35 34 34 33 33 32 31 30 33 34 33 34 34 33 32 32 31 28 27 25 22 24 20 19 18 17 16 17 21
45 45 45 44 44 45 43 42 39 37 38 37 36 34 35 34 33 32 32 32 26 27 29 32 32 33 34 35 34 34 32 30 26 26 25 27 25 19 21 20 17 15 14 14
40 38 39 40 40 40 39 38 40 39 37 35 35 32 32 27 26 30 29 27 22 22 26 27 29 36 34 34 34 33 31 30 28 28 27 22 20 19 22 18 18 14 16 12
43 43 42 40 37 35 37 37 36 35 34 34 23 20 19 18 23 24 24 24 20 23 27 29 29 32 33 34 33 32 30 29 28 28 28 23 19 17 16 19 20 15 15 14
38 38 39 39 39 36 35 33 31 31 25 22 21 24 21 20 23 23 22 19 21 23 29 26 29 28 31 31 32 31 29 27 23 21 20 18 12 13 13 18 21 15 16 14
37 38 38 37 34 30 30 29 27 29 31 25 19 19 26 23 18 19 19 23 27 30 29 28 29 30 30 31 32 31 31 27 23 21 11 12 9 11 13 17 20 20 16 12
35 34 31 30 29 28 27 24 22 25 27 26 28 28 28 29 30 29 26 25 28 26 28 30 32 32 32 32 33 32 31 27 23 21 21 20 18 17 17 20 22 22 20 15
34 31 30 28 27 28 27 25 29 29 26 25 28 31 31 29 27 31 29 27 30 25 26 28 31 32 32 32 32 32 31 29 28 28 26 25 24 23 23 23 22 22 22 22
32 31 29 27 27 29 28 26 25 24 24 25 24 26 28 27 31 30 29 28 26 25 27 28 28 29 32 32 32 32 32 31 30 29 28 29 28 26 25 25 25 25 27 26
32 34 30 27 24 25 27 32 28 28 24 25 25 24 25 31 32 32 31 27 23 25 31 33 31 32 32 32 32 32 31 31 31 30 30 30 29 28 27 26 26 27 26 25
29 30 28 26 29 30 31 32 29 28 26 27 29 28 32 33 32 28 27 29 30 30 29 29 31 31 32 32 32 31 31 32 31 31 30 29 29 28 28 28 28 28 28 27
33 29 29 31 29 29 29 27 25 28 29 28 27 25 24 24 26 29 29 30 28 27 25 29 28 26 23 22 22 23 24 27 29 30 31 31 30 30 30 30 29 29 29 29
28 25 28 28 29 29 27 30 30 31 31 29 28 31 30 29 26 29 29 24 23 22 21 18 16 16 16 13 12 13 14 16 16 16 18 21 27 31 31 31 30 30 29 28

GFSNGP_sfc_temp_012.txt.gz
Temp
37 39 40 40 41 41 40 38 35 36 37 42 44 43 42 43 42 43 43 44 44 44 43 46 46 44 43 42 42 42 41 40 40 39 39 38 38 37 37 37 41 40 36 37
34 38 38 37 41 41 39 40 39 38 39 44 41 42 41 43 42 42 43 45 47 46 47 46 44 42 42 41 41 41 40 39 40 39 39 38 37 37 37 36 36 35 35 34
29 32 32 30 38 40 40 41 41 34 42 41 40 42 42 41 42 42 43 47 47 47 46 45 43 41 40 41 41 40 39 40 39 38 37 37 36 36 35 34 34 36 33 32
24 25 21 40 43 43 42 42 43 41 41 42 41 41 43 43 43 42 45 47 46 44 43 43 40 40 40 40 39 38 38 38 38 37 36 36 35 34 34 34 33 32 30 30
23 22 33 41 42 41 40 41 43 42 40 41 40 42 41 44 44 44 44 44 44 44 42 41 40 40 39 38 38 38 37 37 37 36 35 34 33 32 31 31 31 31 31 30
20 20 21 38 43 46 46 33 43 43 40 40 40 31 43 43 44 44 45 45 45 42 41 39 39 38 38 37 37 36 37 37 36 36 34 33 32 31 31 31 32 31 30 29
19 16 29 40 45 47 34 37 41 44 42 39 38 41 42 42 43 43 44 42 41 41 39 38 39 38 36 35 34 36 36 36 36 35 33 33 31 30 30 29 29 26 27 27
22 17 26 44 45 39 43 40 43 42 42 43 42 41 42 45 42 41 41 40 40 39 38 38 37 36 34 33 35 35 35 34 34 33 34 35 30 29 29 27 26 22 17 20
33 33 43 45 43 46 45 44 43 43 43 46 41 42 44 41 41 40 40 39 39 37 37 37 36 34 33 34 34 33 32 32 32 32 33 32 29 28 27 25 20 21 24 17
36 43 43 44 46 47 46 45 45 45 44 44 43 43 40 40 39 40 40 39 37 36 35 34 34 34 33 33 33 31 31 31 31 31 32 32 31 30 27 20 19 24 21 21
35 42 42 45 45 47 46 46 45 45 45 45 43 40 42 41 39 38 38 37 36 35 33 33 33 33 32 32 31 30 31 31 31 30 31 30 30 28 27 28 27 22 21 20
34 45 45 45 48 46 45 45 45 44 43 42 42 42 41 38 39 38 35 35 35 34 33 32 32 30 30 30 30 29 32 32 33 32 32 29 29 28 32 33 33 33 32 23
47 46 45 46 45 46 46 45 45 44 42 42 43 42 40 38 37 36 36 35 34 33 32 31 30 29 30 30 30 31 31 32 32 31 30 25 25 24 22 26 32 33 33 33
47 44 43 43 45 45 46 44 44 43 43 42 40 39 37 37 37 36 35 35 34 32 31 30 30 30 32 31 30 32 32 30 29 28 27 27 27 25 21 18 20 18 26 30
46 46 45 44 43 41 42 42 40 38 38 37 37 36 36 35 35 34 34 33 33 31 30 30 30 30 32 31 31 32 32 32 30 28 27 27 25 21 19 19 21 18 15 21
43 43 43 40 40 40 40 38 35 33 33 35 36 35 36 35 34 34 33 33 28 27 30 24 25 31 32 32 33 33 33 31 29 28 26 25 21 20 21 19 22 20 14 15
37 35 36 35 36 37 36 36 36 35 36 35 35 33 34 31 27 31 30 27 23 23 24 23 26 30 31 31 33 33 33 32 30 26 26 28 27 24 20 18 21 20 16 12
39 39 39 38 36 34 34 35 34 34 34 34 28 25 23 23 27 27 24 21 18 22 25 27 27 29 30 32 32 31 31 31 30 28 28 28 27 25 21 18 18 18 20 11
39 38 38 38 38 36 34 32 30 30 27 26 25 26 25 24 23 25 20 17 17 21 28 26 28 27 31 32 30 29 30 30 29 27 27 26 18 19 19 16 16 17 19 18
38 38 37 34 33 30 30 28 28 29 31 26 23 25 26 23 19 18 20 25 25 27 27 26 26 26 30 32 30 30 32 31 30 27 24 21 17 15 16 15 18 20 19 19
34 32 30 30 29 28 27 26 25 27 27 25 26 26 28 29 29 30 28 27 29 25 27 23 25 27 29 29 30 32 32 32 30 27 25 23 23 23 22 21 22 23 23 22
33 31 29 28 27 28 28 26 27 26 25 21 23 24 25 30 28 27 32 30 32 25 23 23 25 25 28 26 31 32 32 32 31 29 27 27 27 26 26 26 25 26 26 24
32 30 28 24 24 27 26 25 24 25 25 24 24 24 22 28 29 28 29 29 30 23 22 24 29 30 26 32 32 32 31 30 31 31 29 28 28 28 28 28 28 27 27 26
30 32 28 25 23 26 29 31 29 27 22 24 25 23 22 23 24 29 30 28 21 26 28 29 30 25 30 30 30 30 30 30 30 29 28 27 29 29 29 28 28 28 28 28
28 29 27 27 28 28 28 29 27 27 27 28 29 29 26 26 30 31 30 28 29 29 27 25 26 22 21 15 14 17 18 20 19 19 20 20 24 27 28 28 28 28 28 28
29 27 27 28 27 27 27 28 27 30 31 31 32 32 30 28 25 27 30 29 29 27 25 21 16 13 11 9 10 8 9 11 11 11 10 11 13 15 17 20 25 29 29 29
29 28 28 27 27 28 27 27 27 27 28 29 29 31 31 31 31 31 31 30 22 23 19 16 12 12 10 9 9 9 8 6 6 9 9 10 11 11 12 13 14 18 27 30

GFSNGP_sfc_temp_018.txt.gz
Temp
55 54 55 56 58 58 57 58 50 58 58 65 67 68 69 67 66 64 62 62 62 62 63 62 60 58 53 63 62 61 60 60 59 58 57 57 55 55 54 53 53 53 52 52
48 51 52 51 57 59 59 60 58 60 58 70 70 68 66 63 62 61 61 61 62 62 63 62 61 54 62 61 60 60 59 58 58 57 56 55 54 53 52 52 52 52 51 50
46 47 48 40 51 58 59 60 59 53 62 67 62 62 64 64 62 61 61 62 62 62 62 62 60 61 60 60 59 57 57 57 56 55 53 53 53 53 52 51 51 50 50 49
43 39 35 57 59 59 59 61 65 63 65 64 65 64 64 67 65 62 62 62 63 64 62 62 63 62 61 60 58 56 55 54 54 53 52 53 53 51 51 51 49 49 49 48
39 44 51 58 56 54 53 58 65 64 66 64 59 59 63 64 65 65 64 65 65 65 62 57 58 58 57 56 56 54 53 52 53 51 51 51 50 50 50 49 49 49 48 46
40 38 36 54 56 59 59 50 62 62 61 58 59 52 66 66 64 63 65 65 63 61 59 58 57 55 55 55 53 51 50 50 51 51 50 49 49 49 49 49 48 48 46 45
41 39 48 58 58 59 46 51 62 60 61 59 57 64 63 64 64 65 64 62 61 58 58 55 54 54 52 52 51 51 50 50 50 50 49 48 48 49 48 48 46 44 41 42
39 36 37 58 57 50 58 61 61 62 62 60 63 60 59 59 61 61 60 58 58 55 52 50 50 51 52 51 50 49 49 48 48 48 47 48 47 47 47 46 44 41 36 38
51 53 58 60 62 64 61 59 61 61 64 62 60 60 59 57 56 56 55 56 53 48 46 48 51 51 49 49 48 47 46 46 46 46 46 46 46 46 45 46 43 41 40 39
49 59 59 60 62 63 64 62 64 65 64 63 60 62 59 56 54 52 54 50 51 42 43 48 48 47 48 48 47 45 44 44 45 44 42 41 42 43 44 43 42 41 39 40
51 57 60 62 63 63 64 64 63 64 62 60 60 59 58 54 53 51 43 43 41 42 47 47 46 47 48 46 44 43 44 44 43 43 41 40 40 39 41 45 42 40 40 40
50 60 58 60 62 62 60 60 60 59 59 56 56 56 55 51 47 44 40 38 40 44 45 46 43 43 43 43 42 40 40 42 43 42 41 40 39 40 36 35 34 34 34 34
55 59 58 60 60 58 56 54 54 54 54 51 51 49 46 42 39 37 40 41 43 44 42 40 40 39 41 42 40 39 40 40 41 39 39 39 39 38 37 38 35 34 34 34
55 56 55 51 50 52 51 50 49 49 47 45 42 41 38 37 38 39 40 43 41 39 38 39 39 40 42 42 41 40 40 35 40 40 39 39 39 38 37 36 35 36 34 34
50 53 51 51 51 49 50 47 42 39 38 37 40 38 39 38 39 39 39 39 39 39 39 40 40 43 46 43 41 41 40 39 38 37 35 35 36 36 36 36 35 35 37 35
48 49 49 46 44 40 39 37 36 36 38 41 42 43 43 43 42 42 41 40 35 37 41 36 36 40 42 43 43 43 41 35 35 38 37 33 34 35 35 35 34 34 35 36
42 38 40 37 37 39 39 40 42 44 45 44 42 41 42 39 37 39 40 39 35 33 34 34 35 44 42 42 42 43 42 40 36 37 38 37 37 36 36 35 35 34 36 35
44 40 40 41 41 41 42 44 41 39 39 38 33 33 32 32 33 34 35 34 32 32 34 35 36 39 40 42 42 41 39 36 36 35 36 35 34 35 34 34 34 34 35 35
45 44 45 45 44 40 38 37 34 35 33 33 32 32 32 32 33 33 33 31 31 31 38 39 35 33 38 39 37 39 37 35 35 36 36 35 33 33 33 33 33 33 33 34
44 44 43 41 39 35 35 33 34 37 39 34 32 33 33 33 32 32 32 31 34 38 38 38 37 37 37 39 35 40 37 34 32 32 33 34 33 32 32 32 32 32 32 33
41 38 35 34 33 33 32 32 32 32 36 32 31 31 31 32 33 32 33 34 41 38 39 36 37 39 42 40 40 36 33 32 32 33 32 33 32 33 33 33 32 32 32 32
41 36 33 34 33 34 33 33 33 32 31 31 31 31 30 31 31 32 33 33 38 35 38 38 38 37 39 33 36 33 33 34 33 33 32 32 32 32 31 32 32 32 32 32
38 37 34 32 32 33 33 31 30 31 30 30 30 31 31 32 32 30 30 36 36 35 34 34 34 33 32 32 33 33 32 31 30 30 30 29 29 29 30 30 30 31 31 31
37 35 33 32 31 31 30 33 32 32 31 32 32 32 32 32 32 36 35 33 33 33 33 33 33 32 31 32 32 30 29 28 28 27 26 25 26 26 27 26 26 28 28 28
31 31 31 31 32 33 31 31 32 32 31 31 31 32 31 32 30 32 32 32 32 33 33 33 28 26 28 28 26 25 25 25 23 22 23 22 22 22 23 24 23 23 22 23
34 34 34 31 30 30 29 29 28 29 28 27 28 28 28 29 30 30 30 29 29 26 25 23 21 23 23 21 21 20 21 21 21 21 19 20 19 19 19 19 19 20 21 21
30 29 31 31 29 28 25 25 24 24 25 24 22 25 26 25 25 24 23 23 23 22 22 21 19 17 17 17 17 17 17 17 16 15 16 16 16 16 16 16 16 17 18 19

GFSNGP_sfc_temp_021.txt.gz
Temp
64 63 63 63 63 64 62 62 55 60 63 69 73 73 75 76 75 75 74 73 72 70 69 69 68 66 66 63 62 63 64 63 62 62 61 60 59 58 57 56 55 56 55 54
53 62 60 58 63 64 65 65 65 66 64 75 75 77 73 73 72 71 72 71 71 70 70 68 67 65 64 62 62 64 62 61 62 61 60 59 58 56 56 55 55 54 53 53
49 54 54 44 54 61 65 67 66 57 67 74 70 69 70 72 71 70 71 70 70 69 69 69 68 66 63 63 64 62 61 61 60 59 58 57 57 56 55 54 54 52 52 51
47 41 34 61 67 66 63 67 71 69 71 73 71 71 72 73 73 71 70 70 70 70 69 70 69 67 64 65 63 60 59 58 58 57 56 56 55 55 54 54 52 51 50 50
40 47 55 60 65 60 58 60 69 67 69 72 71 67 68 73 72 72 72 72 72 72 71 70 67 66 63 61 61 57 57 57 57 56 54 53 53 53 53 52 51 50 51 49
46 38 35 56 62 65 65 53 67 67 66 67 67 56 66 71 72 71 73 73 71 72 71 68 66 64 60 55 55 57 57 55 55 54 53 52 52 51 52 51 50 51 50 49
45 41 50 63 64 65 49 52 65 66 66 66 63 66 67 69 71 72 73 72 71 69 66 64 61 57 54 53 51 55 54 53 53 53 53 52 50 50 50 49 49 46 44 45
46 37 37 65 63 53 60 66 67 66 67 64 66 67 68 68 68 69 69 68 66 63 61 57 56 52 48 49 54 52 50 50 50 51 51 51 49 49 48 49 46 44 40 41
55 55 64 66 65 69 68 64 65 65 67 67 66 66 68 66 65 66 66 64 62 59 51 47 45 45 49 51 50 49 48 48 49 50 49 48 46 45 45 46 44 43 41 39
54 64 65 66 69 68 68 66 68 69 68 67 65 65 65 66 62 62 61 57 54 49 43 39 46 50 50 48 46 46 45 46 47 45 44 46 46 45 43 44 43 41 40 39
57 63 66 67 68 66 66 66 66 68 66 64 62 63 64 62 59 58 52 48 43 41 42 46 48 46 46 46 46 44 43 43 44 42 43 44 46 44 41 44 41 41 41 40
52 61 59 62 65 62 62 60 61 61 61 60 60 60 60 54 51 46 41 41 42 42 43 44 44 44 45 45 42 40 40 41 41 42 44 44 43 42 39 37 37 36 35 36
58 61 61 62 59 60 56 56 57 56 55 52 53 52 49 42 40 39 41 40 42 44 45 44 42 41 42 43 42 39 38 39 42 40 42 42 41 39 38 41 36 35 35 35
58 59 57 56 54 56 55 53 49 48 46 43 42 43 43 42 41 41 41 44 46 44 44 43 42 42 44 44 43 42 43 36 42 42 40 38 39 37 39 38 35 37 35 34
55 57 56 56 55 51 50 45 43 42 42 42 43 43 45 44 44 45 47 46 44 43 44 45 44 46 50 48 45 43 42 43 41 39 39 36 36 35 35 36 36 36 37 35
53 54 53 47 44 45 46 44 41 41 42 45 47 46 48 48 47 47 48 46 41 42 44 36 37 45 46 47 46 46 45 37 36 39 38 38 37 37 37 35 36 36 35 37
45 43 42 41 42 42 43 47 48 47 46 44 42 40 41 39 40 43 44 44 37 33 35 35 36 46 45 47 46 45 43 41 36 37 38 38 37 36 37 36 35 35 35 35
49 46 47 47 45 45 45 44 41 41 39 38 32 32 32 32 32 34 36 36 33 33 36 39 40 42 43 45 45 43 41 39 38 37 37 36 36 36 36 35 35 35 35 35
48 46 46 46 46 42 41 39 35 36 33 33 32 32 32 32 35 35 35 32 32 35 43 42 36 36 40 41 39 40 39 37 37 37 36 35 34 35 35 34 34 34 35 35
46 47 45 42 39 37 36 33 34 39 41 34 32 32 32 33 32 32 33 33 36 39 41 41 40 39 39 39 36 40 38 37 37 35 33 34 33 33 33 34 34 34 33 33
42 40 37 34 33 33 33 33 33 33 37 32 31 30 30 32 33 32 33 33 38 37 36 37 38 38 39 39 37 35 36 34 33 33 33 32 32 33 33 33 33 32 32 32
42 37 34 35 34 34 33 33 33 32 32 32 32 32 31 34 33 34 34 34 37 34 35 37 39 37 34 33 34 33 33 33 33 33 33 32 32 31 31 31 31 31 32 32
41 38 35 33 33 35 34 33 32 32 31 31 31 31 32 33 35 32 31 35 35 34 34 35 33 33 33 33 33 33 32 32 32 31 30 29 29 29 29 28 28 28 29 30
39 37 35 34 34 34 34 35 35 34 32 33 32 31 31 30 31 34 34 32 31 30 30 26 26 26 29 29 30 29 29 29 28 27 26 26 26 26 26 26 26 26 26 26
35 35 35 35 36 36 35 35 35 35 33 33 33 33 31 32 29 29 29 28 27 27 26 25 24 23 25 24 24 23 24 24 23 23 22 22 23 22 23 23 23 23 23 23
38 39 36 34 34 34 33 33 30 32 30 29 29 29 30 30 28 27 26 25 25 24 23 23 22 21 21 21 21 20 20 20 18 18 18 19 19 19 19 20 19 20 20 20
34 33 36 35 33 32 30 29 27 26 28 25 24 28 28 27 25 24 24 23 22 22 21 21 21 19 18 18 18 18 17 17 16 15 15 16 16 16 16 16 16 17 18 18

GFSNGP_sfc_temp_024.txt.gz
Temp
63 65 64 62 62 64 61 61 51 56 60 67 71 71 73 74 74 73 73 74 74 72 69 68 66 65 65 63 61 60 58 58 56 58 58 56 55 54 53 51 51 50 49 48
52 61 62 58 62 63 63 64 63 64 62 73 75 74 71 72 73 71 72 73 74 73 71 68 67 66 64 62 60 60 57 56 59 58 57 55 54 52 51 50 50 49 48 47
45 55 52 42 53 59 62 66 64 55 64 72 70 71 70 70 71 70 70 71 71 70 70 68 68 65 62 62 60 58 57 58 58 57 55 53 53 53 51 49 49 48 47 47
43 40 35 58 69 67 63 65 68 68 69 71 67 69 71 72 70 70 71 70 70 70 69 69 68 66 63 63 60 57 56 56 55 55 54 52 50 50 49 48 47 46 44 45
38 43 52 58 64 61 59 59 66 65 66 68 69 68 67 72 71 69 68 69 70 71 69 68 67 65 62 60 58 56 53 52 53 53 51 50 49 47 47 46 45 44 46 45
43 38 35 55 63 67 66 49 65 65 63 64 66 50 60 67 69 69 71 71 70 70 69 67 64 63 57 55 52 50 49 50 50 51 49 47 47 46 46 45 46 45 44 42
42 39 46 64 65 66 46 49 64 64 64 63 59 61 65 67 67 69 71 70 70 66 61 56 56 55 49 47 45 46 47 49 49 48 48 48 46 45 44 44 43 39 38 38
44 35 35 66 63 51 59 64 64 64 64 62 63 64 65 67 68 66 67 66 62 54 50 49 49 47 44 43 47 47 48 47 46 46 47 48 44 43 42 42 38 38 35 35
51 48 63 67 64 68 67 64 64 64 65 65 63 64 65 65 65 63 62 54 54 47 44 44 44 45 43 45 48 46 44 42 43 45 46 45 42 40 39 38 37 35 33 33
54 63 65 67 69 69 68 64 66 66 65 65 62 62 63 64 60 59 54 51 47 44 42 42 45 46 46 45 45 43 41 42 44 42 42 42 42 41 39 34 33 34 34 32
56 62 65 66 64 63 63 64 63 63 61 59 59 60 59 53 50 49 45 44 44 42 41 40 43 44 46 45 43 42 42 41 40 37 38 40 41 40 35 37 36 36 35 34
49 59 58 58 59 61 58 57 58 57 54 54 55 52 50 45 44 42 41 41 41 41 42 43 43 44 45 45 43 40 38 38 36 35 36 39 39 38 40 37 37 37 36 34
58 60 60 58 58 57 53 53 53 51 49 45 45 44 43 41 41 39 42 42 42 42 43 45 43 42 44 43 41 38 36 36 36 34 35 35 33 35 33 37 38 36 35 35
59 59 54 57 52 54 50 49 47 47 46 46 45 45 43 41 43 44 44 45 46 46 45 44 43 42 44 44 42 38 37 36 36 37 35 34 33 34 35 32 31 33 35 34
56 58 56 54 51 48 49 48 45 44 44 44 46 45 46 45 45 45 47 47 46 45 45 46 44 44 47 45 44 40 38 38 37 35 34 34 35 34 34 32 32 32 34 32
55 54 50 47 46 46 46 45 43 42 44 42 42 42 45 46 46 46 47 43 37 37 38 33 32 38 42 45 45 44 41 36 36 36 35 34 35 34 34 33 33 33 33 33
45 41 42 42 43 44 45 44 43 42 42 39 37 34 35 34 38 37 38 37 33 33 34 34 34 42 39 42 43 42 40 39 35 34 34 34 34 33 34 33 32 31 33 33
49 47 47 46 44 42 41 40 38 37 34 34 32 32 31 31 30 32 33 33 33 33 34 37 37 38 38 41 40 38 38 38 36 35 35 34 33 33 32 32 32 32 32 33
48 45 45 45 43 40 38 35 33 33 31 31 31 31 32 32 31 32 33 32 33 33 34 36 34 35 37 37 36 36 35 35 35 35 34 32 32 32 31 32 32 32 32 32
45 44 42 39 38 35 33 32 34 36 34 31 31 31 30 29 29 29 29 31 34 33 34 35 34 35 36 37 35 34 33 33 33 33 33 31 31 31 31 30 32 32 32 32
40 37 34 32 31 32 32 31 30 30 33 27 27 26 25 29 29 27 31 31 33 33 32 31 32 30 30 30 31 32 33 32 32 31 32 32 31 29 29 28 31 30 30 30
37 34 32 33 32 32 31 32 32 29 29 26 25 24 25 30 29 30 28 29 31 28 29 30 27 23 24 24 29 29 30 30 31 31 31 31 30 28 27 28 27 28 27 28
36 35 33 33 33 33 32 31 29 29 26 25 26 27 28 29 31 28 26 29 28 26 27 26 23 20 21 25 25 24 24 25 24 24 24 25 25 25 25 24 24 25 24 24
37 36 35 34 33 33 33 34 34 32 27 30 27 24 28 27 27 30 28 26 23 22 24 24 21 19 20 21 21 20 20 21 18 19 19 20 21 21 20 20 20 21 20 20
36 35 34 33 36 35 34 34 34 33 31 31 31 31 29 30 25 25 26 25 24 22 22 22 21 18 19 18 18 18 17 17 16 16 15 16 16 16 17 17 16 16 16 16
37 36 34 34 33 33 31 31 29 30 29 27 27 27 28 27 26 25 24 23 23 22 21 20 20 19 18 17 16 16 15 15 14 14 13 13 13 13 13 12 13 13 13 14
33 34 35 33 31 30 28 28 26 25 26 23 22 25 27 25 24 23 20 21 20 19 19 19 18 17 16 15 15 15 14 13 12 12 11 11 10 10 9 10 11 12 13 13

GFSNGP_sfc_temp_027.txt.gz
Temp
52 55 57 56 55 57 53 50 41 46 50 56 57 59 59 61 62 64 64 63 62 62 61 61 59 58 57 55 54 55 52 53 54 54 54 53 52 51 50 49 48 49 48 46
42 55 54 49 53 54 54 55 52 52 51 60 61 61 61 62 63 62 62 63 63 62 60 60 59 57 57 55 54 55 54 54 55 54 53 51 50 50 49 46 47 47 46 45
35 45 45 35 46 52 53 55 53 45 52 57 57 59 58 59 61 61 62 61 62 61 60 59 58 59 55 55 55 54 54 54 53 51 51 48 48 48 47 46 46 46 45 44
31 33 26 47 59 59 55 55 55 55 55 56 57 57 59 59 57 58 60 61 62 61 61 59 57 56 57 58 56 53 52 51 49 47 48 48 48 46 45 45 44 43 43 43
30 30 41 50 54 52 50 48 55 53 55 56 58 55 53 59 59 59 59 60 60 61 59 55 55 55 56 54 50 49 48 48 48 47 47 45 44 43 43 43 42 42 43 42
30 27 25 43 55 60 58 37 54 55 53 53 54 36 46 58 60 59 59 56 51 52 50 48 48 50 46 44 43 43 45 45 46 45 44 43 42 42 42 43 43 42 41 40
26 25 35 53 58 58 37 39 54 55 53 52 48 49 55 57 59 56 53 49 47 45 43 43 45 44 42 41 40 43 44 44 43 45 43 43 43 43 41 39 37 35 34 35
32 29 29 57 55 45 47 52 55 54 53 52 53 56 57 57 53 51 46 44 43 41 41 43 45 44 42 41 43 43 43 43 44 43 43 45 41 40 39 37 33 32 31 32
40 36 50 55 55 56 56 54 53 53 54 55 53 53 55 52 46 44 42 40 42 41 42 44 45 43 42 43 44 43 42 40 40 41 42 41 38 36 34 34 29 30 30 30
44 52 54 55 56 56 56 54 54 53 52 53 51 51 48 47 44 42 41 41 43 41 40 40 43 43 42 42 42 40 38 38 38 37 37 36 36 35 33 26 26 29 28 28
46 51 52 52 53 53 53 53 51 50 49 48 47 44 43 40 40 40 41 41 41 40 38 38 40 41 41 40 40 38 37 37 35 31 33 33 34 34 31 32 32 29 28 29
35 51 48 47 50 52 49 48 49 46 43 44 45 42 41 39 40 40 39 39 39 37 38 39 39 39 40 40 38 35 34 32 30 28 30 32 32 32 35 36 36 36 36 33
49 52 50 49 47 48 45 45 45 44 43 40 41 40 39 36 38 39 40 38 40 40 39 38 38 37 38 38 37 34 31 31 30 31 30 29 27 27 28 30 36 36 36 36
53 52 46 48 42 45 44 44 44 43 43 41 39 39 37 37 38 39 39 40 40 40 39 38 37 36 38 38 37 34 32 32 32 31 30 29 27 29 33 33 29 29 32 34
49 50 46 46 46 45 45 43 40 39 39 38 39 39 40 39 38 38 38 38 38 37 36 36 33 34 37 37 37 35 33 31 32 31 33 34 32 32 32 28 28 29 30 28
47 46 45 43 43 43 41 39 37 36 37 38 37 35 36 37 36 36 36 33 30 29 31 30 32 33 35 37 37 37 35 32 31 32 34 35 34 31 32 29 29 28 28 29
39 37 39 41 40 41 39 38 38 38 35 31 30 30 31 30 30 31 32 33 32 31 31 31 32 36 35 39 37 35 33 33 34 35 33 33 34 33 32 28 28 28 29 29
45 43 44 43 39 37 35 35 32 30 30 31 31 31 31 30 28 29 26 26 24 25 31 31 31 32 32 34 32 32 32 32 32 32 33 33 33 33 32 27 24 25 28 27
45 42 42 41 39 35 32 31 30 30 30 31 30 28 24 23 25 25 25 21 23 26 28 31 29 28 27 28 26 27 27 27 28 30 30 30 31 32 32 27 24 23 30 31
39 39 37 35 33 32 31 31 30 29 30 27 23 20 21 19 18 17 20 23 27 26 28 27 26 24 24 24 21 25 25 26 27 28 29 29 29 31 30 28 24 21 23 29
33 32 31 30 30 29 29 27 27 27 29 22 21 16 16 20 20 16 21 22 25 24 25 24 22 21 22 20 24 22 21 22 22 21 22 23 23 25 26 26 24 23 23 19
32 31 30 30 28 29 28 28 28 25 23 20 15 14 14 23 18 20 17 21 24 16 21 22 20 14 18 16 19 18 17 19 16 17 17 17 19 19 20 21 21 21 21 20
33 33 32 29 28 29 28 26 23 22 18 16 14 16 18 21 22 18 17 23 22 17 21 18 11 11 10 15 15 14 14 15 12 12 12 14 15 15 16 16 16 15 15 15
32 32 32 30 28 27 28 29 28 26 18 23 16 14 21 14 11 21 19 15 10 10 11 16 12 10 6 5 9 12 11 12 10 10 10 10 11 12 13 12 11 12 12 12
32 32 30 28 29 28 28 29 28 27 26 26 25 26 24 22 13 13 10 11 14 12 8 7 9 8 4 1 4 7 8 10 6 8 7 8 8 9 8 9 10 10 10 11
31 29 29 28 27 26 26 25 22 21 21 16 15 10 14 14 14 14 10 10 11 11 7 3 3 4 5 3 2 4 1 7 5 8 6 4 4 5 5 6 7 8 9 10
29 28 27 26 26 25 23 21 17 14 11 7 8 9 17 13 8 10 5 3 3 3 1 1 1 3 5 6 -1 1 -2 -1 -1 6 -0 -3 1 1 2 4 6 7 8 8

GFSNGP_sfc_temp_030.txt.gz
Temp
49 51 51 50 51 52 49 47 39 45 46 54 54 53 56 58 58 57 57 58 57 57 58 57 56 54 53 53 53 53 52 51 52 53 52 50 46 46 46 46 46 46 44 45
40 49 49 46 50 50 51 50 49 49 47 53 54 54 55 56 58 57 57 58 59 59 57 56 56 54 53 53 52 52 53 52 53 52 50 48 47 46 45 46 47 46 44 43
35 42 42 34 43 49 51 51 51 41 48 52 52 54 53 53 56 55 56 56 57 56 56 55 55 54 53 52 52 52 51 52 51 49 47 46 47 46 45 44 44 44 42 42
30 32 25 45 54 53 49 49 51 51 51 51 52 51 52 53 53 54 56 56 55 54 55 54 53 53 51 52 50 51 49 48 48 46 45 45 44 43 42 42 42 41 41 41
29 29 38 48 52 50 47 44 50 49 51 51 53 51 51 55 53 51 49 47 46 46 47 48 50 51 48 47 46 45 45 45 44 43 43 42 41 40 41 41 40 40 41 40
29 27 25 41 51 56 53 35 52 51 49 50 50 35 45 52 50 47 45 45 44 44 43 43 43 44 42 40 41 40 42 43 43 42 41 40 40 40 41 41 40 38 37 37
23 24 33 47 54 54 38 38 51 51 51 50 46 46 49 47 44 44 43 43 44 43 42 42 43 44 40 41 40 42 43 43 42 41 41 42 41 40 38 36 35 32 32 32
31 25 30 52 52 44 45 48 51 51 51 49 49 48 47 46 43 42 40 41 42 41 41 43 44 43 41 41 43 43 42 41 41 42 42 41 37 36 36 33 31 31 27 30
37 36 48 51 51 52 52 50 49 49 49 51 49 47 44 41 40 40 39 39 42 42 42 42 41 40 39 41 42 41 39 38 38 38 38 37 34 33 32 31 26 29 28 26
42 47 47 49 50 51 51 48 48 49 48 49 44 43 41 40 40 39 39 40 42 41 39 39 41 41 39 39 39 38 36 36 36 34 34 33 33 32 31 26 26 29 28 28
42 44 48 48 48 49 47 46 45 46 45 43 42 40 40 39 39 39 40 40 40 39 38 38 38 38 39 38 38 36 35 34 33 29 31 31 32 31 31 31 30 28 28 28
36 49 45 44 46 47 45 44 44 42 41 42 41 39 38 36 37 39 38 39 39 38 38 36 37 37 38 38 36 34 33 32 29 28 28 30 30 31 34 34 35 35 35 32
47 49 46 44 45 45 42 42 42 40 40 37 38 38 37 35 35 38 39 37 37 36 37 36 35 34 35 35 34 33 31 31 30 29 29 29 30 29 30 33 34 35 36 36
48 47 41 43 39 42 42 42 42 40 40 38 37 37 35 35 36 35 34 36 36 35 34 33 32 32 33 34 34 33 32 31 30 31 31 31 30 31 31 31 31 27 31 34
45 46 44 43 42 41 42 40 38 36 35 35 35 35 35 34 33 32 32 32 32 31 32 33 33 32 35 34 34 32 32 29 29 33 33 33 33 32 31 32 32 31 29 27
43 43 42 40 39 39 38 37 34 33 33 33 32 32 33 33 32 32 32 32 30 30 32 30 29 31 32 33 31 31 31 29 29 31 31 31 33 32 32 33 32 32 28 31
37 35 37 36 38 37 36 36 35 33 31 30 30 31 31 30 29 29 29 29 29 30 30 28 27 30 29 29 27 26 25 26 26 27 27 28 29 31 31 31 31 31 31 31
43 41 40 40 37 35 33 32 30 31 30 31 30 25 23 23 25 26 25 25 25 25 26 27 26 26 26 26 25 24 23 24 25 26 26 25 26 27 28 28 29 30 32 28
44 41 40 39 38 34 30 29 30 30 30 28 25 23 22 21 24 24 24 22 20 22 24 25 24 23 23 23 22 23 21 20 20 22 22 22 22 23 24 24 26 28 27 26
38 37 36 34 34 31 29 29 29 29 29 25 22 22 23 20 16 19 22 20 22 22 25 23 22 21 21 21 18 20 16 16 15 15 16 15 17 18 19 20 21 22 22 22
33 32 31 30 29 30 30 29 28 27 27 22 22 18 17 20 19 17 20 21 23 22 23 20 19 18 20 16 17 11 11 12 10 11 10 11 13 13 13 15 16 16 16 16
32 30 29 29 28 28 28 28 27 25 23 20 17 15 17 22 17 19 15 19 23 12 18 18 18 8 13 9 14 5 10 11 9 8 7 9 9 8 10 10 10 11 13 13
31 31 30 28 28 28 27 25 24 23 20 18 16 17 20 22 21 15 14 21 20 13 18 11 7 4 4 1 0 -2 1 1 -1 3 3 6 6 5 7 6 6 7 8 9
31 31 30 29 28 27 26 27 27 24 20 22 16 14 21 15 11 19 17 10 5 4 4 3 3 3 1 -4 -3 -4 -4 -1 -6 -2 2 -0 1 3 3 2 4 6 7 8
32 31 29 28 29 27 29 28 26 26 25 24 23 24 22 20 11 11 6 7 9 7 2 -1 2 1 -5 -8 -8 -7 -9 -6 -9 -3 -3 -8 -3 -0 -1 -0 1 3 5 6
30 28 27 27 26 26 25 24 21 20 20 14 13 4 13 15 14 10 5 4 5 4 -0 -5 -7 -6 -7 -2 -7 -7 -8 -6 -8 -3 -8 -9 -5 -3 -3 -2 -0 1 2 4
26 25 25 24 24 24 22 21 17 15 11 7 7 7 10 7 2 4 -3 -3 -3 -4 -7 -6 -8 -5 -6 -6 -3 -5 -8 -10 -10 -5 -14 -15 -11 -6 -5 -3 -1 0 2 3

GFSNGP_sfc_temp_033.txt.gz
Temp
46 48 49 49 49 48 46 44 38 44 43 50 51 54 53 54 54 54 54 54 54 53 53 54 52 52 50 50 51 52 50 50 51 52 52 51 48 47 46 46 46 46 46 45
39 46 46 44 48 48 47 47 46 46 45 49 50 49 51 52 54 53 54 54 55 55 55 54 53 51 50 50 51 50 50 49 50 50 47 46 46 45 45 44 45 45 44 43
35 39 39 34 41 46 48 49 49 41 48 48 48 50 48 49 52 52 53 53 53 53 53 53 51 52 50 49 48 48 50 50 48 46 45 45 45 44 43 42 42 41 41 42
30 32 25 44 50 50 46 46 47 48 48 48 48 47 49 50 50 50 49 48 46 45 48 48 48 47 47 48 47 46 45 45 45 44 44 44 43 42 40 40 40 40 40 40
30 30 37 45 47 47 45 42 48 46 48 48 49 48 48 50 47 45 44 43 41 41 42 42 44 45 44 43 43 43 43 44 44 43 42 41 40 39 39 39 39 39 39 36
27 27 27 41 48 53 51 35 50 48 48 48 46 34 43 46 44 42 42 42 41 41 41 40 41 42 41 40 41 40 43 43 42 42 41 39 39 39 39 40 39 37 35 34
22 25 33 45 51 53 38 39 48 49 48 47 45 44 44 42 41 41 41 41 41 41 39 40 41 42 40 42 41 42 43 42 41 41 40 40 40 40 38 36 34 31 31 31
26 24 30 49 49 43 45 45 49 48 48 46 43 42 41 41 39 40 39 40 41 39 39 39 41 42 41 40 42 42 42 41 41 41 41 41 36 34 34 32 30 30 27 29
37 36 46 48 49 49 49 49 48 49 48 47 43 41 40 38 38 38 37 37 39 38 38 41 42 42 39 40 39 39 37 36 36 36 36 35 33 32 31 30 27 28 28 28
40 44 46 45 46 47 48 46 47 47 47 46 41 40 38 38 38 37 36 36 38 39 39 38 41 41 39 39 37 36 35 34 34 33 33 33 32 32 30 27 26 29 29 28
39 41 44 45 44 44 44 44 43 43 43 42 40 39 39 37 37 36 36 38 39 38 38 38 39 38 36 35 36 34 34 34 33 30 31 31 31 31 31 31 31 30 29 28
36 46 45 44 44 45 43 41 42 41 39 40 40 38 38 36 36 37 38 39 38 38 37 35 33 32 33 34 33 32 32 31 30 29 30 30 30 31 34 34 34 35 34 33
47 48 43 43 42 43 41 40 41 40 39 36 37 37 37 34 34 38 38 37 35 32 32 31 30 30 31 32 32 32 30 31 30 29 29 29 30 30 31 34 36 35 35 36
45 44 39 40 37 40 40 39 40 38 38 37 36 35 34 32 32 32 31 32 32 31 32 31 30 29 31 32 32 31 30 30 28 28 28 28 28 32 32 31 30 31 35 33
42 44 43 41 40 38 39 38 36 34 34 33 33 33 33 30 30 30 30 30 32 32 30 29 28 27 30 29 29 28 27 28 27 26 26 26 27 27 28 29 30 31 32 30
41 40 40 37 37 37 36 35 32 31 31 32 31 31 31 31 30 29 30 32 30 27 26 21 26 26 27 27 26 25 24 23 22 24 24 25 25 25 25 26 26 26 27 28
36 34 35 34 35 35 35 35 34 31 30 31 29 30 30 30 29 29 28 28 25 24 25 23 23 26 26 25 25 22 23 23 21 23 22 22 21 21 22 23 22 23 26 29
42 40 39 38 35 33 32 32 31 31 30 30 26 25 25 25 25 25 24 24 21 21 24 23 23 24 24 24 23 22 19 19 19 18 19 17 17 19 19 19 19 20 19 20
42 40 39 38 37 34 32 30 30 30 28 27 27 25 24 24 25 23 21 17 15 19 22 23 23 21 21 21 19 18 15 13 12 15 13 11 12 14 13 14 15 15 16 17
38 38 36 34 33 31 30 30 29 29 29 27 25 25 22 19 21 18 19 19 21 22 23 21 21 19 19 19 13 16 10 6 9 9 8 7 8 6 8 11 10 10 10 12
33 33 32 30 28 28 28 29 28 27 28 25 23 21 21 21 19 17 18 19 22 21 22 19 18 17 18 13 14 2 3 -1 -0 4 -1 3 4 3 4 6 4 5 6 8
32 30 29 29 28 27 28 28 27 24 23 20 18 18 18 19 17 17 14 19 21 13 17 16 16 7 10 5 10 -2 3 2 1 -0 -1 -1 0 -1 1 2 0 3 4 4
31 30 30 28 28 27 27 25 24 23 21 19 18 19 20 21 19 15 15 20 19 11 16 8 4 2 -0 -6 -6 -9 -7 -7 -10 -8 -8 -12 -11 -8 -2 -2 -2 -0 1 2
30 29 29 28 27 26 25 26 26 23 20 21 18 17 21 15 12 18 17 9 5 1 2 -2 -1 0 -4 -9 -10 -12 -11 -12 -14 -14 -8 -10 -15 -11 -8 -7 -5 -3 -1 0
30 29 28 28 28 27 27 27 25 24 24 24 24 23 21 19 12 12 7 5 8 5 -0 -5 -1 -4 -10 -12 -13 -13 -13 -14 -16 -14 -15 -18 -13 -12 -11 -10 -7 -5 -3 -2
30 28 27 27 26 25 24 24 22 21 19 15 14 11 11 13 12 10 4 2 3 1 -3 -9 -11 -12 -12 -9 -10 -11 -12 -10 -15 -13 -16 -17 -15 -13 -13 -9 -8 -6 -5 -3
25 24 24 23 23 22 21 21 20 18 16 13 13 12 10 7 2 3 -5 -6 -7 -9 -9 -11 -13 -10 -10 -13 -12 -7 -9 -13 -16 -13 -19 -20 -18 -18 -15 -12 -11 -8 -7 -5

GFSNGP_sfc_temp_036.txt.gz
Temp
44 47 47 46 47 45 43 42 38 42 41 48 50 51 51 52 51 51 50 51 51 51 51 52 51 50 50 48 47 48 48 47 47 49 47 46 46 46 45 45 45 46 45 44
38 43 43 41 45 44 44 43 43 43 43 50 48 46 48 49 50 50 51 51 52 52 51 51 51 50 49 48 48 48 46 46 47 46 45 45 45 44 44 44 43 43 42 41
35 38 40 34 40 45 44 45 46 40 46 48 45 47 46 47 49 48 47 46 46 46 47 48 49 49 46 46 46 45 46 46 44 44 44 43 43 44 43 41 41 40 39 40
29 31 25 44 46 47 45 45 46 45 45 47 47 45 45 45 46 45 44 42 41 40 42 42 43 44 44 45 43 43 42 42 44 44 43 43 42 41 40 40 39 39 39 40
31 29 36 43 45 44 44 44 47 44 44 45 46 46 44 43 42 40 39 39 38 39 39 39 40 42 42 41 42 42 41 42 43 43 42 41 40 39 39 39 39 39 39 38
27 27 26 40 47 50 49 36 48 47 44 44 45 34 41 41 40 39 39 39 38 38 39 39 39 41 40 39 39 39 40 42 42 42 41 40 39 39 39 39 39 38 36 34
22 25 33 44 48 50 37 39 47 48 46 45 44 42 40 39 38 39 38 38 39 38 37 37 39 41 39 39 38 39 41 41 41 41 41 41 40 39 37 35 34 32 32 32
26 24 30 48 47 42 44 43 46 46 46 45 40 39 38 38 38 38 37 37 38 37 37 38 38 39 37 37 39 40 41 41 41 39 38 38 35 33 33 32 30 30 28 30
38 37 46 47 46 49 47 47 47 47 46 44 40 38 38 37 36 36 35 35 37 37 36 37 38 38 36 37 39 37 35 34 34 34 34 33 32 31 31 30 26 28 29 29
40 44 44 46 45 45 46 46 46 46 45 44 39 38 36 36 36 35 35 35 36 37 36 35 38 38 37 37 35 34 33 32 32 32 32 31 31 31 29 27 27 29 29 29
38 41 42 45 44 44 42 43 43 42 42 40 39 37 37 35 35 35 35 36 38 38 36 35 35 34 34 32 32 31 32 31 31 29 29 30 30 30 30 30 31 30 30 30
40 46 46 46 43 43 42 40 41 40 38 39 39 37 37 35 35 35 35 37 37 35 34 32 32 30 30 31 31 30 30 30 28 27 26 28 28 29 34 34 35 35 35 33
50 47 41 41 41 42 40 39 39 39 39 36 37 37 36 34 33 36 36 35 33 31 31 29 28 28 29 30 30 29 27 28 28 27 27 27 28 27 25 30 34 35 35 35
44 44 39 41 38 39 39 38 38 37 37 36 35 35 34 32 32 33 32 31 32 32 29 28 27 27 27 28 28 26 26 25 23 23 23 23 22 23 23 23 23 25 31 32
42 43 43 40 39 37 37 37 34 33 33 32 34 32 32 30 29 29 31 32 30 28 27 26 25 24 26 27 26 25 24 22 22 20 20 21 22 23 23 22 23 22 23 25
39 39 39 36 35 35 35 34 32 31 32 32 31 31 30 30 29 30 32 32 27 25 24 20 23 25 26 26 25 23 22 21 19 21 20 19 19 19 20 20 19 19 19 19
34 32 34 33 33 33 33 34 34 32 32 32 31 31 31 29 28 29 26 26 24 23 23 21 22 25 25 25 23 20 19 19 16 17 17 16 14 15 16 14 14 15 15 16
42 39 38 37 34 32 32 33 32 33 32 31 29 28 27 26 26 25 23 23 22 21 22 22 22 24 23 22 21 18 16 15 15 14 13 10 10 12 10 11 11 10 10 12
40 37 37 36 35 34 32 31 31 30 28 28 28 26 26 25 24 23 21 19 19 20 21 22 22 20 20 19 17 15 12 7 9 11 8 5 5 6 5 7 6 5 6 7
37 37 35 34 33 32 29 29 30 29 29 27 26 25 23 22 21 19 19 19 21 21 22 21 19 18 17 17 12 13 8 2 6 3 -1 1 -6 -6 -3 1 3 1 1 3
32 32 30 30 29 29 30 30 28 27 28 27 25 23 22 21 19 17 17 18 21 22 21 19 17 16 16 12 13 -0 1 -6 -6 -4 -10 -9 -10 -7 -7 -6 -5 -3 -1 1
31 29 28 29 28 27 27 28 27 26 24 22 21 20 19 19 17 17 16 19 21 16 17 16 16 7 10 7 9 -3 -0 -2 -4 -7 -9 -12 -14 -13 -11 -10 -9 -5 -3 -2
30 29 28 28 27 26 26 25 24 23 21 21 20 20 21 21 20 17 16 19 19 13 16 10 5 3 -0 -5 -7 -11 -10 -11 -13 -13 -14 -19 -19 -19 -15 -10 -8 -8 -7 -5
30 29 28 27 26 26 25 25 25 23 21 22 20 19 20 16 14 18 16 9 6 4 5 0 0 1 -4 -11 -13 -15 -14 -16 -18 -19 -13 -15 -22 -21 -17 -15 -12 -9 -9 -7
28 27 27 26 26 26 26 25 24 24 24 23 23 22 21 19 14 14 9 7 9 7 2 -5 -2 -6 -13 -14 -15 -15 -15 -17 -19 -20 -19 -22 -20 -19 -17 -16 -16 -13 -10 -8
26 25 25 25 25 25 25 24 21 20 20 17 17 16 14 15 14 13 10 5 4 2 -2 -10 -11 -14 -15 -13 -14 -15 -12 -10 -16 -18 -20 -22 -22 -18 -18 -16 -15 -14 -12 -10
24 24 23 21 21 21 21 22 20 17 16 16 16 14 13 11 8 9 2 -1 -6 -9 -10 -10 -14 -12 -13 -16 -15 -13 -12 -13 -17 -15 -22 -25 -24 -22 -20 -19 -16 -15 -13 -11

GFSNGP_sfc_temp_039.txt.gz
Temp
50 52 52 52 51 49 49 50 46 51 48 57 60 61 61 59 59 60 59 59 59 60 60 60 60 59 58 57 56 57 56 56 54 55 55 54 52 48 47 47 48 48 48 47
45 48 50 48 51 50 50 49 50 50 50 59 59 59 57 55 56 55 54 54 55 57 58 58 58 59 56 55 55 56 55 54 54 51 50 48 46 45 44 45 46 46 43 43
41 44 46 39 46 50 50 51 52 47 56 57 55 55 54 53 54 51 50 50 50 50 51 52 54 55 54 54 54 53 53 52 51 48 46 45 45 45 42 43 44 42 42 43
37 37 34 51 53 54 52 53 54 53 55 56 55 51 51 53 53 49 48 47 46 48 48 49 51 51 51 51 50 50 49 49 49 48 45 45 44 44 42 42 42 43 45 43
36 38 43 48 50 50 49 54 56 54 53 52 51 52 48 46 48 46 45 45 45 46 46 48 48 49 49 49 49 48 47 47 47 46 46 46 42 42 45 44 45 42 41 40
34 35 34 48 54 55 57 44 55 54 51 50 51 49 52 46 45 44 44 45 45 45 46 46 46 48 47 46 46 45 46 47 48 49 48 46 45 43 42 41 41 44 44 44
32 37 41 50 54 55 44 50 53 54 53 52 51 52 49 45 43 44 44 44 45 46 44 45 47 47 45 45 43 46 46 46 45 44 42 42 43 45 45 44 43 42 41 42
34 35 37 52 51 48 54 53 53 53 53 51 45 43 43 43 42 42 43 43 45 44 43 45 46 45 42 41 44 45 43 42 43 44 43 43 43 43 43 42 41 40 37 40
45 45 53 52 56 56 54 55 52 54 53 48 43 43 42 41 41 42 43 43 44 43 42 43 44 45 42 42 44 43 42 41 41 41 41 41 41 41 41 41 39 38 38 38
47 51 51 52 53 54 54 54 54 55 53 50 46 43 41 41 41 41 42 42 43 42 40 39 41 40 41 41 41 41 40 39 39 39 39 40 41 40 40 38 37 37 36 35
46 48 48 51 52 53 50 50 49 50 50 48 44 42 42 40 40 41 41 41 42 40 38 37 37 36 36 38 40 39 38 37 37 36 36 37 38 37 36 38 36 34 35 34
44 54 53 55 55 49 48 48 48 46 44 45 45 42 42 40 41 41 40 40 39 37 35 34 33 32 35 37 37 36 35 34 32 33 33 34 34 34 33 32 32 32 32 32
53 51 45 44 47 48 46 45 45 45 43 41 42 42 41 39 39 38 39 38 36 33 32 32 32 32 33 34 34 32 31 31 31 30 31 30 30 29 28 31 31 31 30 30
47 48 45 44 45 44 43 42 42 42 41 41 40 40 39 37 37 36 35 34 33 32 31 32 31 30 31 32 32 30 30 26 28 29 28 28 28 27 27 26 24 26 29 28
45 45 48 43 42 40 40 40 37 36 36 37 38 37 37 35 33 32 33 32 32 32 31 31 29 28 31 31 30 28 28 27 26 26 26 24 24 24 25 24 23 23 25 25
41 41 42 41 38 38 39 38 35 34 35 35 35 36 35 33 32 32 32 32 30 28 28 23 26 28 29 29 28 27 25 22 22 23 23 22 21 21 21 20 20 20 19 19
37 35 36 36 36 36 36 37 37 35 35 34 33 33 32 31 30 29 29 27 24 24 24 24 25 28 27 27 26 24 23 22 18 21 20 19 18 18 17 17 17 16 16 16
43 41 41 39 36 35 34 35 35 35 33 32 30 30 29 29 26 26 25 24 23 22 23 24 25 26 25 24 23 21 19 19 19 17 17 15 14 15 14 13 14 13 13 14
40 37 37 36 37 34 33 33 31 30 29 29 28 27 27 26 26 25 24 22 21 21 22 24 23 22 22 21 20 18 16 15 15 15 14 11 11 11 10 10 11 11 10 10
35 35 35 34 34 32 30 30 30 29 29 28 27 26 24 23 23 22 24 23 24 24 24 22 21 20 19 18 16 17 14 13 13 12 10 9 8 8 8 7 7 8 8 8
32 32 31 30 29 30 29 29 28 27 28 28 27 24 23 22 22 21 21 21 22 23 22 20 20 20 19 18 17 14 13 11 10 9 7 7 6 6 5 5 5 6 5 6
30 29 28 28 28 27 28 29 28 27 25 24 23 23 22 21 20 20 21 23 23 21 21 20 19 13 15 14 15 13 12 11 9 8 8 6 5 3 3 3 3 3 4 4
30 29 28 27 26 26 26 25 25 25 23 23 22 23 23 23 24 21 19 21 22 18 19 17 12 9 7 13 12 10 10 8 7 6 6 4 3 2 1 1 0 1 1 2
29 28 27 27 27 27 25 26 26 24 23 23 21 22 23 20 20 22 21 17 16 17 16 13 12 9 7 10 9 9 8 8 6 5 5 -3 3 1 1 -1 -2 -0 -1 -1
28 28 28 26 25 24 25 25 25 25 24 24 24 23 23 22 22 19 18 17 16 16 14 6 7 5 9 9 8 7 7 6 6 4 3 2 1 -1 -1 -1 -3 -3 -3 -2
25 25 24 25 25 25 25 24 22 22 22 21 20 19 19 19 18 17 16 14 14 11 13 9 8 8 8 8 7 5 5 6 5 4 1 1 -0 -1 -3 -4 -5 -4 -4 -3
21 22 21 20 21 21 21 22 21 19 20 21 19 18 17 16 15 14 12 12 11 10 9 9 8 6 7 6 5 5 5 5 1 3 2 -1 -2 -3 -5 -6 -6 -6 -6 -5

GFSNGP_sfc_temp_042.txt.gz
Temp
62 64 65 63 63 61 59 60 54 59 61 66 71 73 75 71 70 69 69 70 70 73 73 73 71 69 69 67 67 67 66 66 63 63 63 62 60 60 59 59 55 50 50 46
55 61 61 59 63 64 63 63 62 63 62 73 75 73 71 68 67 66 65 66 67 69 69 68 68 68 65 65 64 66 64 63 62 61 59 57 55 54 49 48 48 46 47 45
49 57 56 46 55 61 63 64 63 57 66 73 71 69 70 67 66 64 62 63 63 63 64 65 65 66 64 63 63 63 61 60 59 57 54 52 50 49 45 49 44 45 46 52
48 42 36 60 65 68 64 66 69 67 70 71 71 71 66 68 65 61 61 60 60 61 61 63 63 62 62 62 61 59 58 57 56 55 52 52 51 50 47 47 46 48 49 47
42 45 55 56 58 59 59 62 71 69 71 71 66 63 58 60 64 61 59 59 59 60 60 61 61 61 60 60 59 57 56 55 55 55 54 53 52 51 52 52 50 50 46 43
43 43 38 58 68 69 67 54 72 70 68 67 62 55 64 58 57 56 58 58 57 58 59 59 59 60 58 57 56 54 55 55 55 55 54 52 51 47 43 43 44 46 49 51
46 44 53 63 64 66 51 57 69 71 69 65 60 66 62 58 56 57 57 56 57 58 57 57 58 58 55 55 52 54 53 51 49 47 45 47 51 52 53 52 51 49 47 49
48 41 41 62 61 58 67 65 69 67 68 64 63 58 56 56 54 54 54 54 56 54 54 55 56 55 51 47 49 50 48 47 51 51 50 51 50 51 50 50 47 46 45 46
54 54 67 64 70 70 71 71 66 68 68 66 56 55 55 54 53 54 55 55 55 54 52 53 55 54 50 49 50 50 50 49 49 49 49 49 49 48 49 48 46 44 43 42
52 64 62 65 70 68 68 69 69 69 67 62 58 56 54 53 53 53 55 54 54 51 49 48 51 51 50 50 51 49 48 47 47 45 46 47 49 47 46 43 41 40 40 39
56 64 60 63 66 69 66 64 63 67 65 62 59 56 54 53 52 54 54 52 52 49 47 46 47 46 48 48 49 47 45 45 44 43 44 45 45 43 40 41 35 35 36 36
53 66 63 70 71 69 65 60 63 63 61 62 59 55 55 52 53 52 50 50 49 47 45 44 43 43 43 45 46 45 42 42 38 40 41 43 42 42 32 32 31 31 30 30
63 61 63 60 60 68 63 62 63 61 62 58 58 55 54 51 50 46 49 48 46 43 41 39 38 37 40 42 42 40 39 38 38 37 38 37 37 36 35 36 32 31 30 29
57 55 56 55 57 55 58 58 54 59 58 56 54 53 51 48 46 46 45 45 43 41 37 36 36 37 39 40 39 37 35 30 37 37 36 35 35 34 34 31 29 31 31 28
55 54 52 54 54 53 53 52 50 49 50 50 51 47 46 43 44 44 43 41 39 36 36 36 37 36 38 37 37 36 36 34 34 33 31 30 31 31 31 29 28 28 30 29
49 52 50 50 48 46 47 47 47 43 45 44 44 44 45 45 41 41 39 36 32 32 36 30 32 34 35 36 36 35 30 25 28 31 30 29 29 28 28 27 26 26 26 25
45 43 44 42 43 45 45 47 45 44 43 44 43 42 39 37 35 31 28 27 27 27 29 29 31 33 32 33 34 33 33 29 23 29 28 27 26 25 25 24 23 23 23 22
50 49 49 49 46 42 42 43 43 41 40 39 33 32 30 29 26 25 25 24 23 23 25 28 29 29 29 29 29 28 27 27 27 25 26 23 22 23 22 21 21 21 21 21
47 46 46 45 44 42 40 36 33 32 32 32 31 28 28 27 26 25 25 23 22 22 24 26 25 26 25 23 25 26 24 23 24 24 22 18 21 20 19 18 18 18 18 18
38 37 36 36 36 34 31 31 31 30 30 29 28 28 27 25 25 24 25 25 27 26 26 25 25 24 23 22 21 24 22 21 21 21 18 18 18 16 17 15 15 16 16 16
31 31 30 29 29 30 30 30 30 29 30 30 28 26 25 25 25 24 23 22 23 25 25 24 25 25 25 24 24 22 21 20 19 18 17 16 15 16 15 15 14 14 14 14
30 29 29 29 29 29 30 30 30 28 27 26 25 25 23 23 23 23 26 27 26 25 25 25 24 19 20 17 22 21 20 18 18 17 17 15 14 13 13 12 12 12 12 13
30 29 29 28 27 27 28 27 27 27 26 26 26 27 26 27 28 26 23 26 27 23 25 23 17 15 14 20 20 18 17 16 15 15 14 14 13 12 11 10 10 10 10 10
29 29 28 28 29 28 26 26 27 26 25 25 25 27 27 25 25 26 25 23 21 21 21 19 18 13 13 19 17 16 15 16 15 14 14 9 12 11 10 9 8 9 8 8
29 29 28 27 27 27 27 27 26 26 26 26 26 27 27 27 27 24 23 21 19 20 20 13 12 11 17 17 16 14 14 14 14 13 12 12 11 10 9 9 7 7 5 6
26 25 25 26 27 27 27 28 26 27 27 25 24 25 24 24 23 22 21 19 19 16 19 19 17 16 16 16 14 13 13 14 13 12 10 10 10 9 8 7 5 5 5 5
23 24 25 23 24 24 24 24 24 23 23 24 23 23 23 22 20 20 18 19 19 18 18 17 17 15 14 14 13 13 13 13 11 10 9 9 9 8 7 5 4 4 3 2

GFSNGP_sfc_temp_045.txt.gz
Temp
64 67 67 65 64 65 63 63 56 61 64 70 74 76 78 77 78 77 77 78 80 80 80 78 76 76 75 73 72 73 72 72 66 66 66 64 62 60 58 57 55 52 51 52
58 65 66 62 66 67 67 66 65 66 65 76 78 80 78 77 76 76 75 75 76 78 77 75 73 73 71 70 69 70 69 66 66 65 64 62 61 59 58 57 55 52 47 47
50 61 61 51 60 65 67 69 67 60 68 76 75 76 76 76 76 74 73 72 73 73 73 73 71 70 68 68 68 67 65 64 62 61 59 57 57 56 54 53 53 49 49 50
49 46 39 60 71 71 66 69 72 72 73 76 76 79 78 77 76 71 70 69 69 69 69 70 71 69 68 68 66 64 63 61 60 58 56 57 56 55 54 53 52 51 52 53
45 47 55 62 66 65 64 64 74 72 74 77 78 74 69 73 75 71 69 69 69 70 69 68 68 68 67 65 64 62 60 59 59 59 57 57 55 53 53 52 52 50 47 48
49 43 39 58 69 75 74 55 74 75 74 73 73 59 69 69 70 68 68 67 66 67 67 66 66 67 64 62 61 59 59 59 59 59 57 54 52 51 50 50 51 52 52 53
47 46 54 68 72 76 53 57 75 76 75 74 69 71 72 68 65 67 66 65 65 66 64 64 65 64 62 60 58 59 59 57 55 55 53 53 54 55 55 54 54 51 49 51
48 45 41 67 67 60 67 74 75 75 76 73 74 67 66 65 64 64 63 63 65 62 62 63 64 62 59 57 57 56 54 53 54 55 55 55 54 53 53 53 50 48 47 47
55 55 67 67 69 73 77 76 75 75 77 74 69 65 64 63 63 63 63 64 64 62 60 60 61 59 55 54 55 55 55 53 53 53 54 54 53 51 52 51 47 45 44 43
57 64 67 68 70 74 76 75 78 78 77 74 67 65 63 63 62 62 64 63 63 59 57 56 58 58 56 56 56 54 52 52 52 51 50 51 52 51 49 45 43 41 40 40
59 66 68 72 71 72 75 75 75 75 76 73 69 65 64 62 62 63 63 62 59 57 55 55 56 55 55 55 55 53 51 50 48 47 49 48 48 45 42 38 35 36 37 36
54 66 65 66 73 75 73 73 71 70 72 72 69 65 64 62 62 62 60 58 56 55 53 52 52 51 52 54 53 50 46 46 44 44 44 47 46 41 32 33 32 31 30 30
64 69 66 68 71 71 73 74 73 70 72 69 69 67 64 61 61 54 57 56 55 52 51 49 47 46 48 48 47 46 44 42 40 41 42 41 41 40 40 32 32 31 30 29
71 69 59 63 64 65 68 72 66 70 71 70 67 66 63 59 56 56 54 54 52 49 46 44 42 40 41 43 42 41 39 33 41 41 40 39 39 37 37 35 32 34 31 30
64 64 63 60 60 60 63 62 60 63 64 64 64 61 58 55 53 52 53 50 47 44 42 40 37 37 41 42 42 40 39 38 37 36 34 32 34 34 33 32 32 31 33 32
56 56 58 56 58 55 56 56 57 56 56 57 56 55 54 52 51 47 45 44 39 36 35 32 33 36 39 39 37 35 31 28 31 33 32 32 32 31 31 30 29 29 29 28
51 51 52 51 53 52 53 55 55 51 50 50 49 48 48 42 36 34 32 31 29 28 29 29 28 29 33 36 36 35 33 29 26 30 30 29 29 28 28 27 26 26 26 26
54 55 54 54 54 51 49 50 48 47 45 43 35 33 32 30 27 25 25 25 24 24 25 26 26 29 30 31 32 30 29 28 28 27 28 26 25 26 26 25 24 24 25 25
50 50 50 50 50 47 42 38 35 33 33 32 31 28 26 25 24 24 24 23 22 21 22 25 26 26 24 24 28 27 26 26 26 27 25 21 23 24 23 22 22 22 22 22
36 36 35 34 35 33 31 31 31 30 29 29 28 26 25 25 25 25 26 25 25 23 25 25 26 25 24 24 25 27 25 24 24 24 23 20 22 20 21 20 20 20 20 20
30 30 29 29 29 30 31 31 30 29 29 29 27 26 25 26 25 25 23 21 23 25 25 26 27 26 26 26 26 24 24 23 22 21 20 20 19 20 19 19 19 18 18 18
30 30 30 30 29 29 30 30 29 28 26 25 25 25 24 24 24 25 25 23 24 25 26 26 25 22 23 20 25 24 23 22 20 20 19 19 18 17 17 17 16 16 16 16
30 29 29 28 28 28 29 29 29 29 28 28 27 27 26 27 26 24 22 25 26 26 28 24 20 19 17 22 22 21 20 19 19 19 18 17 17 16 15 15 15 14 14 14
29 29 29 29 29 28 26 27 27 27 26 26 26 27 27 26 25 27 27 24 24 24 23 21 19 16 16 21 20 19 18 19 18 18 18 16 15 15 15 14 13 14 13 12
27 28 29 28 28 27 28 28 28 27 27 27 27 27 27 27 26 25 24 22 22 23 22 17 16 16 19 19 19 17 17 17 17 16 15 14 14 13 14 13 12 12 10 10
26 26 26 26 27 28 28 28 26 27 28 26 26 26 25 26 25 24 23 22 22 21 21 20 19 18 19 18 18 17 16 16 16 15 14 13 13 13 13 12 11 10 9 9
25 26 27 25 26 26 26 25 24 22 24 25 23 24 24 23 23 22 22 21 20 20 20 19 19 18 17 15 15 16 16 15 14 13 12 11 12 11 11 10 9 8 7 6

GFSNGP_sfc_temp_048.txt.gz
Temp
60 64 65 63 62 63 61 62 54 58 60 67 71 71 71 76 77 77 77 78 78 78 77 76 74 74 74 70 69 69 68 64 59 59 59 57 56 55 53 53 52 50 48 48
52 61 63 59 62 65 64 65 64 65 63 74 77 76 75 77 77 75 76 77 77 78 78 74 74 72 70 68 67 68 64 63 62 61 60 58 56 55 54 52 50 49 48 45
44 57 57 48 59 63 65 68 66 58 66 74 73 74 75 76 77 76 75 75 74 75 74 72 71 69 67 66 67 65 63 63 61 59 56 54 54 53 51 48 48 45 45 45
40 43 37 58 69 69 64 66 69 70 72 74 75 77 78 78 75 74 73 72 72 72 70 68 68 67 66 66 63 62 60 59 58 56 54 54 53 51 48 48 46 46 46 48
40 41 51 59 64 63 60 60 70 69 72 75 77 74 72 75 75 72 71 70 69 70 69 68 66 66 65 63 62 60 58 57 57 56 54 53 51 49 50 50 49 47 46 45
43 38 36 54 66 71 70 51 71 72 70 72 74 57 65 71 72 70 70 69 68 68 67 65 65 65 62 60 59 57 57 57 58 57 54 52 50 49 47 47 47 48 48 47
42 40 48 64 68 71 50 52 70 73 72 72 66 68 69 70 69 70 69 67 67 66 64 64 65 63 60 59 57 58 58 57 55 54 51 51 50 49 49 48 47 43 43 43
43 40 38 65 65 57 63 67 71 72 73 70 71 66 67 68 66 66 65 65 65 63 62 63 64 61 59 56 57 56 54 51 51 52 54 53 49 48 48 46 42 39 38 37
50 50 61 64 63 68 70 70 70 70 74 73 66 65 66 64 64 64 65 63 64 62 60 61 62 61 56 54 54 52 52 52 51 52 52 51 48 45 45 43 38 34 33 33
49 55 59 64 65 68 70 67 73 75 75 73 65 65 64 64 63 63 64 63 63 60 58 57 59 58 55 54 54 53 50 49 49 47 47 47 48 46 41 35 33 32 32 31
55 59 63 66 62 65 68 71 72 72 72 69 68 66 65 63 63 63 63 63 61 57 56 55 56 54 55 54 54 51 49 48 45 43 44 43 38 38 33 32 31 30 29 29
50 62 59 61 64 69 67 68 71 70 68 70 70 66 65 63 63 63 62 60 58 56 55 54 54 52 53 53 52 48 45 42 38 38 39 42 38 34 34 32 32 31 30 28
62 66 62 64 65 69 65 66 71 70 69 68 69 67 65 62 62 56 61 58 56 54 52 51 49 48 50 48 47 43 38 39 36 36 36 35 34 34 27 30 32 31 31 30
67 65 62 66 61 62 62 64 66 70 68 68 68 67 63 61 58 59 56 56 54 51 48 45 43 40 42 41 39 36 36 35 37 35 35 34 33 32 32 29 27 27 30 30
57 60 61 61 61 62 61 61 60 61 64 63 64 60 59 57 55 54 54 51 48 45 42 41 39 39 41 39 39 36 35 34 32 30 28 29 30 30 30 29 29 28 29 28
56 57 57 57 58 58 55 55 54 54 54 55 56 56 56 54 52 47 45 42 38 36 34 31 33 35 36 34 31 27 27 27 30 30 29 29 29 28 28 27 26 26 25 25
49 48 50 50 53 54 54 54 55 52 50 47 44 43 40 32 30 29 29 30 28 27 27 26 26 31 32 32 29 28 26 25 26 28 27 27 27 26 26 25 24 23 23 20
50 51 51 51 52 51 48 44 41 38 35 34 31 30 28 26 24 24 24 25 24 23 24 25 25 24 24 25 25 25 25 26 27 25 27 24 23 24 23 23 22 21 21 21
39 38 38 39 39 36 34 32 32 32 30 29 27 24 24 24 23 23 23 22 21 20 21 23 23 22 23 24 25 25 24 25 25 25 23 21 21 23 21 21 20 19 18 19
32 32 32 31 31 30 29 29 29 28 28 27 25 24 22 23 24 24 23 21 22 22 23 23 22 22 22 23 25 24 23 22 23 22 21 19 19 19 19 19 19 18 17 17
29 29 28 28 27 28 29 28 27 26 27 26 25 23 23 23 24 23 21 19 22 23 23 23 23 23 24 24 25 23 22 21 20 20 19 19 18 18 18 17 17 16 15 15
28 28 27 27 27 27 27 27 26 26 25 25 25 25 24 23 23 22 22 21 22 23 23 22 21 20 21 20 23 21 21 21 20 19 18 18 17 15 15 15 14 14 13 11
28 28 27 26 26 25 26 26 26 26 25 25 25 25 24 25 25 22 20 24 25 24 22 19 18 18 18 20 21 20 19 18 18 17 17 16 15 14 13 13 12 11 10 11
28 28 27 27 27 26 24 25 26 25 25 25 24 25 26 23 23 24 23 23 22 21 19 19 17 17 14 19 19 18 17 17 16 16 16 14 14 14 13 11 10 10 10 8
25 25 26 26 26 26 27 27 27 26 25 25 24 25 24 25 23 22 22 21 21 21 18 16 16 15 18 18 17 16 16 15 14 12 12 11 12 11 11 11 9 9 7 4
24 23 23 24 24 24 25 25 22 24 25 23 23 23 23 24 23 23 21 21 20 20 19 19 17 16 16 15 14 14 14 14 14 13 11 11 10 9 9 9 8 8 7 6
23 24 24 23 24 23 22 22 21 20 21 22 21 22 22 22 21 21 20 20 19 18 18 17 17 16 15 13 13 13 13 13 12 11 10 9 9 8 8 7 6 5 4 3

GFSNGP_sfc_temp_051.txt.gz
Temp
53 57 59 58 57 58 55 53 44 49 53 58 62 60 63 66 68 67 67 68 67 65 65 65 65 63 63 62 63 63 61 58 56 55 55 55 53 52 52 51 51 50 49 47
48 55 56 55 59 57 56 57 56 56 54 64 66 66 64 68 68 67 67 69 70 69 66 66 65 62 62 60 59 60 57 56 57 57 56 54 53 51 51 49 48 47 46 45
38 51 51 41 49 57 57 60 58 49 56 64 65 65 66 64 67 67 67 67 67 67 66 64 63 62 59 59 59 58 57 58 57 55 53 53 53 51 48 44 42 41 41 42
35 41 33 51 62 62 59 61 61 60 59 63 66 66 66 66 65 65 65 65 64 63 60 61 61 61 59 59 57 56 54 54 54 52 50 50 49 47 43 42 41 41 41 42
36 38 44 52 58 57 55 54 61 59 61 63 65 64 58 65 65 62 62 60 59 59 60 58 59 59 58 57 55 54 52 52 51 50 49 47 45 44 43 43 42 41 42 41
33 33 32 45 58 64 62 45 61 62 60 61 60 46 53 61 62 60 60 59 58 58 58 58 56 58 56 54 53 52 52 52 52 51 49 46 45 44 43 45 45 43 43 42
29 29 38 54 62 64 44 45 62 63 62 60 56 55 60 60 59 60 60 59 58 57 56 55 56 56 53 52 51 53 53 51 49 48 46 46 46 44 43 42 41 38 37 37
35 32 31 53 57 51 53 61 63 63 62 61 60 58 59 59 60 59 57 57 57 55 53 54 55 55 51 49 50 51 49 48 48 48 49 47 43 42 42 40 36 34 33 31
41 38 52 53 53 58 62 61 59 60 63 62 58 56 57 56 56 57 56 54 55 53 52 53 53 54 49 48 49 48 47 47 46 46 46 45 42 39 39 36 33 31 31 30
43 50 54 58 58 60 59 59 62 64 61 62 60 59 58 56 55 55 53 53 53 52 50 49 51 51 49 49 49 47 45 44 43 42 41 40 41 38 34 29 29 30 29 28
46 52 56 57 59 59 61 61 61 64 62 61 58 56 58 56 55 54 54 53 53 51 49 48 49 49 49 48 47 46 44 42 40 38 35 33 33 32 29 30 31 28 27 28
38 55 53 56 60 60 60 61 64 61 62 64 60 57 57 56 56 55 53 51 51 50 49 47 47 46 46 46 45 42 39 37 33 33 34 34 31 30 33 32 33 32 31 28
53 57 57 57 60 59 59 60 61 59 62 61 61 59 58 55 55 49 52 51 50 47 45 43 37 36 38 41 39 37 34 35 33 33 33 32 31 28 26 29 32 31 31 31
54 54 52 51 51 54 55 56 57 59 59 60 59 57 55 53 52 51 50 48 45 41 38 36 35 34 36 37 36 35 34 32 32 31 30 30 29 29 28 26 25 26 30 29
49 51 51 52 53 52 53 53 52 51 51 51 54 51 52 49 48 45 44 42 39 37 36 35 34 32 32 32 32 31 31 29 27 27 27 27 28 28 28 27 26 26 26 26
48 49 49 48 49 50 50 49 47 43 42 40 40 37 39 40 38 38 38 36 31 27 28 27 29 30 30 29 28 28 27 27 27 27 26 26 26 25 25 25 25 24 23 22
39 36 39 40 44 39 38 39 37 35 33 31 30 31 29 28 27 26 26 26 25 24 25 25 24 27 27 28 26 25 24 25 25 25 24 24 24 24 24 23 22 22 20 17
40 39 38 37 36 34 33 32 31 29 27 28 27 26 24 23 22 22 23 24 22 21 22 23 24 24 24 25 25 24 24 24 24 23 24 21 21 22 21 21 20 19 19 18
33 33 33 33 32 30 28 27 27 26 25 25 24 22 23 23 23 22 22 20 19 18 20 22 23 22 23 24 24 23 22 22 22 22 21 20 19 20 19 17 16 15 16 17
29 29 29 28 29 28 26 26 26 25 25 25 24 22 21 21 21 20 20 19 20 20 22 22 21 21 21 22 22 22 21 20 20 20 18 17 16 15 15 16 16 14 12 12
26 26 26 25 24 25 25 25 25 24 24 24 23 22 21 21 21 21 19 18 21 23 23 22 21 20 20 21 22 20 19 18 18 18 16 15 14 15 14 11 11 10 7 7
25 25 24 25 25 24 25 26 26 25 24 24 23 22 21 20 20 20 21 20 22 21 20 19 18 18 18 20 20 19 18 17 17 16 14 12 9 7 5 5 4 3 2 -1
25 25 25 24 23 23 24 24 24 24 23 23 22 22 22 22 22 20 19 22 21 19 18 17 16 16 16 18 17 16 14 13 12 11 11 11 10 6 2 2 4 0 -3 1
26 26 26 25 26 25 23 24 24 23 23 23 22 23 22 20 19 21 20 19 18 17 16 15 15 15 13 13 12 10 8 6 6 5 5 3 -1 0 4 0 -1 1 0 -3
22 22 22 23 22 21 23 24 24 23 22 22 22 22 22 22 19 19 19 18 18 16 13 13 13 12 12 8 7 6 5 7 7 4 6 3 -1 -5 -5 -1 2 1 -1 -3
21 20 20 20 20 20 21 21 19 21 20 19 19 19 19 20 20 19 17 16 15 15 14 10 11 10 6 4 -0 -1 -1 1 6 4 -2 -4 -6 -6 -2 0 -1 -2 -5 -10
19 20 19 19 19 18 17 17 16 15 16 16 15 16 16 15 14 14 12 13 12 9 6 6 9 8 6 2 3 -1 -3 -4 -3 1 -3 -8 -11 -11 -5 -5 -9 -12 -14 -14

GFSNGP_sfc_temp_054.txt.gz
Temp
52 55 55 54 53 54 51 49 44 48 49 55 57 59 61 63 63 64 64 63 62 63 61 61 60 64 67 65 64 64 63 62 58 60 60 59 60 56 54 54 53 51 49 48
44 53 54 50 54 55 54 54 53 52 50 60 64 62 60 63 64 63 63 64 64 64 63 62 61 62 62 62 62 63 61 60 58 56 55 55 53 52 51 50 50 48 47 46
39 49 50 40 48 51 54 54 54 46 54 61 60 61 61 61 63 63 63 63 63 65 63 62 60 60 57 58 58 59 58 57 56 55 53 52 52 50 48 47 47 44 44 45
33 38 32 49 60 57 54 58 58 58 59 60 61 62 64 65 64 62 62 63 62 60 59 59 58 57 56 56 56 56 56 55 54 53 52 51 50 47 45 46 44 43 43 44
30 35 42 49 53 53 51 50 59 58 59 61 63 59 56 63 63 63 61 59 58 57 56 56 56 56 55 54 53 52 51 52 52 51 49 49 47 46 43 41 40 40 40 39
34 30 31 44 55 59 58 40 58 60 59 59 58 45 53 62 61 60 59 57 55 54 54 54 53 55 53 51 51 49 50 49 49 49 48 45 44 42 40 41 41 41 40 40
32 29 35 48 54 61 43 44 57 60 60 61 54 55 60 60 58 57 56 56 54 56 55 53 54 54 51 50 49 50 50 49 47 46 44 44 43 43 43 42 41 36 34 34
33 31 29 51 55 48 49 52 57 59 58 57 58 58 56 57 56 55 55 54 54 52 51 51 53 53 49 47 49 49 48 46 45 45 46 45 43 40 40 38 35 32 29 27
37 36 50 51 53 53 56 54 55 54 58 59 55 56 55 55 55 55 55 52 53 51 49 49 50 51 47 45 47 47 46 45 44 44 44 42 40 37 37 36 33 30 29 26
41 48 51 55 54 56 56 55 57 58 59 59 57 55 55 53 52 53 53 52 50 51 49 46 48 49 47 47 48 46 44 42 42 40 37 37 37 36 34 30 31 31 29 26
44 49 53 55 57 58 57 57 58 60 59 57 57 56 55 53 52 54 53 51 53 51 48 45 47 46 47 47 47 44 42 40 35 34 34 32 30 30 30 30 31 30 29 29
38 51 51 52 57 58 58 59 61 58 57 57 57 57 56 53 54 54 52 50 50 47 46 45 45 45 44 45 44 40 37 34 31 31 31 31 30 29 33 33 32 32 31 28
44 48 52 53 54 56 57 55 56 56 58 56 57 56 54 51 50 47 49 48 47 43 39 38 37 37 40 40 40 37 34 33 32 31 30 30 30 29 26 29 31 31 30 29
47 48 47 48 47 50 52 53 53 52 51 51 52 56 53 50 49 47 44 41 39 37 36 34 33 33 36 37 35 33 32 31 31 30 30 29 29 27 27 26 24 25 28 28
43 45 45 47 49 48 49 49 43 39 38 37 39 44 45 41 37 36 37 36 35 32 31 31 29 29 33 33 32 30 29 28 28 27 27 27 27 27 27 26 26 25 25 25
43 40 41 41 39 39 40 39 36 33 32 31 31 29 29 29 27 26 28 29 28 25 27 26 27 28 29 30 29 28 27 27 27 26 26 25 25 25 25 24 24 23 23 21
37 35 36 36 35 33 33 32 31 30 29 28 28 28 27 26 25 24 24 25 25 24 25 25 24 26 26 26 26 25 25 25 24 24 24 24 23 23 23 22 21 21 19 18
36 35 35 34 32 31 29 28 28 27 26 26 25 24 24 23 22 22 22 22 21 20 22 23 24 24 24 25 25 24 24 24 24 23 22 20 20 22 20 20 20 18 18 18
31 29 29 30 29 27 27 26 25 25 25 24 24 22 21 21 21 20 21 20 18 17 19 22 24 23 23 24 23 23 22 22 22 21 20 19 19 19 18 18 17 16 16 16
27 27 27 26 26 25 24 24 24 23 24 23 22 20 19 19 20 19 20 18 19 20 21 21 21 21 21 22 22 21 20 19 19 18 17 17 17 16 16 16 15 14 13 12
24 25 24 24 23 24 24 24 23 22 22 22 21 19 19 20 20 20 18 17 18 19 19 19 20 20 21 21 20 19 18 17 17 16 15 14 14 13 12 11 11 9 7 5
23 23 23 23 22 22 23 24 24 23 22 21 21 20 20 19 19 20 19 17 18 18 18 17 17 18 19 19 18 16 16 15 15 14 12 11 10 8 6 4 2 1 -1 -4
24 24 24 23 22 22 23 22 22 22 21 20 20 20 19 19 20 17 15 18 18 17 16 15 16 16 16 15 14 12 11 10 9 8 6 5 3 2 2 4 4 2 -5 -3
22 22 22 24 24 23 20 21 22 21 20 20 20 20 20 17 17 18 17 16 15 15 14 14 13 13 12 11 9 7 6 5 4 0 -1 -1 -6 -5 -6 -10 -8 -7 -3 -4
20 20 20 20 20 19 21 22 21 20 20 20 19 20 19 19 16 16 16 16 16 13 11 10 9 6 4 3 2 2 1 1 -1 -4 -6 -10 -13 -14 -15 -12 -8 -7 -9 -11
19 18 18 18 17 18 18 18 17 17 17 14 14 14 14 16 15 15 13 12 11 10 10 9 7 5 3 3 0 -4 -8 -4 -3 -6 -13 -14 -16 -14 -14 -12 -14 -15 -16 -18
16 17 16 15 15 14 13 13 11 11 11 9 8 10 10 10 9 9 6 5 4 2 0 -1 -2 -2 -3 -9 -9 -10 -9 -9 -8 -8 -14 -17 -16 -15 -15 -17 -19 -21 -21 -18

GFSNGP_sfc_temp_057.txt.gz
Temp
47 51 53 52 50 50 47 48 43 47 45 54 56 57 60 62 60 61 60 59 59 60 62 63 63 65 66 65 64 64 63 63 63 62 60 61 60 61 60 57 56 54 53 51
39 49 50 48 52 53 52 50 48 49 47 56 60 60 57 60 61 60 60 61 62 62 62 61 62 64 64 64 64 64 63 63 62 60 59 59 60 57 55 53 53 51 49 48
32 41 45 38 46 51 51 52 51 44 50 58 57 57 58 60 59 60 62 62 61 62 63 64 64 62 60 62 60 60 62 60 58 58 58 57 54 52 51 51 49 47 47 46
32 35 28 45 55 57 52 54 55 54 55 58 59 59 60 59 59 61 61 61 60 60 61 62 57 56 54 55 57 58 58 57 57 56 54 52 51 49 47 47 46 46 45 46
32 31 36 47 50 49 49 51 56 55 58 60 59 55 56 63 59 61 61 62 60 58 57 56 55 53 53 53 56 56 55 54 54 53 51 50 48 47 46 45 45 44 44 43
32 28 28 39 51 58 56 43 55 58 57 56 56 46 52 60 59 59 58 57 56 54 53 53 51 53 52 50 52 52 52 52 52 51 50 48 46 45 44 45 43 42 40 41
33 31 33 45 51 54 38 43 53 58 59 55 53 60 62 58 58 56 55 55 53 53 54 52 52 52 49 48 48 51 50 50 49 49 48 47 45 44 44 43 38 34 31 32
33 30 28 48 47 40 47 52 53 54 54 52 54 57 57 60 56 55 54 53 53 51 50 50 51 52 48 47 46 47 46 45 46 46 46 45 43 42 41 36 33 31 29 29
34 35 46 49 48 51 50 51 54 54 55 53 52 53 54 54 53 55 54 51 51 51 48 48 49 51 47 44 46 45 44 43 44 44 43 42 39 37 35 34 31 31 30 27
37 44 48 53 53 55 56 55 56 56 55 56 53 53 53 52 52 52 49 49 48 49 48 46 47 47 46 46 46 44 42 42 42 37 35 36 36 36 34 34 32 31 29 25
39 45 50 53 55 57 57 57 56 58 58 57 55 54 54 53 52 51 50 49 49 48 46 44 45 45 46 46 45 42 40 37 35 33 32 31 31 33 32 32 33 30 28 27
32 43 41 47 51 51 53 54 56 55 56 54 55 55 54 53 52 50 49 48 46 44 44 43 44 43 43 44 43 39 35 34 33 31 32 32 30 28 32 33 32 32 31 29
40 43 44 48 49 48 49 49 49 47 45 46 47 49 54 49 47 44 46 44 39 38 37 37 36 35 37 38 38 36 32 32 31 31 31 30 30 28 25 29 31 31 30 29
44 42 43 45 41 43 44 46 44 42 40 38 39 44 44 45 41 38 37 36 35 33 32 31 31 31 33 34 33 32 32 32 31 30 30 29 29 28 28 26 24 24 28 27
40 42 41 42 40 38 40 39 35 33 33 32 31 31 32 31 30 30 31 31 30 29 29 29 28 28 32 32 31 30 30 28 28 28 28 28 28 27 27 26 26 24 24 24
37 41 41 37 35 34 33 32 30 28 28 27 27 27 27 27 27 27 27 29 27 26 27 27 27 29 31 31 29 28 27 27 27 26 26 26 26 25 25 24 24 24 23 21
34 35 35 35 33 30 29 30 29 28 27 27 26 27 26 25 24 24 23 24 24 23 24 24 24 26 26 26 26 25 25 24 24 24 23 23 23 22 22 21 21 20 18 19
33 32 32 31 30 29 27 27 27 26 25 25 24 22 21 20 19 20 20 21 21 20 22 22 23 24 24 24 24 24 23 23 22 21 21 20 21 21 20 20 19 18 18 18
29 27 28 27 27 26 25 24 24 23 23 22 21 20 20 20 19 19 20 18 18 17 18 22 23 22 22 22 22 22 21 20 20 19 19 18 18 17 17 17 16 16 16 15
26 26 26 25 26 25 23 23 23 22 22 21 20 19 18 18 18 17 17 15 17 18 20 20 21 20 20 20 21 20 19 18 18 17 16 16 15 14 14 14 14 12 11 11
22 23 22 22 22 23 22 22 21 19 20 20 19 18 18 18 18 18 16 14 16 18 19 19 20 19 19 19 18 17 16 15 14 13 12 12 11 10 8 7 7 5 2 1
22 21 21 21 21 20 22 22 22 21 20 20 20 20 18 16 16 15 16 15 17 17 17 17 17 16 16 16 15 14 13 12 11 10 8 7 4 1 -1 -1 -3 -3 -6 -7
22 22 22 21 20 20 21 20 20 20 18 18 17 17 16 17 17 14 11 16 17 16 15 13 13 12 11 10 9 8 6 5 4 3 1 -2 -6 -9 -9 -9 -10 -9 -8 -3
20 21 21 22 21 20 18 19 20 19 18 18 17 18 17 14 14 16 15 13 11 11 9 8 7 6 5 5 4 3 2 -0 -3 -6 -5 -9 -15 -15 -14 -13 -11 -12 -11 -12
18 18 18 18 18 18 19 19 18 17 16 16 17 17 16 16 13 13 12 11 11 9 6 4 3 1 -1 -3 -4 -6 -7 -9 -12 -13 -13 -14 -16 -17 -17 -15 -17 -18 -18 -20
17 15 15 15 15 16 16 15 12 13 13 10 10 9 9 11 10 9 7 5 5 2 -1 -6 -7 -5 -6 -6 -12 -12 -9 -6 -10 -12 -16 -18 -18 -18 -19 -19 -21 -21 -23 -24
14 14 14 13 12 12 11 11 9 7 4 4 5 7 7 5 3 3 -1 -3 -4 -5 -9 -12 -11 -8 -10 -13 -13 -14 -14 -14 -15 -16 -22 -22 -21 -21 -22 -23 -25 -26 -26 -26

GFSNGP_sfc_temp_060.txt.gz
Temp
43 46 47 48 48 47 44 43 39 43 43 52 54 55 57 59 60 59 61 60 56 57 58 59 59 60 61 61 60 60 59 59 59 59 60 60 59 59 59 59 60 61 59 55
38 44 44 41 47 48 47 46 45 46 45 55 57 56 56 57 58 58 59 61 60 58 58 59 60 61 61 61 60 60 59 59 60 60 60 60 59 58 58 59 59 59 55 54
31 39 39 33 41 46 49 51 48 44 49 56 54 55 56 58 58 59 60 61 59 60 60 61 60 61 61 61 60 60 59 60 60 60 59 59 59 58 58 58 55 53 51 50
30 35 26 42 51 50 47 50 51 50 52 56 56 59 58 58 57 57 57 61 60 61 59 59 59 57 57 56 57 58 59 59 59 59 58 58 57 55 53 52 52 49 49 48
28 29 35 42 47 45 42 44 52 50 53 56 58 54 54 59 58 59 58 57 58 58 60 60 56 54 55 54 54 55 55 55 55 57 57 53 52 48 47 48 47 45 45 44
32 26 25 37 47 51 49 39 50 51 52 52 54 43 50 63 60 59 58 55 56 55 55 55 53 54 54 54 53 54 54 54 54 53 51 50 48 47 46 46 43 42 41 42
32 31 32 43 47 50 35 38 45 47 50 50 47 50 54 55 58 56 57 56 53 53 52 53 52 53 52 52 54 51 51 50 50 50 49 47 45 44 43 41 38 35 34 34
31 28 25 46 45 42 45 46 48 50 49 51 52 53 52 53 54 54 57 55 52 52 50 49 50 52 47 47 47 49 48 47 46 46 46 44 43 41 39 37 34 32 31 30
33 33 43 44 47 49 48 48 49 51 53 53 51 51 51 53 52 51 52 52 50 50 47 48 49 50 46 42 44 45 46 44 43 43 43 42 40 38 36 35 33 31 30 28
36 40 43 46 48 50 50 49 54 57 56 54 52 51 50 50 50 49 48 48 48 48 46 44 46 46 44 44 45 44 43 41 40 38 37 37 37 37 35 33 32 31 30 27
36 40 43 45 46 46 45 50 53 58 56 54 52 53 50 49 48 48 47 47 47 46 43 43 44 44 45 44 44 41 39 38 35 35 34 32 31 32 33 34 35 32 31 29
31 39 39 41 44 43 42 44 45 44 48 45 42 43 46 49 48 48 45 45 43 41 40 39 40 39 41 42 41 37 34 33 32 31 31 32 31 29 32 32 32 32 31 29
40 41 40 41 42 41 39 42 41 40 38 37 39 38 42 39 38 38 38 37 35 34 34 34 33 33 35 37 37 35 32 32 31 31 31 30 29 28 25 28 30 30 29 29
43 41 39 40 37 38 38 39 39 36 34 32 33 34 33 31 31 30 29 31 32 31 30 30 30 30 32 34 33 32 31 30 30 29 29 28 27 26 27 25 23 25 28 28
37 39 41 41 39 36 36 35 32 29 29 28 29 28 28 26 26 27 30 30 30 29 28 29 29 29 32 32 32 31 30 29 29 28 28 28 28 27 27 25 24 24 24 24
35 37 40 38 34 33 32 31 28 27 28 27 26 26 25 26 25 25 25 26 24 23 25 24 25 27 29 29 28 27 26 26 26 26 26 25 25 25 25 24 24 23 21 20
31 32 31 32 30 28 28 28 28 27 26 26 25 25 25 24 23 22 22 23 22 22 22 22 22 24 25 25 25 24 23 23 23 23 22 22 22 21 21 21 20 18 17 19
31 29 29 29 27 26 26 26 25 25 23 23 22 21 19 19 18 18 19 20 20 19 20 21 22 22 22 23 23 22 21 21 21 20 20 19 19 19 18 18 18 17 17 16
27 26 26 26 26 25 24 23 22 22 21 20 19 17 17 17 17 17 18 17 17 17 18 20 22 20 20 21 21 20 19 19 19 19 18 17 16 16 15 14 14 13 13 13
24 25 24 23 23 22 21 21 21 21 21 20 19 17 16 16 16 16 16 14 16 17 19 19 19 18 18 19 19 18 17 16 16 15 14 13 12 11 12 12 11 9 7 6
21 21 21 20 20 21 20 20 19 18 19 18 16 14 14 15 16 16 14 13 15 17 17 17 17 16 17 17 17 15 14 12 11 10 8 7 5 5 4 2 0 -2 -3 -6
21 20 19 19 19 19 19 19 19 18 18 17 17 16 15 14 14 14 14 13 15 15 15 14 13 12 13 13 12 10 9 8 7 6 4 3 -0 -3 -5 -6 -10 -11 -13 -10
21 21 20 19 18 18 19 18 17 17 16 15 14 14 14 14 15 12 9 13 14 12 11 9 8 8 7 6 5 4 4 2 -0 -3 -6 -9 -13 -15 -15 -15 -16 -14 -14 -12
19 20 19 20 19 18 16 17 17 17 16 16 15 15 15 11 11 13 11 8 6 6 5 4 2 2 0 -1 -2 -4 -6 -9 -11 -15 -14 -16 -22 -21 -20 -20 -17 -20 -19 -19
17 17 18 17 17 16 16 16 15 14 14 13 13 14 13 13 8 8 7 5 6 3 -1 -3 -2 -4 -7 -9 -11 -12 -13 -16 -19 -19 -20 -21 -22 -21 -22 -22 -23 -23 -24 -25
16 15 14 15 14 14 14 13 10 10 11 8 7 6 6 7 7 6 3 2 2 -2 -6 -13 -16 -16 -16 -13 -16 -17 -16 -13 -17 -18 -21 -22 -22 -22 -23 -22 -25 -25 -26 -26
11 11 12 10 9 8 8 7 5 1 -2 -4 1 2 -0 -3 -4 -2 -8 -10 -13 -15 -19 -21 -19 -15 -16 -19 -17 -19 -18 -19 -20 -20 -26 -24 -24 -26 -26 -27 -28 -29 -28 -29

GFSNGP_sfc_temp_063.txt.gz
Temp
44 46 46 46 47 50 48 50 45 50 49 57 58 62 67 67 64 64 66 64 66 66 67 66 65 64 65 64 64 64 63 63 62 63 63 63 63 63 63 63 64 63 63 64
40 46 47 44 48 49 50 50 50 51 51 60 63 61 61 64 65 66 66 67 68 66 67 65 65 66 65 65 64 64 63 62 64 64 64 63 63 63 63 63 64 64 62 62
36 40 42 39 44 47 50 52 51 46 55 62 61 60 60 63 65 64 65 66 67 66 65 67 68 66 66 66 66 64 64 64 64 64 63 63 64 64 63 62 62 61 60 59
35 36 29 46 51 51 49 51 53 53 54 57 59 63 66 66 65 65 64 65 65 67 67 68 69 68 67 68 65 64 64 64 64 64 63 64 64 63 63 61 59 58 57 54
32 34 39 47 49 48 46 48 49 49 51 54 57 58 61 65 64 63 63 65 65 67 67 68 68 67 66 64 64 64 63 63 64 64 63 63 62 62 55 53 50 49 48 48
33 30 28 43 50 53 51 42 50 51 51 51 54 48 55 61 59 61 65 65 64 65 64 64 65 64 63 63 62 63 63 64 64 63 61 56 52 49 47 48 44 43 42 44
32 32 38 47 51 52 40 43 53 52 53 53 51 54 57 58 59 60 60 62 62 60 60 60 60 61 61 60 60 59 57 56 56 57 53 51 48 46 44 41 39 36 35 36
35 31 29 49 50 44 49 53 52 54 54 54 56 55 56 58 58 57 56 57 58 58 55 54 56 58 55 54 52 53 52 50 49 48 47 47 45 43 40 38 35 33 32 31
39 39 47 50 49 50 50 49 50 51 55 57 54 56 55 57 57 56 55 55 54 54 53 52 54 55 52 47 50 49 48 45 44 44 44 43 40 38 36 35 34 32 31 29
41 46 47 49 50 49 49 48 49 48 50 53 54 56 55 56 55 54 54 52 52 51 48 47 49 49 49 48 48 46 43 42 41 39 38 39 38 37 36 34 33 32 31 29
41 45 47 47 45 45 46 47 46 47 44 43 44 46 49 52 49 49 49 48 47 46 43 41 43 44 47 49 47 43 41 39 36 35 34 32 32 34 33 34 35 33 31 30
39 39 39 42 47 44 43 43 42 41 40 40 39 40 44 41 41 40 40 40 41 41 41 39 38 37 39 42 44 39 36 37 36 35 33 32 30 29 32 32 32 31 31 29
38 42 42 44 44 42 40 40 40 37 36 34 36 36 36 34 35 34 35 35 33 33 34 35 35 33 35 36 37 36 34 34 34 34 33 31 30 30 27 29 30 30 30 29
41 39 41 42 38 39 38 39 37 36 34 32 32 33 32 31 31 31 30 31 32 31 31 30 31 30 31 32 32 31 31 30 30 29 29 29 28 27 27 26 25 26 28 29
35 38 38 40 39 36 37 36 33 30 30 27 28 29 29 26 26 26 29 30 29 29 28 28 27 27 30 30 29 29 29 28 28 28 28 28 28 27 27 27 26 25 26 26
34 36 37 35 33 32 31 29 29 28 28 26 26 26 25 25 24 24 25 26 24 22 24 24 24 26 27 27 26 25 25 25 26 26 26 26 27 26 27 26 25 24 23 23
29 30 30 30 29 27 26 27 26 25 24 24 24 24 23 22 22 22 21 22 21 21 22 22 21 24 24 24 24 24 23 23 24 24 24 24 24 24 24 24 22 22 21 21
30 29 28 28 27 26 25 24 24 23 22 22 21 20 19 18 17 18 19 20 19 18 19 21 22 23 23 24 24 24 24 23 23 22 22 21 21 21 21 20 20 19 18 17
27 26 26 26 25 24 23 22 21 21 20 19 18 16 17 16 17 17 18 18 17 17 17 20 21 21 21 22 23 23 22 21 20 19 19 18 18 19 18 18 17 17 17 16
24 24 24 22 23 22 20 20 20 19 19 18 17 16 15 16 17 16 16 14 15 16 18 18 19 19 19 19 20 20 19 19 18 16 16 15 15 15 14 13 14 14 14 13
21 21 20 19 19 20 20 19 18 17 17 17 15 14 14 14 15 16 14 12 13 15 16 16 17 17 17 18 18 16 15 14 13 12 12 12 11 11 10 10 10 10 10 10
20 19 19 18 17 17 18 19 18 17 17 16 16 16 15 14 13 12 12 12 14 14 14 14 13 10 12 13 14 13 12 12 11 10 9 9 8 8 6 7 6 6 7 7
20 20 19 18 17 17 18 17 17 16 15 14 13 13 13 13 15 12 9 13 13 12 12 10 8 8 9 10 10 9 8 7 7 6 6 6 6 6 5 4 4 5 4 4
20 19 19 19 19 17 15 16 17 17 16 15 13 14 15 12 11 13 12 9 7 6 6 6 4 3 5 7 6 6 6 5 5 5 4 1 3 3 3 2 2 3 2 1
18 18 18 18 17 17 17 17 16 15 14 13 13 13 13 13 10 9 9 8 7 6 6 1 -0 1 5 5 4 3 3 4 3 4 3 3 2 1 1 1 -1 -1 -1 -2
16 15 15 15 15 15 15 15 13 13 12 10 8 8 8 9 9 8 6 5 4 3 3 2 1 3 3 3 3 2 4 4 3 2 0 0 -0 -0 -1 -2 -3 -4 -5 -5
13 14 14 12 11 11 11 11 10 7 7 8 6 7 6 6 5 5 1 4 3 1 1 0 1 1 2 3 2 2 2 1 -4 0 -1 -1 -1 -2 -5 -5 -6 -6 -7 -8

GFSNGP_sfc_temp_069.txt.gz
Temp
52 52 56 55 56 59 57 57 51 56 58 65 68 69 71 74 76 78 80 81 82 83 83 83 81 80 80 79 77 76 75 75 74 74 74 73 73 73 72 72 73 73 73 72
44 53 53 52 56 56 57 58 58 59 57 68 71 73 70 71 74 75 78 80 81 82 84 85 84 83 82 80 79 77 76 75 76 75 75 73 73 72 72 71 72 72 71 71
35 44 47 41 51 53 54 59 59 53 59 65 66 66 68 69 71 68 71 75 77 79 82 83 85 86 83 82 81 79 76 76 76 76 75 73 73 72 71 70 70 70 70 70
33 39 29 48 61 60 55 57 61 61 62 65 66 69 70 70 67 66 68 70 74 77 79 81 82 83 83 86 83 80 78 77 77 76 75 75 73 72 71 71 69 68 69 70
32 34 39 50 53 53 50 51 61 60 62 65 68 69 68 71 69 69 70 70 70 73 74 76 78 78 79 81 84 82 78 77 78 78 76 75 73 71 72 71 70 69 69 68
39 30 29 46 57 60 61 43 61 61 61 62 65 57 64 68 69 69 72 71 68 70 70 67 67 70 71 74 76 77 81 80 80 79 77 75 74 72 71 71 69 67 55 49
37 37 45 57 59 61 42 41 60 62 61 60 58 61 65 69 70 72 71 71 70 68 64 62 62 64 67 69 65 68 73 76 77 78 77 76 75 74 72 63 49 42 39 38
40 37 34 59 58 48 53 59 59 60 59 57 59 61 63 65 68 70 69 69 68 66 62 58 57 60 59 54 55 58 61 59 56 56 58 60 59 53 50 46 40 37 36 34
46 45 57 60 55 58 59 57 56 56 58 57 57 58 59 60 64 64 66 65 64 64 59 54 50 47 46 46 48 48 48 47 45 44 44 44 43 42 40 40 38 36 33 31
48 54 53 56 58 57 58 56 57 57 56 55 53 55 56 59 58 58 59 57 57 57 53 47 44 43 41 44 44 42 39 38 38 37 37 37 38 38 36 35 34 33 31 29
52 53 56 57 55 53 55 56 55 55 54 52 52 52 52 53 52 52 52 50 50 47 45 42 39 38 38 40 42 39 36 35 35 34 33 31 30 32 32 33 34 32 30 30
44 50 51 52 52 52 51 50 51 51 50 51 50 48 49 48 45 43 42 43 42 40 41 40 40 36 36 36 38 37 34 33 32 32 32 31 30 29 32 32 32 31 31 30
48 51 51 50 48 49 47 47 47 47 45 43 44 44 44 42 38 37 37 35 34 34 34 34 35 34 34 35 34 32 32 32 31 30 29 29 29 28 26 29 31 31 31 31
49 48 45 45 40 44 43 44 45 45 42 38 36 37 34 32 31 30 29 29 30 30 30 31 31 28 30 31 32 31 30 30 30 30 29 28 27 26 26 25 25 26 29 29
44 46 42 42 41 39 40 41 38 34 34 32 32 30 29 27 24 23 25 27 27 26 25 28 29 28 31 31 30 29 30 31 29 30 29 28 28 27 27 26 25 25 26 26
42 45 43 39 37 37 37 36 35 35 34 32 30 28 27 27 25 23 24 25 24 23 24 24 26 29 31 32 31 31 30 30 30 29 29 29 29 27 26 25 24 24 25 26
34 34 34 35 35 34 33 34 34 32 30 29 27 28 28 27 26 25 24 24 23 23 24 25 25 27 29 30 31 30 30 30 28 29 29 28 27 26 25 24 22 22 22 23
36 34 34 33 32 32 30 29 29 28 26 25 24 23 22 21 21 22 22 23 22 21 22 23 25 26 27 29 30 30 30 29 28 27 27 27 26 26 25 24 23 22 22 23
32 31 31 30 31 29 28 26 25 24 23 23 21 20 20 19 19 18 19 18 18 17 18 23 25 25 25 27 29 29 27 26 26 26 25 25 24 24 23 23 22 21 21 21
28 28 28 26 26 25 23 23 23 22 23 22 21 20 19 19 21 20 18 15 17 19 21 21 25 24 25 26 27 28 26 26 25 23 23 23 22 21 21 21 21 20 20 19
23 23 23 22 22 22 22 22 21 19 20 20 18 16 16 16 16 19 19 16 18 21 21 20 20 24 24 26 26 24 23 22 22 21 21 21 20 20 19 20 19 19 18 18
24 23 22 22 21 20 21 21 20 20 19 19 20 20 19 19 18 16 16 17 19 19 19 19 19 18 21 21 22 21 21 20 20 20 19 19 18 18 17 17 16 17 16 16
24 23 23 21 21 20 20 20 19 19 18 18 18 18 18 19 20 18 14 17 18 16 18 15 15 16 17 19 19 19 18 17 17 16 16 16 16 15 15 14 15 14 14 13
24 23 23 23 23 23 20 21 22 21 19 19 18 18 22 20 19 21 19 16 15 14 12 13 14 15 16 17 17 16 16 16 16 16 16 14 15 14 14 12 12 13 12 11
24 24 25 24 24 23 23 23 23 23 22 21 21 20 20 20 17 17 17 16 14 17 16 12 13 14 16 16 15 15 15 14 12 15 14 14 13 12 12 12 11 9 9 10
25 25 25 25 26 27 27 27 25 25 24 20 20 19 19 20 20 20 17 15 15 15 16 15 13 16 16 15 14 13 14 14 13 13 12 12 12 12 10 9 9 9 8 8
25 26 26 25 24 23 24 24 24 21 21 20 18 20 19 19 17 18 16 17 16 16 16 15 15 13 12 13 14 14 14 14 8 10 11 11 10 10 9 7 7 7 7 6

GFSNGP_sfc_temp_072.txt.gz
Temp
40 43 46 45 48 50 49 52 47 52 53 59 59 64 70 71 74 74 75 76 78 78 78 79 78 77 77 75 73 72 72 72 70 69 69 68 67 67 67 67 68 68 67 67
38 46 47 39 51 52 50 53 56 58 54 65 68 70 67 66 66 66 68 71 74 76 78 79 79 78 78 77 75 74 72 71 72 71 70 68 68 68 67 67 67 67 67 67
30 39 42 40 46 49 52 56 54 48 52 63 63 65 63 63 64 63 65 67 69 71 73 74 76 76 75 77 77 75 72 72 72 72 70 69 69 68 67 66 66 65 66 66
31 35 29 46 52 54 52 52 54 55 58 62 65 66 66 66 64 64 66 66 66 68 69 70 70 69 70 74 75 76 75 74 73 72 71 71 69 68 67 66 65 65 64 65
30 31 37 46 47 47 50 45 52 54 59 63 66 64 61 67 67 66 67 67 66 67 65 64 63 64 67 70 73 74 73 74 75 73 72 70 69 68 67 66 65 64 65 63
34 29 27 43 50 51 48 34 52 55 57 57 61 51 54 64 67 68 69 67 66 64 61 57 56 60 61 57 57 57 59 62 64 73 72 71 69 68 67 67 65 65 60 47
34 32 42 54 53 53 34 38 53 56 56 54 51 55 59 63 65 68 68 65 65 62 55 51 51 54 50 50 48 51 54 54 52 54 55 60 67 66 65 63 47 41 37 36
37 34 32 56 54 45 49 53 56 56 54 53 55 57 58 60 60 62 60 59 61 59 52 49 47 46 45 43 46 46 45 43 42 42 44 47 50 47 46 43 39 36 34 32
43 43 52 55 53 56 56 53 53 53 54 54 53 54 55 56 56 56 55 54 53 52 49 45 43 41 39 40 44 42 40 38 37 37 36 37 38 39 39 39 36 34 32 30
47 48 50 52 55 56 55 53 54 54 53 52 50 51 52 51 50 49 49 47 47 46 43 41 40 40 39 39 43 40 38 36 35 33 32 32 33 34 33 34 33 32 31 29
43 44 44 49 51 53 52 53 52 53 51 49 49 48 49 46 43 43 41 41 41 39 38 37 38 36 38 38 39 38 36 35 33 32 31 30 30 30 30 31 33 30 29 29
36 46 43 45 48 51 48 48 49 47 46 46 44 44 46 40 39 37 35 35 34 34 33 33 32 32 33 36 37 36 33 32 31 30 30 30 29 29 31 32 32 32 31 31
42 49 47 48 46 47 45 45 47 45 42 40 40 39 39 34 33 32 31 30 29 29 31 30 30 30 31 32 33 32 31 31 30 30 29 28 28 27 25 28 30 30 31 31
47 47 43 41 39 42 43 44 43 41 38 35 36 35 33 30 30 28 27 28 29 28 29 29 29 29 30 31 31 30 31 30 29 29 28 27 27 26 26 24 23 24 28 29
43 46 42 43 42 40 42 42 38 34 33 31 31 29 28 25 24 24 26 27 27 27 26 26 27 28 31 31 30 30 30 30 30 29 28 28 27 26 26 25 24 24 25 25
42 41 41 39 39 39 38 37 35 33 31 30 28 27 27 27 25 25 25 24 23 21 23 23 24 26 29 30 29 29 28 28 29 28 27 26 25 24 23 22 21 21 22 22
34 32 33 33 33 33 31 32 32 29 28 27 26 26 26 25 25 23 22 22 21 21 21 22 22 24 27 28 28 28 28 27 27 27 26 25 24 23 22 21 20 20 20 21
34 32 32 31 30 29 28 27 27 26 24 23 22 21 19 18 18 18 19 19 18 17 19 20 22 23 24 26 26 26 26 26 25 24 24 24 24 24 23 21 21 20 19 20
30 29 29 29 29 27 26 24 23 23 22 21 20 19 19 18 17 17 18 17 16 14 16 20 24 23 23 25 26 25 25 24 23 23 23 21 20 21 20 20 19 18 18 17
26 27 26 25 25 24 22 22 22 20 20 20 18 17 16 16 19 18 16 14 16 17 19 19 22 21 23 23 24 24 22 22 22 20 19 19 19 18 18 16 17 17 16 15
22 22 21 21 20 21 21 20 20 18 18 19 17 16 15 15 15 17 17 14 16 19 18 19 18 20 22 22 22 20 20 19 19 18 18 17 16 16 16 15 15 14 14 14
23 21 21 20 20 20 20 20 20 19 18 17 18 19 18 17 15 14 14 15 17 17 17 16 17 16 19 20 20 18 18 17 16 16 15 15 14 13 13 13 12 12 12 12
23 22 21 20 20 20 20 20 19 19 18 17 17 18 17 18 18 14 11 15 16 14 15 14 13 14 15 17 16 16 16 15 14 13 13 12 12 12 11 9 11 10 9 8
23 23 23 23 23 22 20 20 21 20 18 19 17 17 19 18 17 18 17 15 14 12 11 12 13 14 14 15 15 13 12 12 13 13 13 11 11 11 10 8 8 8 6 6
25 25 24 23 24 23 23 23 23 23 22 21 21 21 20 19 15 15 16 15 13 16 14 11 12 13 14 14 12 12 13 11 9 11 11 10 9 9 8 7 6 4 4 5
26 25 25 25 26 27 27 27 24 23 23 19 19 19 18 19 18 18 16 14 14 14 15 14 11 12 12 12 12 11 12 11 9 9 9 9 8 8 7 5 4 5 4 2
26 26 26 25 24 23 21 21 21 20 19 19 17 19 18 18 16 17 14 16 16 14 15 15 14 11 10 10 12 11 11 11 6 7 8 8 7 6 5 3 3 3 2 0

GFSNGP_sfc_temp_075.txt.gz
Temp
39 42 41 41 39 40 42 41 37 44 49 49 53 55 58 62 63 63 63 64 65 66 66 67 66 67 68 67 66 67 66 64 61 61 61 61 61 62 62 62 63 63 63 63
35 44 40 37 41 41 43 44 44 46 45 51 56 55 59 59 60 61 61 61 63 65 64 62 63 62 64 66 67 67 66 66 66 64 62 61 61 62 62 62 63 63 62 62
28 38 36 32 40 41 44 47 46 40 47 51 51 57 57 57 59 60 60 61 61 60 60 59 59 61 61 62 63 63 66 67 67 65 64 63 63 63 62 62 62 62 62 63
28 33 27 40 51 49 45 47 50 50 53 55 53 58 58 59 59 59 59 60 58 56 54 53 53 58 59 57 57 57 59 60 63 62 65 65 64 64 63 63 62 62 62 62
27 28 36 42 43 42 44 39 45 45 50 52 54 55 53 60 60 59 58 57 54 52 50 49 48 53 53 52 53 52 53 53 52 54 55 63 62 63 64 63 62 62 63 61
31 27 26 39 45 50 50 35 46 48 47 49 53 40 46 57 55 54 54 53 50 49 47 45 45 50 48 47 47 47 49 48 48 47 48 48 51 53 59 61 62 61 58 49
29 28 34 49 49 52 33 35 47 49 50 50 46 48 53 55 53 52 51 50 51 46 42 42 43 45 43 42 42 45 46 45 43 42 43 42 45 46 45 50 50 45 42 37
30 28 27 50 47 39 44 48 49 48 49 49 50 51 50 50 48 47 45 46 47 43 41 41 41 41 39 38 42 43 42 41 39 38 39 39 38 39 40 40 40 37 35 32
36 35 47 50 47 51 51 48 48 48 49 50 48 48 46 45 43 42 41 41 43 41 40 39 38 38 35 37 40 40 38 36 35 35 35 35 34 33 33 36 35 33 32 31
41 44 46 48 50 50 51 49 50 48 47 47 44 45 42 41 40 38 37 37 39 38 35 34 35 34 34 37 39 38 35 33 33 32 31 32 33 32 31 32 31 31 31 29
34 35 40 42 47 47 47 48 47 46 43 42 42 41 39 36 35 35 34 35 34 33 32 32 33 32 33 35 37 35 34 33 31 31 30 30 30 30 30 30 32 30 29 29
32 37 36 37 43 46 43 43 42 41 39 38 38 37 35 32 32 31 30 31 31 30 31 31 31 31 32 34 33 33 31 30 30 29 30 29 29 28 31 32 32 32 32 32
37 43 41 41 41 44 41 39 38 36 35 33 33 33 31 29 29 29 28 28 28 27 28 29 30 30 31 32 32 30 29 29 29 28 28 28 27 27 24 27 30 30 31 32
43 44 37 37 35 41 41 39 37 34 32 31 31 30 27 26 27 26 25 26 27 26 25 26 27 28 30 30 30 30 29 28 28 27 26 26 25 25 25 23 22 22 26 28
40 42 41 40 39 36 38 37 32 29 28 27 27 26 26 23 21 20 22 23 24 22 22 23 23 25 29 29 28 27 28 28 27 25 25 24 24 23 22 22 22 21 22 22
38 36 36 34 34 33 32 31 28 27 27 26 25 24 23 22 21 20 20 21 19 17 19 19 21 23 26 28 26 26 26 26 26 25 24 22 21 21 20 20 19 19 18 18
28 28 30 29 27 26 26 27 26 24 23 21 21 23 22 20 19 18 18 18 17 17 19 19 19 22 24 24 24 24 23 23 23 24 23 23 22 20 20 19 17 17 17 19
29 27 27 27 25 24 23 23 23 22 20 20 18 17 16 15 14 15 15 15 15 14 15 18 21 21 22 23 24 23 23 23 22 21 21 20 21 20 19 18 17 16 14 14
26 24 25 24 24 23 23 21 21 20 19 18 17 15 15 14 13 13 14 13 12 11 13 16 22 20 20 23 22 22 22 20 20 20 20 19 17 18 17 16 14 12 12 12
23 23 22 21 21 19 17 16 16 16 17 15 14 13 12 12 13 12 12 11 12 13 15 16 17 19 19 20 20 20 18 17 18 17 17 16 15 14 14 14 13 12 11 11
15 16 15 15 15 15 15 13 13 13 14 11 11 10 9 9 11 12 11 9 12 14 15 15 15 16 19 18 17 15 14 13 13 13 13 11 11 10 10 9 7 7 8 8
13 14 12 12 13 14 12 13 13 12 10 10 9 10 10 10 9 10 10 10 13 12 13 13 14 12 15 15 14 12 13 11 11 10 9 9 6 4 4 6 2 2 1 5
13 14 14 11 11 12 12 11 8 9 7 6 7 8 11 13 13 9 6 13 13 10 12 10 10 12 12 11 9 9 9 9 8 5 5 3 2 -0 -0 1 5 2 -4 -3
18 16 13 13 14 15 14 12 14 14 10 14 9 9 15 12 11 13 12 9 9 3 3 6 8 8 4 4 8 5 1 1 3 2 3 0 -4 -3 1 -6 -6 -9 -9 -1
16 16 18 16 18 15 17 18 18 19 19 18 17 17 16 14 5 6 6 4 8 10 1 -1 4 6 -1 -4 -7 -4 -0 -8 -7 -9 -2 -4 -10 -3 -10 -12 -12 -7 -4 -7
21 18 20 21 19 18 19 20 17 16 17 12 8 2 1 6 10 10 7 6 5 5 1 -3 -6 -6 -7 -2 -6 -6 -2 -1 -8 -8 -9 -6 -9 -4 -7 -11 -11 -10 -12 -13
20 18 20 18 17 15 14 15 14 10 4 3 5 4 9 6 3 7 4 -1 2 -2 -3 -4 0 -2 -5 -6 -6 -5 -5 -6 -6 -6 -7 -4 -9 -9 -8 -12 -14 -13 -12 -12

GFSNGP_sfc_temp_078.txt.gz
Temp
36 40 41 40 38 40 36 37 35 43 43 46 47 50 54 58 59 58 58 57 57 56 56 57 58 59 62 61 61 61 60 59 58 59 60 60 61 61 63 62 62 62 61 61
31 40 42 38 40 41 42 40 39 43 43 49 51 51 55 56 58 56 55 54 53 54 53 53 56 57 58 59 59 62 60 59 59 59 59 58 59 60 61 61 62 62 61 61
24 37 36 31 37 41 43 44 44 38 47 49 48 48 49 55 56 54 53 52 50 49 49 49 51 53 52 53 55 56 59 60 59 60 59 59 59 59 59 59 60 59 60 60
26 31 24 39 47 46 42 43 49 49 49 47 48 49 49 54 52 49 49 47 46 46 45 46 49 50 50 51 51 51 51 51 51 51 53 55 60 59 58 59 58 58 59 60
24 25 34 40 40 42 36 36 46 46 47 49 51 50 45 48 49 48 47 46 45 45 44 44 46 47 47 46 47 48 48 48 47 49 49 50 50 50 56 59 59 59 60 59
27 24 23 36 46 49 47 33 45 47 46 45 48 37 40 46 47 46 47 44 42 42 41 40 43 45 43 43 43 42 43 43 43 44 45 44 45 45 46 48 53 57 47 39
27 27 33 46 47 48 32 35 45 46 45 45 41 43 44 45 43 43 44 43 43 40 38 38 40 43 40 40 39 40 40 40 38 38 40 40 41 42 42 44 41 38 35 34
28 27 26 49 46 37 41 44 45 45 46 44 43 43 42 41 39 39 38 40 41 38 37 37 38 38 37 36 40 39 36 35 34 34 36 36 35 36 38 38 36 35 34 31
34 34 44 46 44 46 47 43 44 45 46 45 42 40 40 37 36 36 35 36 38 37 36 35 35 35 33 35 39 37 33 31 32 32 32 33 31 31 33 34 33 32 31 30
39 37 39 42 46 46 45 43 43 43 44 44 39 38 36 35 33 33 33 33 35 34 32 31 33 33 33 34 38 36 33 31 31 31 30 31 32 31 30 30 30 31 30 29
33 34 37 37 38 43 43 43 40 39 39 39 37 34 33 31 30 30 31 32 32 32 31 31 32 32 33 33 35 33 32 31 31 30 30 29 29 29 30 31 31 29 29 29
31 34 34 34 38 41 38 36 38 36 33 34 34 31 31 29 29 28 28 29 29 29 29 30 31 30 31 33 32 31 30 29 29 29 29 29 28 27 30 31 31 32 32 31
34 35 35 38 40 39 35 33 33 32 32 29 30 30 29 27 27 27 26 26 25 25 26 27 28 28 29 30 29 29 28 28 28 28 27 26 26 26 23 25 28 29 29 30
39 37 33 35 33 37 35 34 32 29 29 28 27 27 27 25 25 23 22 23 23 23 23 23 25 25 28 26 28 26 25 24 24 24 23 23 24 23 23 21 19 19 24 25
35 38 36 35 34 34 35 33 27 25 25 24 25 23 22 19 18 18 20 21 22 21 20 21 21 23 26 26 26 26 26 24 22 21 21 20 20 20 20 19 18 18 19 20
33 34 33 30 29 30 29 29 27 25 25 23 22 21 20 19 18 17 18 18 16 15 18 17 19 21 24 23 22 21 21 22 20 20 19 18 18 18 18 18 17 17 16 16
28 26 27 26 25 24 24 25 24 22 22 21 20 20 20 18 17 16 15 16 15 14 15 17 17 20 20 21 20 20 19 20 19 20 20 20 19 18 17 16 15 14 14 15
26 25 25 26 24 23 22 22 22 21 19 18 16 13 12 12 11 12 12 12 11 12 12 13 18 18 19 20 20 20 20 20 19 18 18 18 18 17 16 15 14 13 12 12
24 24 24 24 24 23 22 20 18 17 16 15 13 11 11 10 10 9 9 10 10 9 10 13 20 17 17 20 19 18 17 15 16 16 16 14 14 15 13 12 11 10 10 11
21 22 21 19 18 17 15 13 14 13 13 11 9 8 8 7 7 7 8 7 7 9 13 14 16 16 16 16 16 16 14 13 14 12 11 11 10 10 10 9 9 9 9 7
11 13 12 12 11 11 9 5 8 8 7 6 6 1 1 2 3 2 5 7 8 11 13 13 14 15 16 15 14 11 11 10 9 8 6 2 2 4 5 2 2 0 4 3
8 9 7 7 9 10 5 6 8 7 6 5 2 -0 4 5 1 4 2 7 10 7 10 12 13 10 11 12 11 9 10 8 7 7 4 2 -2 -3 -6 -7 -10 -11 -9 -11
8 9 9 6 8 6 6 6 3 6 3 1 0 1 6 9 9 5 5 11 11 7 11 7 6 6 6 5 2 2 3 3 3 -0 -4 -6 -8 -9 -10 -10 -12 -13 -12 -8
10 9 8 7 7 11 10 7 11 10 4 9 4 8 13 6 3 11 9 5 2 -2 0 1 3 0 -3 -3 -5 -8 -10 -11 -10 -10 -9 -10 -13 -13 -15 -16 -15 -17 -13 -13
13 15 16 15 16 13 15 16 16 16 16 16 15 14 13 11 2 2 -1 0 6 2 -4 -6 -3 -5 -9 -12 -13 -8 -11 -13 -15 -14 -11 -13 -11 -14 -16 -17 -16 -13 -14 -16
20 17 18 19 17 17 18 19 15 16 14 6 4 -3 -4 2 5 6 3 3 2 2 -1 -9 -10 -12 -12 -9 -12 -12 -9 -8 -11 -13 -11 -13 -13 -12 -14 -16 -17 -17 -18 -17
17 17 17 14 13 12 11 13 9 7 6 6 6 2 -0 -3 -3 2 -4 -5 -5 -7 -9 -2 -1 -3 -4 -6 -7 -10 -11 -11 -12 -11 -15 -14 -15 -14 -17 -18 -18 -19 -19 -19

GFSNGP_sfc_temp_081.txt.gz
Temp
34 36 37 36 37 39 37 36 32 38 38 47 46 47 50 53 54 50 49 50 51 51 53 55 55 56 58 57 57 58 57 57 57 56 57 57 57 58 59 61 61 61 60 60
30 36 38 35 39 41 39 39 40 40 38 48 50 50 49 50 51 48 47 47 48 49 50 50 51 52 53 53 54 57 57 56 57 57 57 57 57 57 57 57 58 59 60 60
22 33 32 28 36 39 41 43 41 35 43 48 48 48 48 49 47 45 45 45 45 45 47 47 48 49 48 50 52 52 53 53 54 56 57 56 57 57 57 56 57 57 58 59
23 27 17 38 44 42 40 42 43 47 49 50 45 43 46 47 45 43 43 42 42 43 44 45 47 47 47 48 48 48 47 47 48 50 51 53 54 57 57 57 57 57 58 59
21 21 30 38 40 38 35 37 43 44 45 45 44 43 39 43 43 42 41 41 41 41 42 44 44 45 45 44 44 43 43 42 43 45 45 46 46 47 49 50 54 57 58 58
25 20 19 35 45 46 43 32 42 47 45 44 46 35 34 39 41 41 41 40 39 39 39 40 42 43 42 40 38 38 38 39 40 41 40 39 41 41 43 46 44 42 36 35
26 23 30 44 46 47 31 33 42 43 44 42 36 37 36 38 39 40 40 39 39 38 36 37 40 41 39 39 35 36 36 35 35 36 37 37 37 39 39 39 37 34 32 32
26 24 23 44 45 34 39 43 43 42 41 38 36 35 35 36 36 36 37 37 38 36 34 36 36 38 35 36 37 35 34 33 33 33 34 35 34 35 35 35 34 33 32 31
33 29 40 43 43 44 43 41 41 41 41 40 36 36 35 34 33 33 34 34 36 35 34 34 34 34 32 35 37 35 33 31 31 32 32 33 32 31 31 32 32 30 30 29
35 34 35 38 38 39 38 37 40 41 41 39 35 34 32 32 31 31 31 31 34 33 31 30 32 32 32 34 36 34 32 31 31 30 30 31 32 31 30 30 29 29 29 28
33 34 36 34 34 36 35 36 36 37 37 35 33 31 31 29 29 30 29 30 30 30 29 29 30 30 31 32 34 32 31 30 30 30 29 28 28 29 29 30 31 29 29 29
29 33 33 32 33 33 32 32 33 32 30 32 32 29 29 27 28 27 26 27 26 27 28 28 29 28 29 30 30 30 29 29 28 28 28 28 26 24 29 30 30 31 31 29
32 34 33 33 33 33 31 30 30 29 29 27 29 28 27 25 25 25 24 24 23 24 25 25 26 26 27 29 28 27 26 27 25 25 25 25 23 23 20 23 27 28 29 29
34 35 31 33 30 33 31 30 29 27 27 26 25 25 25 23 23 22 21 22 23 22 22 23 23 23 25 27 26 23 21 22 21 20 19 18 18 18 17 16 15 16 22 24
33 34 32 32 32 31 31 29 26 24 24 22 23 22 21 18 17 16 18 21 21 20 19 20 20 21 23 25 24 23 22 20 17 17 17 16 17 16 15 15 14 14 15 16
32 31 30 27 27 27 28 27 25 24 23 22 20 19 18 18 17 16 17 17 15 13 16 16 17 19 22 20 19 18 18 20 16 17 16 16 15 15 14 13 12 12 11 12
27 25 26 24 24 24 23 24 23 22 22 20 19 19 18 17 16 15 14 15 13 12 13 14 14 16 17 16 15 16 14 16 16 18 17 16 16 14 13 12 11 10 9 10
25 25 25 25 23 22 21 21 21 20 17 16 14 12 11 11 10 10 9 10 9 9 10 10 13 14 15 14 16 16 16 16 16 15 15 13 13 12 11 10 10 8 7 7
24 23 24 24 23 22 20 18 16 14 12 10 9 6 6 4 2 0 -0 3 3 5 8 9 18 13 13 17 15 14 13 12 13 12 13 9 10 10 8 7 6 4 5 5
21 21 20 17 17 16 13 10 11 10 8 9 5 3 2 -3 -4 -3 -2 -0 2 6 9 11 13 13 13 13 12 12 10 8 11 8 6 6 4 2 4 4 5 3 0 2
10 11 10 9 6 4 3 0 5 4 0 1 3 -3 -4 -3 -2 -3 2 5 5 8 11 11 11 12 12 11 11 6 6 4 4 2 -1 -3 -2 -2 -4 -4 -2 -3 -4 -4
5 7 3 5 6 5 1 3 6 3 3 -0 -7 -7 -2 -1 -2 0 -3 4 8 4 8 9 9 3 6 6 7 3 5 3 2 0 -3 -5 -7 -9 -13 -13 -13 -13 -14 -15
5 5 5 4 6 4 4 3 -1 1 -3 -4 -4 -2 3 5 6 1 0 9 9 5 9 2 -0 -1 -1 -2 -2 -4 -4 -5 -6 -9 -12 -14 -15 -16 -15 -16 -17 -17 -17 -15
6 7 5 4 5 9 8 6 9 8 1 6 1 -0 9 0 -2 8 7 1 -4 -6 -5 -5 -4 -4 -7 -12 -12 -14 -15 -16 -16 -16 -13 -15 -20 -20 -20 -21 -17 -19 -17 -15
11 10 10 9 13 11 13 14 14 14 14 14 13 13 12 9 0 1 -2 -1 2 -1 -5 -10 -6 -8 -14 -16 -15 -14 -16 -17 -18 -17 -17 -17 -17 -19 -21 -20 -20 -19 -20 -22
16 14 16 16 15 14 15 17 14 14 14 9 5 -5 -5 -2 2 2 -1 -2 0 -1 -5 -11 -13 -14 -15 -13 -14 -15 -14 -11 -15 -15 -16 -16 -17 -17 -19 -18 -20 -19 -21 -21
16 14 14 13 12 11 9 11 8 7 7 5 5 -0 -2 -7 -7 -2 -5 -5 -7 -10 -10 -11 -11 -4 -9 -11 -12 -11 -11 -11 -13 -13 -18 -18 -19 -18 -18 -19 -20 -22 -24 -24

GFSNGP_sfc_temp_084.txt.gz
Temp
32 35 35 34 34 36 34 36 31 35 36 43 46 48 48 50 49 47 46 48 50 51 52 54 55 56 56 56 56 56 55 54 54 54 55 55 55 56 57 57 57 56 56 56
29 34 35 32 36 36 36 37 37 38 37 48 51 50 48 47 46 44 43 44 46 47 48 49 50 50 51 52 54 57 55 55 58 55 55 54 54 55 55 55 55 55 55 57
20 30 30 27 33 36 37 41 40 35 42 48 48 48 47 44 43 41 41 41 42 43 45 45 46 47 47 49 51 51 51 51 51 54 56 55 56 56 56 56 56 55 56 57
24 27 14 34 40 40 37 40 43 43 44 44 44 41 41 42 41 39 39 39 39 41 42 43 45 45 45 46 45 45 45 45 46 47 48 49 50 49 52 55 56 56 56 57
20 21 28 34 38 36 33 35 42 39 43 46 41 41 36 41 39 37 38 38 38 39 41 42 43 43 41 40 41 40 39 40 41 42 43 43 42 43 45 48 46 40 39 41
25 20 15 32 41 45 43 30 38 42 44 40 45 34 31 36 38 36 35 37 37 37 37 39 41 42 38 36 35 34 35 36 38 39 39 38 39 39 41 40 37 37 34 34
25 25 28 38 41 46 30 31 35 37 35 35 32 34 34 35 35 34 34 34 37 36 34 35 39 40 37 35 32 34 34 35 35 36 36 36 37 37 37 36 35 33 31 31
29 25 21 40 42 36 38 37 34 34 33 32 32 32 32 32 32 33 33 34 35 33 32 34 35 36 35 34 35 34 33 33 33 33 34 35 34 34 35 34 32 31 31 30
31 29 36 36 36 37 37 34 36 34 34 33 32 30 30 30 30 31 32 32 34 32 31 31 32 32 32 34 35 34 32 31 31 32 32 32 31 31 31 32 31 30 30 29
33 33 32 34 35 34 34 32 34 34 33 33 30 29 28 30 29 29 29 29 31 30 29 28 30 30 30 34 34 33 30 29 30 29 29 30 31 31 30 30 30 30 29 28
32 34 34 31 32 32 31 32 30 31 31 30 30 28 28 27 27 27 27 28 29 28 27 27 28 28 29 31 33 31 30 30 28 28 27 27 28 28 28 29 30 27 27 28
26 32 31 29 30 31 29 28 30 29 28 29 29 27 27 25 25 25 25 26 25 26 25 26 27 27 27 28 30 29 28 28 27 26 26 24 24 24 29 29 30 30 30 28
31 32 31 30 29 29 27 27 28 27 27 25 26 26 25 23 24 25 23 23 23 23 24 24 25 25 26 26 25 25 24 25 23 22 23 21 20 19 16 21 26 27 28 28
31 34 30 29 27 30 29 28 27 25 25 24 23 24 23 21 21 21 20 21 22 21 21 22 22 21 23 24 23 20 19 18 17 16 16 15 14 14 14 13 12 14 20 23
30 31 30 30 30 29 29 28 24 23 22 21 22 20 20 17 16 16 18 20 20 18 18 18 18 19 21 23 21 19 19 17 15 15 14 14 14 14 13 12 10 10 12 13
29 29 28 26 25 25 26 26 24 22 22 20 19 18 17 17 16 15 16 15 14 12 14 14 15 16 19 18 17 16 15 17 16 15 14 13 12 12 11 10 9 8 7 7
27 24 25 23 23 23 22 23 22 21 20 19 18 18 17 16 14 12 11 13 11 11 12 12 12 14 16 15 14 15 14 14 14 14 14 13 12 11 10 9 7 6 5 5
25 24 24 24 23 22 20 20 19 18 15 14 11 9 6 6 5 5 4 7 6 7 8 7 9 10 11 11 13 13 13 14 14 12 12 10 10 9 7 7 7 5 4 3
23 22 22 22 21 20 18 16 14 12 10 8 6 3 1 -2 -3 -5 -4 1 1 4 6 6 16 11 11 15 12 12 10 9 10 10 10 5 5 7 4 2 1 -1 1 1
19 19 18 15 15 14 11 8 9 8 5 5 2 2 1 -5 -8 -5 -4 -0 1 5 7 9 11 11 11 11 9 10 7 5 8 4 2 1 -3 -5 -3 -0 -0 -6 -9 -8
9 10 9 7 4 3 1 -1 3 1 -3 -3 1 -6 -6 -6 -6 -7 0 3 5 7 9 9 9 9 10 8 8 1 1 -0 -2 -3 -6 -8 -9 -9 -12 -14 -12 -14 -13 -11
4 5 1 4 5 3 -0 0 3 -1 -2 -5 -11 -11 -7 -3 -4 -2 -5 2 8 3 6 7 7 -2 3 3 4 -1 1 0 -2 -4 -9 -12 -14 -17 -18 -18 -17 -18 -19 -18
2 4 4 2 4 2 1 -0 -3 -2 -4 -6 -6 -4 1 4 5 -0 -1 7 8 3 7 -1 -4 -5 -6 -7 -8 -10 -10 -12 -13 -14 -16 -19 -19 -20 -18 -17 -19 -19 -19 -16
4 5 4 2 3 8 8 5 8 7 -1 4 -0 -3 7 -1 -4 7 5 -1 -6 -8 -7 -7 -8 -7 -10 -15 -16 -17 -17 -18 -18 -19 -15 -18 -23 -23 -21 -22 -19 -22 -21 -20
9 8 8 8 13 13 13 13 12 12 12 12 12 12 10 8 -1 0 -4 -3 -0 -2 -6 -11 -9 -10 -16 -18 -18 -18 -18 -19 -19 -20 -18 -19 -19 -21 -22 -23 -22 -21 -23 -24
16 14 14 16 14 12 14 16 12 12 12 6 4 -4 -6 -5 -0 -0 -3 -4 -2 -2 -6 -12 -15 -17 -16 -14 -16 -16 -16 -13 -16 -17 -19 -18 -20 -19 -21 -20 -22 -21 -23 -24
14 13 13 11 10 9 8 8 3 2 5 3 4 -2 -4 -9 -9 -4 -7 -9 -9 -10 -12 -15 -15 -9 -11 -14 -15 -15 -11 -11 -13 -13 -18 -20 -21 -21 -21 -19 -20 -22 -25 -26

GFSNGP_sfc_temp_087.txt.gz
Temp
37 38 38 37 37 39 36 38 32 38 39 45 48 50 51 48 48 45 43 44 45 47 50 53 55 57 59 60 62 63 62 63 63 63 64 64 64 63 63 62 62 62 63 64
34 37 37 35 39 40 39 39 39 40 39 50 53 54 47 45 44 41 40 41 42 43 45 46 48 50 50 53 59 62 60 58 60 61 62 62 62 62 62 62 63 62 62 62
28 34 35 30 36 39 41 43 42 35 44 49 47 42 42 41 41 38 37 38 39 40 41 43 44 46 46 47 49 49 49 49 50 53 53 53 57 58 59 59 60 59 60 60
28 30 22 38 45 43 40 42 43 41 42 46 42 39 38 41 39 36 35 36 36 37 39 40 42 42 42 44 44 43 43 43 45 46 46 47 48 48 50 49 46 48 45 49
26 27 33 38 41 40 37 37 36 35 37 39 39 38 34 37 36 34 33 34 34 36 38 40 39 39 39 38 39 38 38 39 41 42 42 42 41 42 44 42 39 38 37 38
28 23 21 35 41 46 44 31 35 34 33 41 40 33 30 34 35 34 33 33 33 34 35 37 39 39 36 35 35 34 35 36 38 39 39 38 39 38 38 38 36 35 33 34
28 26 32 35 40 46 31 30 35 33 31 30 28 31 32 33 32 33 32 32 33 33 32 33 37 37 34 35 33 35 37 37 36 37 37 37 37 38 37 35 34 32 31 32
31 26 24 36 42 33 36 35 34 32 31 29 29 29 29 30 30 31 31 31 31 30 30 32 34 36 34 33 35 35 35 34 35 35 36 37 36 35 35 35 33 32 32 31
32 30 33 34 32 33 34 33 33 32 32 30 28 28 28 28 29 29 29 29 30 29 28 29 31 32 32 33 34 33 33 32 32 33 34 35 34 34 34 34 33 32 31 30
29 30 30 32 33 32 32 30 31 32 31 30 28 28 27 27 27 28 28 29 30 29 27 26 29 29 30 32 33 33 32 31 32 32 33 34 34 33 32 32 32 32 32 30
30 31 32 30 30 30 30 30 29 29 29 28 27 25 25 24 25 25 26 27 28 28 27 27 29 29 29 31 33 32 31 31 30 31 31 30 30 31 31 31 32 29 29 30
25 30 28 26 28 29 27 27 28 28 26 27 27 25 26 24 25 25 25 26 26 26 26 26 27 27 28 30 32 32 30 29 28 29 29 30 29 27 28 29 30 30 30 30
30 30 28 28 28 28 26 25 25 26 26 24 26 26 25 24 24 25 24 24 23 24 25 25 25 25 26 27 27 26 26 27 27 27 27 26 26 26 22 22 25 26 27 28
32 32 27 28 25 27 26 26 27 25 25 25 24 24 24 22 22 22 21 22 23 22 23 23 23 22 25 25 24 23 23 21 24 24 24 23 23 22 22 22 20 19 21 22
28 30 29 29 29 28 29 28 24 23 23 22 22 21 21 18 17 17 19 21 21 20 19 20 20 20 24 25 24 23 25 23 22 22 21 21 21 21 20 19 18 18 20 19
29 29 28 26 26 27 27 26 23 22 22 21 20 19 18 18 17 16 17 17 16 14 15 15 17 18 21 22 23 22 22 20 21 22 21 21 20 19 18 17 17 16 15 15
28 25 26 24 24 23 23 23 22 21 20 19 18 19 18 17 15 14 13 14 13 12 14 14 14 15 16 17 21 23 22 21 19 22 21 20 19 18 17 17 15 14 12 10
26 26 26 26 24 22 21 20 19 18 16 15 12 10 8 8 8 8 8 10 11 11 11 11 15 14 15 17 19 21 21 21 21 19 19 18 17 17 16 15 14 13 12 10
24 23 23 23 23 21 19 17 15 14 12 11 9 5 5 4 5 5 7 7 8 11 10 13 17 15 15 17 18 20 19 18 18 17 17 14 15 15 14 14 12 12 12 11
20 20 19 17 17 16 12 11 12 9 9 8 6 6 6 3 2 5 8 8 9 11 13 14 15 15 15 14 14 17 17 17 16 14 14 13 13 12 12 10 11 10 10 9
13 13 11 10 7 7 7 8 9 7 5 6 7 4 4 4 4 5 10 11 11 12 13 12 13 15 15 14 15 14 14 13 12 12 11 11 11 10 10 9 10 10 9 9
11 10 9 9 9 8 6 9 8 6 6 3 -1 1 5 8 7 8 5 10 14 8 13 14 13 4 10 11 13 12 12 12 11 11 10 10 10 9 8 8 8 7 7 7
11 11 11 10 11 10 9 8 6 8 6 5 5 8 11 12 13 12 11 12 14 10 14 11 3 1 2 10 10 9 9 8 8 7 7 7 8 8 8 7 7 6 6 6
12 13 11 10 11 15 15 14 14 12 8 10 8 6 13 14 12 14 14 5 1 6 8 8 5 1 1 8 8 8 8 7 7 7 7 -3 6 5 6 5 6 6 4 2
14 13 13 13 17 18 17 17 16 16 15 16 16 15 14 15 13 14 13 12 5 8 12 -0 -1 -2 8 8 8 7 7 8 8 7 7 7 7 6 6 5 3 5 5 4
18 19 19 19 19 19 19 19 17 17 17 14 14 13 12 11 13 13 12 7 11 7 12 11 8 7 8 8 8 7 7 7 6 6 4 6 5 5 4 4 3 3 4 4
19 17 18 17 17 16 16 15 16 15 13 14 14 14 13 11 11 9 5 11 11 10 10 10 7 6 9 8 8 8 7 8 4 7 6 5 4 5 4 4 4 4 2 0

GFSNGP_sfc_temp_090.txt.gz
Temp
45 46 46 45 44 46 43 44 38 46 46 51 54 55 57 56 53 51 44 43 43 43 44 47 55 57 59 64 66 66 65 64 63 63 64 63 63 63 62 62 65 68 67 66
39 43 44 40 44 46 46 46 46 47 46 57 57 57 49 45 46 44 42 39 40 41 42 43 45 50 52 58 64 66 66 63 66 66 67 67 65 65 64 62 63 63 64 65
32 41 40 36 42 44 46 48 47 41 47 52 47 43 42 42 40 40 38 37 36 38 39 40 41 44 46 47 49 50 50 49 50 52 52 52 58 62 63 64 65 62 62 62
34 36 25 43 50 48 45 45 41 41 45 46 44 38 37 37 38 37 37 34 34 35 38 37 39 41 42 43 44 44 43 44 45 46 46 48 48 48 46 45 44 44 43 42
32 33 39 42 44 44 41 37 36 37 40 42 40 37 32 35 35 34 33 34 33 34 35 37 37 38 39 38 38 38 38 39 41 42 42 42 41 41 41 39 37 37 38 37
35 25 25 38 46 51 50 32 35 38 35 31 38 31 27 32 33 32 32 32 32 32 33 34 36 37 35 35 36 35 36 37 39 39 39 38 38 37 37 37 35 35 34 34
34 32 38 39 43 50 33 30 34 36 32 28 26 28 30 31 31 31 31 31 31 31 30 31 34 35 33 34 32 34 34 36 37 38 37 38 37 37 36 34 34 32 32 32
34 30 27 35 44 34 32 34 34 32 31 29 29 29 29 29 29 29 29 30 29 29 29 30 32 33 32 30 32 33 34 36 37 38 39 39 38 37 37 35 34 33 33 32
29 27 32 34 33 34 35 32 33 32 32 30 28 27 28 28 29 29 29 30 30 28 28 29 30 31 30 31 35 35 34 34 37 38 38 38 38 37 37 37 36 35 34 33
32 31 31 34 35 35 33 30 31 32 30 30 27 27 26 27 27 28 29 30 32 31 28 28 29 30 31 33 33 32 32 34 34 33 34 36 36 35 35 35 35 35 34 33
30 32 34 31 30 30 30 31 29 29 29 28 27 26 26 26 26 26 27 27 28 28 29 29 30 29 30 32 33 32 32 32 32 34 33 31 30 31 32 31 32 32 31 32
28 31 30 27 29 30 28 27 29 28 28 29 29 27 27 26 26 27 26 27 28 28 28 28 29 29 31 32 34 34 31 31 30 31 32 32 30 27 28 29 29 29 30 30
30 31 30 29 29 29 27 26 27 27 27 27 30 30 29 27 28 28 28 28 27 27 28 28 28 27 29 30 30 30 30 31 31 32 31 31 32 31 27 25 25 26 27 27
33 33 28 29 27 29 28 28 29 30 30 30 29 29 28 27 27 26 24 25 27 27 27 27 26 25 28 29 29 29 28 29 30 30 29 29 29 28 28 27 25 24 23 23
30 33 31 32 33 32 33 32 29 27 27 26 27 26 26 23 21 21 23 25 25 23 23 24 23 23 27 29 28 28 29 28 28 27 27 28 28 28 27 27 26 25 26 25
31 34 34 32 31 32 32 31 28 27 27 26 25 24 23 23 22 22 21 21 20 18 20 19 20 21 24 27 29 29 27 26 27 28 28 27 27 27 26 26 25 23 21 21
31 28 30 29 29 28 28 29 28 26 25 23 22 23 23 22 20 19 18 19 17 17 19 19 18 19 21 22 27 28 28 28 26 28 27 27 26 25 25 24 23 21 18 16
33 32 32 31 28 26 25 25 25 23 21 19 16 15 13 13 13 13 14 16 17 16 17 18 19 20 20 22 25 28 28 27 27 26 26 25 25 25 24 23 22 21 20 17
31 29 29 28 28 27 25 22 20 18 16 15 13 11 11 11 13 13 16 16 16 16 16 18 20 21 21 19 25 27 26 25 25 25 24 22 23 23 22 21 20 19 19 18
26 26 26 24 23 21 17 16 17 14 14 14 13 13 12 10 11 12 15 13 14 16 18 18 21 21 21 20 21 26 24 24 23 21 21 22 21 20 19 16 19 19 18 17
20 19 17 16 14 15 15 15 15 13 13 14 14 11 11 12 12 13 18 20 16 16 18 18 19 21 22 21 23 22 22 21 20 20 19 19 19 19 18 18 17 17 17 17
18 16 15 15 15 14 15 16 15 13 13 11 9 10 13 15 14 14 12 16 20 14 19 20 19 12 16 17 21 19 19 19 19 19 18 18 18 17 16 16 15 15 16 16
18 18 17 16 17 17 16 16 15 15 14 13 14 16 18 19 20 20 19 18 21 16 20 17 11 10 12 17 17 17 16 16 16 16 16 16 16 15 15 14 14 14 14 14
19 19 18 18 18 20 20 19 20 18 16 17 15 14 19 21 21 22 20 14 11 13 15 15 12 10 10 17 16 15 15 15 15 15 16 6 15 14 14 13 12 14 13 11
21 20 20 21 24 26 23 23 22 22 21 22 21 21 20 22 20 21 21 20 13 15 19 9 8 9 16 17 16 15 15 15 15 14 14 14 14 13 14 13 11 12 12 11
25 27 27 24 26 27 27 27 25 26 24 23 22 22 22 22 22 21 21 16 18 16 19 19 17 16 16 16 16 15 15 15 14 14 12 13 13 12 12 12 11 11 12 12
26 25 26 25 26 26 25 24 23 23 22 22 21 23 21 21 21 18 16 19 19 18 18 18 18 16 16 16 16 16 15 15 13 14 14 13 13 13 12 12 12 12 11 10

GFSNGP_sfc_temp_093.txt.gz
Temp
46 50 51 48 47 49 45 47 42 48 49 54 56 56 58 55 56 53 50 44 41 41 42 44 45 48 59 61 62 64 63 65 65 68 68 68 67 67 68 66 64 63 63 62
44 50 50 45 48 49 49 49 50 50 50 56 58 56 50 48 47 47 43 42 39 39 39 40 41 43 47 52 59 68 64 62 65 68 65 65 66 65 64 65 66 65 65 65
35 46 45 38 45 47 49 51 47 41 47 54 51 44 36 37 40 38 40 39 37 36 37 37 38 40 41 46 50 50 49 50 52 54 54 54 59 58 57 59 60 56 55 49
34 39 29 44 54 53 47 45 47 46 47 48 44 35 34 34 33 32 33 33 34 34 35 36 37 37 40 42 43 43 43 44 46 48 47 47 48 46 44 43 43 43 42 43
35 38 42 45 47 46 44 35 40 40 42 42 38 37 31 33 32 31 31 32 32 33 33 33 35 35 37 37 38 38 38 39 40 42 41 41 39 39 39 38 36 36 36 37
39 33 29 37 47 52 49 29 36 38 36 31 37 31 26 31 31 31 31 31 31 32 32 32 33 35 33 34 35 34 35 37 38 38 37 36 36 35 35 35 34 34 33 33
36 37 36 39 47 50 32 27 36 36 32 30 27 28 30 31 31 31 31 30 30 30 29 30 32 34 31 31 31 32 35 35 37 37 36 36 35 35 34 33 33 32 31 31
37 34 28 38 45 32 31 34 35 34 31 30 30 30 30 30 30 31 30 30 30 29 29 30 32 32 31 30 32 32 33 34 34 35 37 38 38 34 34 34 33 32 32 31
32 29 34 36 34 35 36 33 33 34 33 31 29 28 29 29 30 30 30 31 31 29 28 29 30 32 30 31 32 32 31 31 32 33 32 32 34 35 34 37 35 34 33 32
33 32 33 35 36 35 34 31 32 32 31 30 28 28 28 28 28 28 29 29 30 29 27 27 29 29 31 32 33 32 31 30 29 29 29 31 32 32 30 32 32 32 33 32
31 33 34 32 31 32 32 31 30 30 30 29 29 27 27 27 27 27 28 28 29 28 27 27 29 29 30 32 33 32 31 31 31 31 29 27 27 29 29 29 30 30 29 29
28 32 31 28 30 32 29 29 31 31 29 30 30 28 29 28 29 30 29 30 29 29 28 29 29 29 30 31 31 30 29 30 31 32 31 28 26 24 28 28 29 29 29 30
31 33 31 30 31 31 29 28 29 29 29 28 31 32 31 29 29 29 30 30 29 29 29 29 29 29 31 32 32 31 31 32 32 31 30 29 30 27 22 24 26 27 27 28
36 36 31 31 28 30 30 30 31 32 33 33 32 33 31 29 29 29 28 28 29 28 27 27 26 25 29 30 30 30 31 30 30 30 30 30 30 29 29 27 24 23 25 25
34 34 33 34 34 35 36 35 31 29 29 29 30 29 29 26 24 23 25 27 27 26 24 25 23 24 28 31 30 28 29 29 29 29 29 29 29 29 29 28 27 26 27 28
34 39 38 36 36 36 36 34 31 29 29 29 28 27 26 26 25 24 24 23 22 20 22 20 21 22 26 27 31 30 29 28 29 29 29 29 28 28 27 26 25 22 21 22
34 32 34 32 32 32 31 32 31 30 28 26 24 25 27 25 23 22 21 22 20 20 21 20 20 22 23 25 29 31 31 30 29 29 29 28 28 27 27 26 24 22 19 20
38 37 36 34 31 30 29 29 28 26 23 21 18 17 16 16 16 17 18 21 21 18 20 20 22 23 22 23 28 30 30 30 29 28 28 26 27 28 26 26 25 24 23 21
36 34 34 33 33 31 29 25 22 19 18 17 16 14 14 14 16 17 19 19 20 18 18 20 23 23 23 23 27 30 29 28 28 27 27 27 26 26 25 25 23 23 23 22
31 32 31 29 27 24 20 19 19 17 18 18 17 16 15 14 14 17 19 16 16 19 21 21 23 24 23 25 26 29 27 26 26 25 23 24 24 23 22 20 22 22 21 20
25 23 21 19 18 18 18 18 18 16 16 16 16 14 14 15 15 16 22 24 19 19 22 22 21 21 23 23 27 25 24 24 23 23 22 22 22 22 21 21 21 20 20 20
22 20 18 18 18 18 19 20 18 17 16 15 13 14 16 21 17 17 16 19 24 16 23 23 20 15 18 20 24 22 22 22 22 22 21 20 20 20 20 19 18 18 19 18
22 21 20 19 20 21 20 19 18 18 17 16 17 19 21 23 23 22 22 22 23 19 23 19 14 14 14 20 20 20 20 19 18 19 19 18 18 18 18 17 16 17 17 17
23 23 22 22 21 21 22 22 22 22 19 20 18 17 20 23 25 26 25 19 16 16 19 18 15 14 12 19 19 18 18 18 18 18 18 12 18 17 17 16 15 16 16 14
23 23 23 22 25 28 26 26 26 25 25 27 26 25 23 26 22 24 23 22 17 18 21 14 15 14 18 19 18 18 18 18 17 16 16 16 16 16 16 16 15 15 14 14
26 28 29 28 30 31 31 31 29 30 28 27 28 27 26 25 25 23 23 20 21 21 21 21 20 19 19 19 19 18 17 18 18 17 16 16 16 16 16 15 15 14 14 14
30 29 30 30 31 30 28 27 25 26 25 24 23 26 26 25 24 22 22 22 22 22 21 21 21 20 19 18 18 18 19 18 17 17 16 16 16 16 15 15 15 15 14 14

GFSNGP_sfc_temp_096.txt.gz
Temp
33 35 46 42 42 39 39 44 39 44 43 47 49 47 47 48 48 47 44 42 40 38 39 39 40 41 44 48 59 61 61 62 62 63 63 64 63 61 61 60 59 59 58 58
32 42 46 38 38 41 48 47 48 48 46 49 49 42 39 39 39 37 36 36 37 37 37 37 37 38 41 42 47 60 58 59 61 63 64 63 62 63 61 60 60 60 59 59
35 47 46 37 45 48 44 43 43 35 40 44 40 33 31 32 33 32 33 33 33 34 34 35 35 36 37 39 43 47 49 50 51 53 52 51 52 51 49 51 49 47 46 44
35 40 27 42 52 49 39 38 39 40 40 40 33 31 31 32 31 30 31 31 31 33 33 34 35 35 36 37 39 40 41 43 45 46 45 44 44 42 41 41 41 40 40 40
35 32 35 39 43 42 40 31 36 35 36 37 35 35 29 31 31 30 30 30 30 32 32 33 33 34 35 34 35 36 37 37 39 41 40 39 37 37 37 36 35 34 35 35
40 33 27 32 40 49 48 26 35 34 31 32 33 27 26 31 32 31 30 30 30 30 31 32 32 33 32 32 32 33 34 36 37 37 37 35 35 34 35 34 33 32 32 33
35 33 31 34 42 49 30 26 33 33 31 29 26 28 30 31 31 31 30 30 30 29 28 29 32 32 31 30 29 32 34 34 34 36 35 35 35 35 34 33 33 31 30 30
34 29 25 35 40 30 31 34 34 32 31 29 29 29 30 30 29 29 29 29 29 28 28 29 30 32 30 29 31 31 31 31 32 32 33 34 34 34 35 34 33 32 31 30
30 27 33 34 31 33 35 32 32 31 31 30 28 27 28 28 28 28 28 28 29 27 27 28 29 30 30 30 32 31 29 28 27 29 30 30 29 30 32 33 32 31 30 29
32 31 31 33 34 33 32 30 31 31 30 30 27 28 27 27 27 28 28 28 28 28 26 26 28 29 30 31 32 31 29 28 26 26 26 27 28 27 27 29 28 29 29 27
30 32 32 31 31 31 31 31 30 30 30 29 29 27 27 27 27 27 28 28 28 27 27 26 28 29 29 31 31 30 30 30 28 27 25 25 26 26 26 27 28 26 26 27
26 31 30 27 30 31 29 29 30 30 29 29 29 28 28 27 28 29 28 29 29 28 27 27 28 28 29 32 31 30 29 29 29 30 27 25 24 23 28 28 28 29 30 28
30 32 30 30 30 32 29 29 30 30 31 29 31 31 30 28 29 29 29 28 27 26 27 27 27 26 29 30 31 30 28 29 29 30 29 28 26 24 21 24 26 26 27 28
35 34 29 30 28 32 32 32 32 32 31 31 31 30 29 27 26 26 26 27 27 25 25 25 24 24 26 30 29 29 29 28 28 28 28 27 27 26 26 24 21 21 26 27
33 35 33 35 37 36 36 34 30 28 28 28 29 27 27 24 22 21 22 25 25 23 22 22 21 21 26 27 30 27 28 28 29 28 28 28 27 26 25 23 21 20 22 24
39 39 39 36 36 36 35 33 30 29 29 28 27 26 25 24 22 22 22 21 19 18 19 18 20 20 22 24 28 29 28 28 28 28 27 26 26 25 24 22 19 17 17 18
34 33 34 32 32 31 31 31 30 28 25 23 21 21 23 23 21 20 20 21 18 18 19 19 19 20 20 21 23 28 28 27 26 26 25 25 25 24 24 22 19 17 16 17
38 37 36 34 31 29 28 28 26 24 20 19 17 15 13 14 15 16 17 19 17 15 17 17 18 20 19 21 23 28 27 26 26 25 24 23 24 24 22 22 21 20 18 18
36 34 34 33 32 30 27 23 19 18 16 16 14 12 12 12 14 15 16 13 14 15 16 18 22 21 21 22 24 26 26 25 24 23 24 23 21 20 20 20 19 18 18 17
31 31 29 26 25 22 18 17 18 16 16 16 13 13 13 10 11 12 17 14 14 16 19 20 20 21 21 22 21 25 24 22 23 22 20 20 20 20 18 16 18 18 18 16
23 22 20 18 17 17 17 16 15 13 13 12 13 11 11 13 13 12 18 20 17 17 18 19 19 16 21 16 22 21 21 20 20 20 18 19 18 18 18 17 17 16 15 15
21 19 18 18 17 17 17 18 17 14 14 12 9 10 12 17 14 15 13 17 21 13 18 20 17 11 14 11 21 19 19 18 18 18 17 16 16 16 16 14 14 12 13 12
21 20 19 17 18 19 19 18 16 17 14 13 14 17 19 22 23 21 18 20 21 16 20 17 10 9 10 16 18 17 17 16 16 15 16 14 15 13 13 13 10 12 11 11
23 22 22 22 20 21 20 20 21 21 17 19 17 14 19 21 22 25 21 16 14 13 17 16 13 10 7 16 18 16 16 16 16 15 15 10 15 13 13 11 9 11 10 7
23 22 22 21 22 25 27 27 26 25 25 26 27 24 22 26 22 22 21 20 17 15 19 14 12 10 14 18 17 16 16 16 15 13 12 13 14 12 13 13 9 11 8 6
25 27 28 28 29 30 30 30 28 29 27 25 27 26 25 25 24 22 23 20 19 19 20 20 19 17 17 17 17 16 16 16 15 15 13 13 13 13 12 11 11 10 10 11
29 30 30 29 30 29 27 25 24 24 24 23 22 24 25 24 24 22 20 21 21 21 21 21 21 19 18 17 16 17 17 17 15 15 12 12 10 12 11 11 11 11 10 7

GFSNGP_sfc_temp_099.txt.gz
Temp
32 35 36 35 36 38 36 34 32 31 30 35 34 34 34 37 37 36 35 35 35 34 34 35 36 38 40 41 43 46 58 60 59 60 61 60 59 58 58 58 58 58 57 56
31 36 37 34 38 36 34 35 35 36 31 38 37 35 33 32 33 32 32 32 32 33 34 33 34 35 38 39 40 43 47 53 58 59 61 60 59 59 58 58 57 57 57 56
28 36 36 30 34 35 33 34 35 27 31 37 31 29 28 29 30 29 30 30 30 31 32 33 33 35 35 37 39 39 40 43 48 49 49 49 50 48 48 46 45 44 43 43
29 35 23 32 40 37 31 31 34 32 32 32 29 29 30 30 29 28 29 29 29 30 31 32 33 34 36 37 36 36 36 37 40 42 42 42 42 40 39 39 38 38 38 38
30 28 32 34 34 31 33 27 32 30 31 33 32 35 27 31 30 28 28 29 28 30 30 31 32 33 33 34 34 34 33 35 36 37 37 36 35 35 36 35 34 34 35 35
32 26 21 27 33 39 39 21 31 31 29 28 32 21 22 29 30 28 28 28 28 28 30 30 32 33 30 29 30 30 32 32 34 36 35 34 34 33 33 33 32 32 32 33
27 25 27 29 34 40 19 22 30 31 28 26 23 25 27 29 28 28 28 27 28 27 26 28 30 32 29 29 27 28 30 32 32 32 34 35 35 34 34 32 32 31 30 31
27 23 20 31 34 25 30 31 31 29 28 24 24 25 26 26 26 27 27 27 27 26 26 27 29 31 29 29 29 28 28 28 28 29 30 32 32 33 34 33 31 30 30 30
26 24 30 31 29 31 31 29 29 29 28 26 23 23 25 25 26 26 26 26 27 26 25 28 29 29 28 29 30 28 27 26 26 26 27 28 28 30 30 30 29 28 28 28
28 27 28 30 32 31 30 28 30 30 28 27 25 25 24 25 26 26 26 25 26 26 24 24 26 28 28 30 30 30 27 26 25 25 25 26 26 27 27 26 26 27 26 26
27 28 28 28 29 30 30 30 29 29 28 27 27 25 25 24 24 25 25 25 26 24 24 24 26 26 28 29 30 29 29 28 26 25 24 24 25 26 26 27 27 26 26 27
21 28 26 26 28 30 28 28 29 28 27 28 27 26 26 25 26 26 25 26 25 25 25 24 25 25 28 30 30 28 27 28 28 27 25 24 23 23 28 28 29 30 30 28
28 29 27 27 28 30 28 28 29 28 28 26 28 27 26 24 26 26 25 23 22 22 23 23 23 23 25 29 29 29 27 27 28 28 27 27 25 23 20 24 28 28 28 29
33 32 27 29 25 30 29 29 30 29 29 29 28 26 24 23 22 21 22 23 22 21 21 21 20 19 22 25 27 26 27 27 26 26 25 25 24 23 22 21 19 20 26 27
32 32 30 31 31 32 33 31 27 26 26 25 25 24 23 20 18 17 18 21 21 19 18 18 18 18 21 23 26 26 26 25 25 25 25 24 23 21 19 18 17 17 19 21
34 36 35 33 33 33 31 29 25 24 23 22 22 22 21 20 19 19 18 18 16 13 15 14 17 18 20 20 20 23 23 24 23 22 22 21 21 20 18 16 15 15 15 16
31 30 30 28 27 26 25 25 23 21 19 18 17 18 19 19 17 16 15 16 14 12 14 12 10 12 14 16 17 20 19 20 19 20 20 20 20 20 19 16 15 15 15 17
33 31 30 28 26 24 23 22 21 19 16 16 11 8 6 5 6 6 7 8 4 6 7 8 11 12 14 16 19 21 20 20 20 19 20 17 18 18 17 15 15 13 14 15
31 29 28 28 26 23 21 18 15 14 9 7 5 1 -1 -2 -1 -1 -0 1 -1 0 7 6 19 14 14 17 16 19 18 16 17 17 18 15 12 13 12 14 11 9 9 10
24 23 23 21 20 17 13 8 9 8 5 4 0 -1 -1 -2 -2 -2 6 2 2 5 8 11 13 13 16 16 11 18 16 14 16 12 12 10 8 7 9 9 9 12 10 5
17 16 13 12 9 7 5 3 4 2 1 -1 1 -2 -1 1 1 -1 7 11 7 8 15 13 12 11 14 11 14 9 8 8 10 14 8 8 12 12 3 0 6 -0 -1 2
12 11 9 8 10 6 4 5 5 2 2 -0 -2 -4 -2 5 2 4 2 8 12 7 13 11 10 4 8 5 11 5 8 7 5 5 3 3 1 -1 4 3 -1 -2 6 7
12 13 13 9 10 9 7 6 4 5 2 1 1 5 7 12 14 10 9 15 14 8 14 7 4 2 1 -0 5 -0 0 1 -0 -1 4 -2 -5 -2 -5 -2 -4 -2 -0 -4
15 13 10 10 11 12 12 10 13 15 8 11 9 7 12 8 8 17 14 9 6 4 3 3 3 5 -0 -3 7 -1 -2 -3 6 -3 -2 -0 4 -0 -3 -5 1 -1 -5 2
15 14 13 12 16 17 20 20 19 20 19 20 21 20 17 20 10 9 7 7 9 7 4 4 6 7 -1 -2 -2 6 1 -2 -2 -4 -5 -5 -4 -5 -4 -1 -5 -5 -7 -9
20 20 20 22 23 23 22 23 16 18 18 12 12 15 16 16 13 11 9 9 10 9 7 12 6 8 8 7 4 -1 -0 3 7 4 3 -2 -3 -0 2 2 -1 -3 -4 -3
23 23 24 22 21 21 17 16 11 10 10 6 6 5 10 9 9 11 11 9 11 15 12 9 10 10 11 5 5 1 1 2 4 7 4 -1 -3 -3 1 -1 -1 3 1 -4

GFSNGP_sfc_temp_102.txt.gz
Temp
30 33 34 34 34 34 33 33 29 27 27 29 29 30 30 33 34 33 31 31 31 31 32 33 34 35 37 39 40 43 44 47 52 59 59 59 58 58 57 58 57 57 57 56
28 34 34 31 33 33 33 32 31 30 28 32 32 32 29 29 30 29 29 30 30 31 32 32 33 33 36 37 38 40 40 41 44 49 58 58 58 58 56 54 55 54 54 53
27 33 33 27 28 29 29 31 31 25 29 32 27 27 26 26 27 26 27 28 28 29 30 31 32 33 33 35 38 37 37 38 39 41 44 46 47 45 44 43 43 41 42 42
28 31 20 28 33 34 29 29 31 30 31 29 26 26 28 28 26 25 26 26 27 28 29 31 32 32 33 33 34 35 35 35 36 37 38 39 39 38 37 37 36 36 36 37
28 26 27 31 31 28 29 24 29 28 29 29 29 31 25 27 28 25 25 26 27 28 28 30 31 32 32 30 31 30 31 32 33 35 35 35 34 34 34 34 33 33 34 34
30 24 20 26 30 36 36 18 29 29 26 26 31 19 20 26 27 26 26 26 26 27 28 28 30 32 29 28 27 27 28 30 32 33 33 33 33 32 33 33 32 32 32 33
27 24 26 27 32 39 20 20 29 27 25 23 20 22 25 27 26 27 26 25 26 26 26 27 29 31 27 27 25 27 28 28 28 29 31 32 33 33 32 32 31 31 30 31
25 22 20 28 32 25 27 29 28 26 24 22 22 23 23 24 24 25 24 25 25 24 24 25 28 29 28 27 28 27 27 26 26 27 28 29 30 31 31 31 30 30 30 30
25 22 28 29 27 29 31 28 28 26 25 23 21 22 22 23 25 24 24 23 24 23 23 25 26 27 26 28 29 28 27 25 25 26 27 27 27 27 27 28 28 28 29 29
25 25 27 29 29 29 29 28 27 27 26 25 22 22 22 23 23 23 23 23 24 23 22 22 24 26 27 27 30 29 27 25 25 24 24 26 27 27 27 26 26 26 27 28
24 26 27 27 28 29 28 27 27 27 26 25 24 23 23 22 22 22 22 22 22 21 21 21 23 23 26 27 28 27 28 27 25 25 24 24 25 26 26 28 28 26 27 28
21 26 25 25 27 29 27 27 28 26 25 27 26 24 25 23 23 22 22 22 21 22 21 21 22 22 24 27 28 26 26 27 27 27 25 24 23 23 28 29 29 30 30 30
23 27 26 26 27 28 26 26 27 26 26 24 25 25 23 21 23 23 22 21 19 20 21 21 21 21 22 25 28 27 26 26 26 26 26 25 24 23 21 24 26 28 28 29
29 29 25 25 25 28 27 27 28 26 26 26 24 23 22 20 20 19 19 21 20 19 19 19 19 18 21 22 25 24 24 23 23 23 23 22 20 19 18 17 17 18 24 26
30 31 28 28 30 29 30 28 25 23 23 22 23 22 21 17 15 15 16 19 19 17 16 16 17 16 20 22 23 22 23 21 20 20 20 20 19 17 16 16 16 16 18 20
31 31 30 30 29 29 27 26 23 21 21 21 21 20 19 18 16 16 16 15 14 11 12 9 14 13 17 17 18 18 16 19 17 17 18 16 16 14 14 14 15 15 15 15
30 28 29 27 26 25 24 24 22 20 20 18 17 18 19 17 16 14 13 13 10 7 10 9 6 8 11 12 13 15 13 15 14 17 17 17 15 13 12 12 12 13 13 14
34 31 30 27 24 22 22 22 21 19 15 15 10 6 4 4 4 3 2 3 3 5 4 3 4 8 10 12 14 17 15 15 17 18 15 11 14 16 13 12 12 11 9 9
30 28 27 26 24 22 21 18 15 13 7 4 2 -1 -3 -5 -4 -3 -6 -5 -6 -2 3 2 15 9 11 14 14 14 13 11 13 14 14 10 8 9 9 9 8 3 3 6
24 24 23 21 20 16 12 7 8 6 2 1 -6 -5 -3 -5 -7 -6 -3 1 0 4 5 8 10 11 13 14 10 14 11 8 13 8 6 11 6 1 1 6 10 7 5 3
15 15 13 11 7 4 5 3 4 0 -2 -4 -0 -3 -2 -3 -4 -6 1 7 5 6 11 11 10 9 12 8 11 1 2 -0 1 1 -1 -3 1 6 0 -5 -5 -4 -5 -2
12 11 8 7 7 3 -1 0 2 -2 -2 -3 -7 -8 -6 2 -2 2 0 7 10 5 11 9 9 2 6 3 8 -2 4 3 0 -0 -4 -6 -7 -7 -6 -7 -7 -7 -3 -2
10 9 9 7 9 7 2 2 -1 -0 -1 -2 -1 1 4 9 10 7 6 13 13 7 12 6 2 1 -1 -6 -2 -5 -6 -5 -3 -4 -5 -10 -6 -6 -9 -8 -9 -9 -10 -9
10 10 7 5 7 10 10 8 9 12 5 8 7 3 11 6 6 14 12 8 6 3 -0 -1 0 4 -0 -7 -7 -5 -6 -8 -5 -8 -7 -7 -9 -8 -6 -3 -0 -6 -10 -8
12 11 11 11 14 14 17 18 17 18 18 18 19 20 16 17 11 12 7 7 6 6 4 0 1 2 -4 -7 -8 -7 -5 -8 -8 -8 -6 -10 -8 -10 -11 -7 -2 -2 -3 -9
18 18 18 20 19 20 21 21 17 17 18 13 11 6 9 12 14 13 8 5 7 7 5 8 6 -1 2 5 3 1 -3 -3 -4 -3 0 1 -7 -8 -9 -7 -7 -7 -2 -5
21 19 20 19 20 19 17 16 11 9 5 3 5 3 5 2 4 7 7 7 9 9 10 9 8 10 11 11 10 10 6 3 -3 -1 -4 -7 -10 -9 -11 -7 -9 -9 -8 -5

GFSNGP_sfc_temp_105.txt.gz
Temp
30 32 32 30 31 32 31 33 26 25 24 25 26 26 26 29 30 29 29 29 29 29 31 32 32 33 34 36 38 40 41 41 42 48 57 58 57 57 57 56 57 57 56 56
26 33 31 27 28 30 29 30 29 27 23 29 30 29 27 26 27 26 26 27 28 29 30 31 31 31 33 33 35 37 36 38 40 42 44 45 52 56 53 51 51 50 49 49
26 31 30 20 25 26 27 28 30 25 25 28 25 25 24 24 25 24 25 26 26 27 28 30 30 31 30 32 34 34 34 36 37 38 38 38 40 41 42 42 41 40 41 41
27 29 17 26 31 30 26 27 28 28 27 26 24 24 25 26 24 24 25 25 26 27 28 29 31 31 31 32 31 31 31 32 34 36 35 35 35 35 35 36 36 36 36 37
27 24 26 29 28 27 27 23 27 26 27 27 27 29 24 26 26 25 25 25 25 27 27 29 30 30 30 28 29 29 29 29 30 33 34 33 32 32 32 33 33 33 34 34
28 24 19 24 28 34 34 16 27 26 25 25 28 20 18 25 25 25 25 25 25 25 27 27 28 31 27 25 25 25 27 28 29 30 31 31 31 31 32 32 31 32 32 33
27 24 24 25 29 36 19 19 26 26 23 21 18 20 23 25 24 25 24 24 24 25 24 25 28 29 28 26 24 25 26 27 28 29 29 29 30 31 31 31 31 31 31 31
25 23 19 27 30 25 26 28 26 24 22 19 19 20 23 23 22 22 21 22 22 21 22 24 26 27 25 26 27 26 25 25 25 27 28 28 28 28 29 29 29 30 30 30
23 20 26 28 26 29 30 27 25 24 24 22 20 20 21 21 22 21 20 20 21 20 20 22 24 25 24 25 28 26 25 23 24 25 27 27 27 27 27 28 28 28 29 29
23 24 26 26 27 28 27 25 26 26 25 23 20 20 20 20 19 19 18 18 20 20 19 19 21 23 24 25 25 27 26 24 24 24 24 26 27 27 27 27 27 27 27 27
23 24 26 26 26 26 27 27 26 25 24 23 23 20 19 15 16 16 16 18 19 19 19 19 21 21 22 25 26 25 26 26 25 25 23 23 24 25 26 27 28 27 27 27
21 25 25 22 27 28 25 24 26 25 24 24 23 20 21 19 20 19 19 20 19 20 20 20 20 20 22 25 26 25 25 25 24 24 23 23 23 23 27 27 28 29 29 29
25 27 26 26 27 28 25 25 26 24 24 22 22 22 22 20 21 22 20 19 18 18 19 19 20 19 20 23 26 25 22 24 23 23 21 20 19 18 17 22 26 27 27 28
29 28 24 26 23 27 27 27 27 25 24 24 22 22 21 19 19 18 17 19 19 17 17 17 17 15 18 20 22 20 20 18 19 20 18 16 14 14 15 15 15 16 22 23
28 30 27 27 27 26 27 25 23 22 22 21 22 20 19 15 13 12 13 18 17 15 13 13 14 13 16 20 21 18 20 17 15 14 15 14 13 13 13 13 13 14 15 17
29 29 28 27 26 25 25 24 22 20 21 20 19 18 17 16 14 14 13 13 11 7 10 7 11 10 14 15 16 15 12 15 13 12 11 10 10 10 11 11 12 11 11 11
26 25 27 25 25 24 24 23 22 21 20 18 17 18 18 16 14 13 10 11 8 5 7 5 2 5 8 9 11 11 9 12 11 12 11 11 10 10 10 8 8 9 8 5
31 30 30 29 25 23 22 22 20 18 14 14 9 5 3 4 3 2 1 1 2 3 1 -1 2 6 8 10 12 14 12 13 14 13 12 9 11 11 7 6 7 6 3 4
30 28 27 26 25 23 20 18 14 12 7 4 3 -1 -5 -7 -5 -6 -10 -6 -5 -3 2 2 14 9 10 12 13 12 11 9 11 12 13 8 6 9 4 0 -1 -3 -1 2
25 25 24 22 20 16 12 5 7 6 -1 1 -5 -6 -3 -5 -9 -8 -6 -1 -0 3 4 7 9 10 12 12 8 11 8 5 10 7 7 6 -2 -4 4 7 7 1 -6 -6
17 16 14 11 5 3 4 1 4 -0 -4 -6 -3 -5 -4 -5 -6 -9 -1 6 6 5 10 10 9 8 10 7 9 -2 -2 -4 -4 -4 -7 -8 -5 3 -2 -3 -1 -1 -1 -1
11 10 6 5 7 1 -4 -2 1 -3 -4 -5 -9 -10 -7 0 -4 -2 0 7 10 5 9 8 8 3 5 1 7 -4 1 1 -0 -3 -5 -9 -10 -11 -11 -13 -11 -8 -7 -6
10 9 8 6 7 5 0 -2 -4 -2 -3 -5 -4 -2 2 8 9 6 6 13 11 7 10 7 3 -0 -2 -7 -6 -7 -8 -7 -6 -7 -9 -13 -11 -7 -11 -11 -11 -13 -13 -11
8 9 5 4 6 9 8 5 7 9 2 5 6 3 9 6 7 14 12 8 5 4 0 -1 -2 2 -1 -8 -9 -9 -9 -10 -10 -8 1 -9 -14 -14 -13 -12 -8 -9 -13 -10
11 10 8 8 12 12 16 16 15 16 16 17 18 19 17 16 11 11 8 8 7 5 4 2 1 2 -0 -2 -7 -6 -4 -6 -6 -12 -8 -10 -9 -12 -13 -14 -10 -1 -5 -10
16 16 15 18 18 17 18 19 14 14 14 10 10 6 6 7 14 14 13 11 9 9 8 9 5 5 2 6 5 6 4 4 2 -2 -5 -2 -5 -7 -10 -8 -10 -7 -4 -5
19 18 18 17 17 17 15 15 10 9 7 8 7 5 4 -1 0 5 5 2 2 -1 -1 -1 4 6 7 2 3 4 2 3 4 6 4 4 -2 -5 -6 -7 -7 -7 -10 -9

GFSNGP_sfc_temp_111.txt.gz
Temp
29 33 33 29 28 28 24 31 28 23 22 23 25 25 25 27 28 27 27 26 26 26 27 29 29 30 31 31 33 33 36 37 38 40 41 43 43 45 47 46 46 48 52 50
23 33 31 25 27 27 25 27 25 24 22 28 28 28 26 25 25 25 25 25 26 27 27 28 29 28 29 30 31 33 33 34 36 38 38 37 38 39 40 40 40 40 40 40
24 29 28 23 25 25 25 27 28 25 26 28 25 25 23 24 25 24 24 24 25 25 27 27 28 29 27 28 30 31 30 31 32 34 34 33 36 36 35 34 36 34 36 36
26 26 19 25 30 30 26 26 29 28 28 27 25 25 25 25 24 23 23 24 25 26 26 27 30 30 31 31 29 28 29 30 30 31 32 32 33 32 32 33 32 33 33 34
25 24 24 26 28 27 26 23 27 27 29 28 27 29 24 26 25 23 23 24 23 25 26 27 29 30 31 29 29 28 27 28 30 30 30 31 31 32 32 32 32 32 33 32
28 23 20 26 29 32 32 22 27 28 27 29 30 24 21 24 24 23 23 23 22 24 25 25 26 29 27 27 27 25 26 27 29 31 30 30 31 31 32 32 31 32 31 31
28 25 24 27 29 33 22 22 26 26 25 26 22 23 23 24 22 23 22 21 21 22 22 23 25 27 25 26 25 26 27 27 27 29 29 30 31 32 32 32 32 31 30 31
26 24 20 28 30 26 26 27 26 24 22 20 21 21 21 21 20 20 19 20 20 19 20 22 23 25 24 24 27 27 27 26 26 27 28 29 30 31 31 31 31 31 31 31
23 22 26 28 27 30 31 27 25 25 23 21 20 19 20 19 21 20 19 20 21 19 19 20 21 23 22 24 26 25 25 24 24 26 27 28 28 28 29 29 29 28 29 28
25 25 25 26 28 29 29 26 27 26 25 23 19 18 17 19 20 20 20 20 22 21 19 18 20 21 22 24 24 24 23 23 24 23 24 26 28 28 28 27 27 27 26 27
23 25 26 26 27 27 26 26 25 25 24 22 21 19 19 18 19 20 20 20 21 21 20 20 22 22 23 25 25 25 24 23 23 24 23 24 24 26 26 26 26 26 26 26
24 27 27 25 27 28 25 24 25 25 23 24 24 21 23 22 22 23 22 23 23 23 22 23 24 23 25 27 27 25 24 24 23 24 24 24 24 24 25 25 26 26 27 27
26 29 27 27 27 28 26 26 27 26 25 23 25 25 24 23 23 22 22 22 20 20 21 22 22 22 23 26 27 24 23 24 24 24 23 22 22 22 20 23 23 23 23 25
30 29 25 27 25 28 28 28 28 27 26 25 24 24 23 21 21 20 18 21 20 20 19 20 20 18 19 24 22 22 22 18 22 22 21 21 20 20 20 18 17 18 21 20
29 31 31 29 29 27 28 27 25 23 23 22 23 21 20 17 15 14 16 18 18 17 15 17 16 16 19 23 22 20 23 22 21 21 20 19 20 20 19 18 17 17 18 19
29 28 28 27 26 26 26 26 24 23 23 22 21 19 18 17 16 16 16 16 15 12 12 9 14 13 17 18 20 21 20 17 18 21 20 20 20 19 18 18 17 16 15 15
26 24 27 25 25 25 25 27 26 24 22 21 20 19 18 17 15 14 13 14 11 10 11 11 10 11 13 14 18 20 21 20 16 20 20 20 19 18 18 18 17 16 15 12
33 32 32 29 27 25 25 25 24 23 20 19 15 12 10 11 12 10 9 7 10 10 11 9 11 13 14 16 18 20 19 20 20 18 19 18 18 18 17 17 16 16 16 15
33 31 30 29 28 26 24 22 20 17 13 10 10 9 9 7 8 8 5 7 9 13 13 11 16 15 16 17 18 19 18 18 18 18 17 15 16 16 16 16 16 15 14 14
30 30 29 26 25 22 17 14 12 10 7 8 5 5 8 5 4 6 7 13 15 17 13 15 16 17 16 16 13 19 17 16 16 16 15 15 14 14 14 13 13 14 14 14
24 23 20 17 14 13 12 10 9 7 3 5 9 9 10 9 5 4 11 19 17 13 16 14 17 18 19 15 18 17 16 16 16 15 13 13 12 13 13 13 13 13 13 13
21 19 15 13 12 8 7 9 9 6 5 4 2 4 6 10 7 9 10 18 20 11 17 20 19 14 16 8 18 16 16 16 16 15 15 14 14 13 13 13 12 12 12 12
17 16 13 12 12 10 6 8 7 8 7 7 7 9 12 20 20 19 19 19 20 17 19 20 13 9 7 14 15 14 13 13 13 13 13 13 13 12 12 12 13 12 12 12
14 14 12 10 10 11 12 10 11 12 9 11 11 10 15 18 19 20 22 15 9 12 17 16 14 11 7 14 14 14 13 14 13 12 13 9 12 12 11 11 11 13 12 10
15 13 11 12 15 18 18 16 17 17 17 19 20 20 16 19 19 21 20 19 15 16 19 10 9 9 15 15 14 14 14 14 14 14 14 13 12 11 12 12 10 11 12 12
17 18 18 19 21 21 21 21 20 20 20 20 19 18 17 17 19 18 18 13 16 13 16 14 12 12 13 13 12 12 13 14 13 13 12 12 12 12 12 12 12 11 11 12
20 19 20 20 22 22 22 22 21 20 18 19 20 16 17 17 15 15 10 14 13 12 11 11 11 8 8 8 10 10 11 12 10 10 10 10 10 11 11 11 11 11 11 10

GFSNGP_sfc_temp_114.txt.gz
Temp
33 38 39 34 33 35 28 31 26 28 26 25 26 27 29 30 32 31 30 30 29 28 28 29 29 29 30 30 31 32 35 35 37 39 40 40 41 42 44 44 45 46 43 42
29 38 36 29 29 32 28 28 27 27 24 29 32 31 30 29 28 28 28 28 29 29 29 29 30 30 30 29 30 32 31 32 35 35 36 37 36 38 38 39 38 38 38 38
27 33 31 25 26 27 27 30 29 30 28 31 30 29 26 28 28 27 27 27 27 28 28 30 30 31 31 31 31 30 30 30 31 32 32 33 34 33 33 34 35 35 35 35
30 29 22 26 32 33 30 29 32 31 32 32 29 28 28 28 27 27 27 27 28 29 29 29 33 33 36 36 34 30 29 30 31 31 31 32 32 32 32 32 31 33 32 32
28 30 28 29 31 31 28 26 33 33 33 33 32 34 28 29 28 26 25 26 26 28 28 29 31 32 34 33 34 31 30 29 31 31 31 31 31 31 31 31 31 31 31 31
33 28 24 31 34 37 37 26 32 34 34 33 34 31 26 27 27 26 26 26 25 26 28 26 28 32 29 29 29 28 29 29 32 33 32 31 31 32 32 32 32 31 30 31
32 31 31 32 34 38 25 25 32 35 34 34 30 30 26 27 26 27 26 25 26 25 23 24 27 29 27 26 25 27 29 30 30 31 31 32 33 32 32 32 32 32 32 32
33 30 26 33 34 29 29 32 31 31 29 27 26 26 25 25 25 25 25 25 25 23 22 24 26 26 25 23 26 28 28 28 29 29 30 31 31 32 31 32 32 32 33 34
29 28 30 32 31 36 36 32 32 31 29 27 26 25 26 26 26 26 26 26 27 24 23 24 26 26 24 25 27 27 27 27 28 29 29 30 29 29 30 31 30 30 31 31
30 28 29 31 33 36 36 32 33 32 29 29 24 25 24 26 27 27 27 26 28 28 25 23 26 27 27 27 29 28 27 28 29 28 29 29 30 30 27 27 27 26 27 27
26 28 30 30 31 31 31 31 30 30 29 27 26 25 25 25 26 27 27 27 28 27 27 26 28 28 29 29 30 30 29 29 29 30 29 29 27 26 27 26 26 26 26 27
31 32 33 29 30 32 29 29 30 29 28 29 29 27 30 29 31 31 30 31 31 30 30 30 30 29 32 32 31 30 30 30 29 30 30 30 30 29 27 26 25 25 26 26
31 35 34 31 31 34 31 31 32 32 32 31 33 34 33 31 30 28 30 29 28 28 29 29 28 27 30 31 31 30 27 29 31 30 30 28 28 27 26 28 27 25 24 23
36 34 27 30 29 33 33 33 34 34 35 34 33 33 32 30 29 28 26 27 27 27 26 26 25 23 26 28 27 26 28 26 29 28 28 28 27 26 26 25 23 24 25 24
35 37 35 36 34 33 35 35 32 31 31 30 31 29 28 24 22 20 22 24 24 24 22 23 22 21 25 27 27 25 26 26 27 28 27 26 27 26 26 25 24 24 24 24
34 37 36 33 32 33 33 33 32 30 30 29 28 26 25 24 23 23 22 22 22 19 18 17 19 19 22 23 26 27 27 22 25 27 26 26 26 26 25 25 24 24 22 19
31 29 32 31 31 32 33 34 33 31 30 29 27 26 25 23 22 20 19 20 17 16 18 18 17 17 18 20 24 26 27 26 23 26 25 25 25 24 24 24 23 23 22 18
38 37 37 35 33 32 32 32 31 30 28 26 22 19 17 20 19 17 16 16 15 16 18 17 18 19 19 21 23 26 26 25 25 24 24 23 22 24 23 22 22 21 21 21
38 36 36 35 34 33 31 29 28 26 21 18 17 17 18 17 18 17 16 15 16 20 18 19 19 21 22 20 23 26 25 24 24 24 23 21 22 22 22 21 20 20 20 20
35 35 35 33 33 30 27 23 20 19 18 18 15 15 16 14 15 15 16 20 21 23 21 21 21 23 22 22 20 26 24 23 23 23 21 21 20 20 20 19 19 19 18 18
31 30 28 25 23 23 21 19 17 15 15 16 18 17 18 17 15 15 17 25 22 20 22 20 23 26 27 22 25 24 24 22 22 22 21 20 20 20 20 19 19 18 18 18
28 25 23 20 20 18 18 19 18 14 15 15 15 15 17 19 16 17 17 22 28 19 24 27 27 21 23 16 25 23 23 22 22 21 21 20 19 19 19 19 18 18 18 18
27 25 22 20 19 19 18 17 16 16 15 15 15 18 23 27 28 25 25 26 27 24 26 27 20 17 16 21 23 22 21 21 20 20 19 19 19 18 18 18 18 18 17 17
23 23 22 20 17 18 18 17 19 19 19 19 19 19 24 25 26 29 30 22 19 20 24 22 20 17 13 22 21 21 20 20 19 19 19 18 18 18 18 17 17 18 18 17
23 20 19 18 22 24 24 22 23 23 23 26 26 25 23 27 25 27 27 26 19 21 24 15 15 17 21 20 19 18 18 18 18 17 17 16 16 16 16 16 16 16 16 17
23 25 26 27 30 30 28 27 28 28 28 27 27 27 26 27 27 26 26 21 23 21 22 21 18 18 19 18 17 17 16 17 16 15 14 14 14 14 14 14 14 15 15 16
27 27 27 28 30 30 30 30 29 27 27 28 27 26 26 25 24 25 20 23 22 21 20 19 18 15 14 14 15 14 14 14 12 11 11 11 11 11 10 11 11 12 12 13

GFSNGP_sfc_temp_117.txt.gz
Temp
37 41 42 39 38 40 33 37 29 32 29 28 29 30 30 31 31 31 31 31 31 31 31 33 33 33 33 31 31 31 32 33 35 37 38 38 38 38 39 40 40 42 44 43
30 41 40 35 37 38 34 33 29 30 27 31 33 33 31 29 29 28 29 28 29 31 32 31 32 33 34 32 31 32 32 31 33 34 35 36 35 35 36 36 36 36 38 38
29 39 35 29 30 32 31 32 33 29 30 33 30 30 27 29 29 27 28 28 29 30 30 31 33 35 35 34 33 31 31 31 32 32 32 32 33 33 32 32 34 33 33 34
31 33 24 28 36 36 32 33 36 34 33 34 32 30 29 30 28 28 27 28 28 29 30 31 35 35 37 38 36 32 32 31 32 32 32 32 32 32 31 31 31 31 31 32
29 32 31 30 32 33 30 29 37 35 35 35 35 35 29 30 30 27 27 28 27 29 31 31 32 34 34 34 34 32 30 31 32 32 31 31 31 31 32 32 31 31 31 31
34 29 26 34 40 44 42 27 39 40 37 36 37 31 27 29 30 29 27 27 26 27 29 27 28 32 28 28 29 28 30 31 33 34 32 32 32 32 32 32 32 32 31 32
32 31 32 40 41 42 27 27 39 41 40 37 33 29 28 30 29 30 28 26 27 26 25 26 27 29 26 26 25 29 30 32 31 32 31 32 32 33 33 33 33 33 32 31
35 31 27 38 39 31 33 38 39 37 32 29 28 27 27 27 27 28 28 28 27 25 25 27 28 27 26 25 28 29 30 30 31 30 31 31 29 31 31 31 31 31 32 32
33 30 33 36 36 40 41 37 36 34 33 30 28 28 29 29 30 29 28 29 30 26 26 27 29 28 26 27 30 29 30 29 30 31 29 30 29 26 27 29 29 29 29 30
33 31 32 34 38 41 40 36 37 36 34 32 28 29 28 30 31 31 31 30 32 31 28 26 29 30 30 30 31 31 30 31 31 30 31 29 30 29 25 24 25 25 26 24
30 31 33 33 35 35 35 35 34 34 34 31 31 29 29 29 30 31 31 32 32 31 31 30 31 31 31 32 32 32 32 31 32 33 31 32 27 27 27 25 25 24 24 26
31 35 36 31 33 35 33 32 33 33 32 34 33 32 34 35 37 37 36 36 36 35 34 34 33 32 34 34 34 32 32 33 32 33 33 33 32 31 29 28 27 26 26 25
34 40 36 33 34 37 35 35 36 36 36 34 38 39 39 36 35 33 35 35 34 33 33 32 31 29 32 33 33 32 31 32 33 32 32 31 30 30 28 31 31 28 26 26
40 36 30 33 31 36 37 38 38 39 40 40 39 39 37 35 35 34 31 32 33 31 31 30 27 25 28 31 30 28 29 29 31 31 30 30 30 29 29 27 26 27 28 26
38 42 38 39 38 37 39 39 37 36 37 36 38 35 35 31 27 25 26 29 28 27 26 26 24 23 27 30 31 29 28 28 29 30 29 29 29 29 29 28 27 27 28 25
39 41 40 37 37 37 38 38 36 36 36 35 34 33 31 30 28 28 27 26 26 22 22 19 21 21 24 25 29 30 29 26 28 29 28 28 28 28 27 27 27 26 26 22
37 34 36 35 36 37 37 39 38 36 35 34 32 31 30 27 25 24 23 23 20 20 22 20 20 20 21 22 26 29 29 29 27 28 28 27 26 26 26 26 25 25 25 23
42 41 40 39 37 37 37 38 37 36 33 32 27 24 22 23 23 21 20 20 20 19 21 20 21 23 22 23 25 29 29 28 28 27 27 25 26 26 26 24 24 23 23 24
42 40 40 39 39 38 37 36 34 32 26 23 20 20 21 20 21 20 20 19 19 23 20 22 22 24 25 23 24 29 28 27 27 28 26 25 25 24 24 23 23 22 22 21
39 40 39 38 38 35 32 29 25 23 22 22 21 19 19 18 19 19 20 23 23 24 24 24 24 26 26 27 26 29 27 26 26 26 25 24 23 22 23 22 22 21 20 20
34 34 33 31 30 29 25 24 23 20 21 20 21 20 21 20 19 20 21 29 24 24 25 24 26 28 30 26 26 27 26 24 24 24 23 22 22 22 22 21 21 21 20 20
31 29 27 26 24 23 23 23 22 20 20 21 21 21 20 20 19 21 22 24 30 24 27 29 30 24 25 21 27 25 25 24 24 23 22 22 21 21 21 21 20 20 21 20
30 28 26 24 23 23 23 22 20 21 19 19 19 21 26 30 30 29 28 27 31 26 28 28 24 23 22 23 25 24 23 22 22 22 21 21 20 20 20 20 20 20 19 19
29 28 26 26 22 22 21 21 23 22 22 23 23 24 28 28 29 33 33 27 24 24 26 24 23 21 19 24 23 22 21 21 20 19 19 18 19 19 19 18 18 19 18 18
27 27 24 22 25 27 26 26 27 26 26 29 28 27 28 32 29 29 29 28 24 24 26 21 20 20 23 22 21 19 19 19 18 18 17 16 16 16 16 16 16 15 16 16
26 27 27 29 32 31 29 29 29 29 30 29 29 30 29 29 29 29 28 25 26 24 25 23 21 19 20 19 18 18 17 17 16 15 14 13 13 13 13 12 12 12 12 13
30 30 30 31 33 33 31 32 31 30 31 31 30 29 28 27 26 27 24 25 25 24 24 22 20 18 17 16 16 16 15 15 13 12 12 11 10 10 9 9 9 9 10 10

GFSNGP_sfc_temp_120.txt.gz
Temp
37 40 41 39 38 41 36 39 31 32 30 29 30 30 30 32 31 30 29 28 28 29 29 31 32 32 33 32 32 32 32 32 32 33 35 36 36 37 37 36 35 37 38 40
29 39 39 35 38 40 37 37 34 32 32 33 33 31 30 29 28 27 27 27 28 29 30 30 32 31 33 32 31 32 31 31 32 32 33 34 34 34 34 34 34 36 35 35
27 40 38 30 34 36 38 39 38 31 32 32 29 28 27 27 27 26 27 27 27 29 29 30 32 32 33 34 33 31 31 31 31 32 32 32 33 33 32 32 33 33 33 34
29 34 23 31 39 41 37 36 36 33 32 33 30 29 28 29 27 27 27 27 26 27 28 29 32 31 34 34 32 32 31 31 31 31 30 31 32 32 32 32 31 31 30 31
28 31 32 32 35 35 31 30 39 35 33 33 31 30 26 31 29 26 25 26 25 27 28 27 29 30 30 30 30 30 30 30 31 30 30 30 30 31 31 32 31 30 30 29
32 26 24 33 41 45 42 27 39 38 35 33 32 26 24 29 29 27 26 26 25 25 27 25 26 29 26 26 27 27 28 29 30 31 28 28 29 29 32 32 31 31 29 29
30 27 31 42 43 46 27 28 40 41 39 36 32 29 28 30 29 29 27 25 26 24 23 25 26 26 25 25 25 28 29 30 28 29 29 27 27 28 29 29 29 29 29 29
32 28 27 43 41 32 34 41 40 36 33 27 27 27 26 27 27 28 27 26 25 23 23 25 26 25 24 24 27 28 29 29 29 27 27 27 24 25 26 26 27 25 25 26
29 29 35 38 37 41 43 38 36 33 31 29 26 25 27 28 29 28 27 27 28 22 22 24 26 26 24 25 26 27 28 28 28 28 27 26 23 22 22 23 22 23 23 21
33 33 34 36 41 42 40 36 37 35 33 31 27 28 27 30 30 30 31 30 32 29 23 22 25 27 27 28 29 27 28 28 29 28 25 25 26 23 21 20 20 20 20 19
30 33 34 35 36 36 36 36 35 35 34 31 30 29 29 28 29 30 30 31 32 30 29 28 29 28 28 29 30 30 29 28 29 30 29 26 24 24 23 23 24 20 20 20
32 36 36 32 34 36 33 33 34 34 33 34 33 31 33 33 36 36 34 36 34 33 31 31 30 29 31 31 31 30 29 30 29 29 29 29 28 27 31 29 28 28 27 25
36 40 37 34 35 37 34 35 36 36 36 33 36 37 38 36 34 34 35 34 32 31 30 29 27 26 29 31 30 29 28 29 29 28 28 27 27 26 24 28 32 28 27 27
39 36 31 33 31 36 37 38 39 38 38 38 39 39 36 33 34 32 30 31 31 30 28 27 24 22 25 29 29 26 26 25 28 27 26 26 25 25 25 23 22 23 27 25
38 42 37 38 38 37 39 38 36 36 37 36 37 34 34 30 25 24 26 29 28 25 23 23 21 20 25 27 30 28 26 25 25 26 25 24 25 25 24 23 22 22 23 20
40 39 38 35 36 37 37 38 36 35 35 35 33 32 30 29 28 27 26 25 24 20 20 16 18 18 22 23 23 27 26 22 22 25 24 23 23 23 23 22 21 21 20 18
37 34 35 34 35 36 37 39 38 36 35 34 32 31 29 26 24 22 21 21 19 19 20 18 16 15 16 19 20 26 26 26 21 25 24 23 23 22 22 21 20 20 19 18
43 41 40 39 37 36 37 38 37 36 34 31 25 21 19 19 20 18 17 17 16 15 17 16 16 18 17 19 21 27 26 26 26 25 25 22 22 23 21 20 20 19 18 19
43 40 38 38 39 38 38 36 34 29 23 21 20 19 19 18 18 17 18 14 14 18 17 18 23 22 23 21 23 26 25 24 24 25 24 20 21 21 20 20 19 18 18 18
40 39 36 36 38 35 28 25 24 22 21 21 20 18 18 16 16 15 17 20 20 21 22 23 23 27 26 25 20 25 25 23 23 22 21 21 20 20 20 19 19 19 18 18
34 34 33 31 27 26 26 25 22 20 20 19 19 18 18 18 16 16 18 23 21 21 25 21 25 27 27 21 23 24 23 22 21 20 20 19 19 19 18 18 18 17 17 17
31 28 27 26 24 23 23 23 22 20 19 20 19 19 17 17 16 18 19 24 26 18 25 28 25 18 21 16 24 23 22 21 20 20 18 18 17 16 16 16 16 16 16 16
29 28 26 25 23 23 23 21 20 20 20 19 19 20 22 24 26 26 24 26 28 23 27 23 18 16 14 21 22 21 20 18 18 18 17 16 16 15 14 14 14 14 14 14
29 27 25 25 23 22 19 20 22 21 20 20 20 20 27 27 27 30 27 23 19 22 24 20 17 15 11 21 20 19 18 17 16 15 15 13 13 12 12 12 11 11 11 11
28 27 25 22 23 24 24 24 24 24 24 26 26 26 28 31 27 27 27 23 21 21 21 17 16 14 19 18 17 16 15 15 14 13 12 11 11 10 10 10 8 8 8 8
27 27 26 28 29 29 28 28 26 27 27 26 26 27 28 28 27 26 25 22 24 21 22 22 19 17 17 15 14 14 13 13 12 10 8 9 8 7 6 6 5 5 5 5
28 28 29 30 32 30 29 29 27 26 28 28 27 28 27 27 25 26 23 24 23 22 21 20 19 16 15 13 13 12 12 11 8 6 7 6 5 4 3 2 2 2 3 3

GFSNGP_sfc_temp_123.txt.gz
Temp
31 37 37 34 33 36 29 33 24 23 25 27 31 30 29 30 30 29 27 26 26 26 26 27 28 29 31 30 30 31 31 30 31 32 34 34 34 34 35 35 35 36 35 35
19 35 35 30 33 34 31 32 26 26 25 32 32 31 28 27 27 26 25 26 26 27 27 27 28 27 29 30 29 30 29 28 30 31 32 32 33 32 32 32 32 32 33 33
19 34 35 24 28 30 33 36 35 28 29 31 28 27 26 26 26 24 25 25 25 25 25 25 26 28 27 28 30 29 28 29 28 29 29 30 32 32 30 30 30 30 30 31
22 26 18 26 37 37 33 36 33 30 30 31 28 27 27 27 26 25 25 24 24 24 25 25 27 27 28 29 29 28 27 27 28 26 27 28 29 29 30 29 28 28 28 29
20 22 28 30 33 33 30 31 36 32 32 29 28 28 25 28 26 24 23 23 23 24 25 25 25 27 26 27 28 28 27 26 28 26 25 25 26 27 27 28 27 26 26 27
26 23 21 28 39 43 40 24 38 34 30 28 28 24 22 27 26 24 23 22 21 22 25 24 24 26 22 23 25 25 26 26 27 27 25 23 24 24 26 25 25 25 24 25
25 24 28 37 41 44 24 25 37 35 32 29 26 26 25 27 25 25 21 20 21 20 19 19 21 21 21 20 22 22 25 27 26 26 25 24 24 24 24 25 24 23 23 23
27 25 23 39 39 30 31 34 36 36 33 28 24 24 23 23 22 24 22 20 18 16 17 20 20 19 20 21 20 21 21 22 24 24 24 23 22 22 22 22 21 21 21 22
28 24 31 34 31 36 36 31 30 30 29 26 22 22 23 24 25 24 21 20 19 16 14 18 20 21 22 22 20 21 23 21 19 22 22 22 20 20 21 20 19 19 19 19
27 27 31 34 36 36 35 32 31 30 28 27 23 24 23 25 26 25 24 22 23 20 17 18 17 21 21 24 24 20 22 21 22 18 20 19 20 21 20 19 19 19 18 19
27 29 31 34 34 33 33 33 31 31 29 27 27 25 24 23 23 23 23 22 23 23 23 21 23 20 21 24 25 25 22 23 22 25 21 18 21 20 21 23 23 20 19 20
22 30 29 28 32 34 32 31 32 30 28 29 29 27 27 26 27 28 26 28 27 25 24 23 23 23 25 27 26 24 25 25 23 24 23 24 22 22 29 28 28 28 28 25
29 34 31 31 32 35 33 33 34 32 31 29 31 31 31 28 28 31 29 27 25 24 23 22 21 21 22 25 26 25 23 25 24 24 23 22 22 21 17 19 28 27 26 27
33 32 29 31 28 33 35 36 37 35 34 33 33 32 29 28 28 26 24 24 24 23 22 21 19 17 21 23 24 21 21 19 19 20 17 18 16 17 17 17 15 13 22 24
33 36 32 34 34 33 37 36 33 31 32 31 30 29 28 24 21 20 22 25 23 20 19 17 17 14 20 23 23 22 23 17 15 14 14 14 14 14 14 13 12 10 10 16
35 34 34 31 32 32 35 35 32 30 31 30 28 26 25 23 22 21 21 22 18 14 14 7 15 12 17 18 18 18 14 16 13 12 13 13 13 14 14 13 11 10 11 9
32 29 31 31 30 31 33 35 34 32 31 29 27 26 25 21 19 16 14 17 14 12 13 10 7 6 8 8 10 15 12 16 14 15 13 13 12 11 13 12 10 10 8 4
37 35 35 35 32 31 32 34 33 32 30 28 23 21 18 16 14 12 11 11 7 3 4 6 6 8 8 9 13 19 16 18 19 16 17 13 14 17 13 12 12 10 8 9
39 35 35 35 33 32 33 33 29 26 23 21 20 15 12 12 9 5 3 3 2 4 5 6 16 15 14 15 17 17 16 13 15 16 15 13 11 13 10 10 11 7 7 12
33 32 33 32 32 29 25 24 23 21 19 18 15 12 9 6 7 4 6 12 12 12 13 16 17 19 19 19 14 18 14 10 15 11 8 10 6 6 6 9 10 9 6 4
29 30 29 26 24 24 24 23 22 20 19 18 16 13 11 10 10 9 10 15 12 13 20 17 18 18 19 14 16 8 9 7 6 6 4 4 1 3 4 3 2 3 10 10
27 25 24 24 23 22 22 22 21 19 18 17 14 13 13 11 10 12 15 18 19 13 19 21 19 11 13 9 16 12 10 10 8 8 6 3 3 6 4 -1 0 7 9 8
26 25 24 24 22 21 20 20 19 19 18 17 16 15 16 18 19 17 15 21 21 14 20 14 10 7 6 5 7 5 5 4 3 -0 -1 -3 -1 -4 -4 3 5 6 2 3
24 23 22 22 21 19 17 17 19 18 16 17 16 17 21 18 17 24 22 18 13 11 16 10 8 8 9 12 6 2 -1 -3 -2 -1 0 -3 -8 -8 -3 -1 2 -1 -6 -1
24 22 21 19 20 19 20 22 21 21 21 22 23 24 24 25 22 20 19 16 16 15 14 10 8 6 5 -1 -2 -1 -4 -1 2 -5 -9 -9 -5 -6 -10 -3 -8 -8 -8 -6
24 23 23 25 24 23 22 23 20 21 22 18 18 15 16 21 21 21 19 16 17 17 16 11 1 4 2 -2 -1 -2 -1 1 -3 -7 -10 -5 -7 -10 -8 -10 -14 -13 -13 -10
26 25 25 26 27 25 24 24 21 20 19 20 19 18 21 20 19 20 17 18 16 14 12 9 6 5 0 -0 -1 -2 -3 -4 -8 -8 -11 -10 -15 -15 -15 -17 -15 -12 -6 -7

GFSNGP_sfc_temp_126.txt.gz
Temp
30 34 35 31 31 33 26 32 24 22 25 25 30 29 31 27 28 27 26 25 25 24 25 26 27 27 28 29 28 27 27 27 26 28 31 32 32 31 31 31 32 34 34 35
15 34 32 27 32 32 31 31 25 23 26 29 29 29 27 27 26 25 25 25 25 25 25 25 26 26 28 28 28 28 26 26 26 27 28 29 30 30 29 29 29 29 31 32
16 32 31 24 27 28 27 32 33 26 30 28 27 28 26 26 26 24 24 24 24 24 24 24 25 27 26 27 28 27 25 26 25 25 25 27 27 28 27 26 26 27 27 29
22 24 16 28 35 35 32 33 32 29 29 31 29 26 26 27 25 25 24 24 24 24 24 24 26 27 28 28 28 27 26 25 25 23 22 24 25 24 25 24 24 24 26 27
19 22 27 30 33 31 29 29 33 29 29 27 26 26 23 27 26 23 22 23 22 23 25 24 24 26 26 26 27 27 25 25 25 24 22 21 21 22 23 23 22 22 24 26
23 21 18 28 36 40 38 20 34 33 28 26 25 22 21 25 25 23 23 22 21 22 24 22 22 24 21 22 23 22 23 25 26 26 23 21 20 21 22 22 22 23 22 24
25 23 27 36 39 41 20 24 34 32 29 27 24 26 25 26 24 24 22 20 20 18 16 16 18 20 19 19 19 18 20 24 24 24 23 23 23 22 22 22 22 22 22 23
27 23 21 36 38 28 30 32 34 32 31 27 22 23 22 22 21 22 20 19 16 15 14 16 17 16 18 18 16 16 15 15 18 19 21 21 21 22 22 21 21 21 21 22
27 27 30 32 32 34 35 31 32 32 31 25 22 21 22 22 24 23 21 18 17 12 14 14 16 17 18 17 18 18 19 16 10 14 18 17 19 20 20 20 20 20 20 20
28 28 29 32 32 34 33 30 31 31 29 27 23 22 22 24 25 25 23 21 20 20 16 15 15 19 18 21 20 20 21 20 21 18 18 16 19 21 21 20 19 19 19 19
26 26 30 31 30 30 28 29 28 29 29 27 25 23 23 22 23 22 22 23 23 22 21 19 20 19 18 21 23 23 21 21 21 22 20 20 22 22 21 23 23 20 20 20
24 30 30 25 29 31 28 27 28 27 27 28 27 25 26 25 26 26 25 25 23 22 22 21 21 21 23 25 25 23 24 23 20 20 20 20 18 18 27 27 27 27 28 25
28 32 30 29 30 31 29 29 30 29 30 27 29 29 29 27 27 29 26 25 23 21 21 21 21 20 21 24 25 24 22 24 22 21 21 19 18 16 11 16 25 26 25 27
31 31 29 29 28 31 32 32 34 32 32 31 31 31 29 28 28 25 23 22 22 21 20 20 19 16 19 22 22 18 19 15 16 14 13 12 8 11 9 10 9 8 18 22
31 34 31 31 32 32 35 34 31 29 30 30 30 29 27 24 22 20 22 24 23 19 18 17 16 13 18 23 24 20 21 13 10 8 7 8 8 10 9 8 5 4 7 11
32 31 31 30 31 31 32 31 29 30 31 29 28 27 25 23 22 21 20 19 17 13 13 7 14 11 16 17 18 16 12 13 9 9 9 9 8 10 10 9 8 7 7 4
27 27 29 29 30 30 31 30 31 31 30 29 27 25 24 20 19 17 15 16 13 11 13 10 7 2 4 4 11 11 9 13 11 13 13 12 12 12 12 10 9 10 6 2
33 32 32 32 31 30 29 30 31 31 29 27 23 20 18 17 16 14 13 11 7 3 3 4 4 5 6 7 12 16 14 15 16 14 15 11 12 14 10 10 11 11 8 9
34 31 31 32 32 31 31 29 30 28 24 22 20 18 17 15 14 12 8 7 3 4 7 5 14 11 12 13 15 15 13 11 14 14 13 9 7 9 6 5 4 4 8 10
32 31 31 32 32 31 27 25 24 22 22 21 18 16 14 12 11 8 8 8 9 11 11 14 15 18 17 17 13 16 12 8 12 7 5 5 1 -3 -1 4 4 3 2 5
30 32 30 28 26 25 24 24 22 20 20 20 18 15 14 11 10 9 9 14 13 13 18 16 17 15 17 13 16 7 5 3 2 0 -2 -5 -6 -4 -4 -5 -3 -3 -1 1
28 25 24 25 24 23 23 23 22 20 19 18 16 14 13 11 9 10 10 16 19 15 19 18 17 11 11 11 12 5 7 6 4 2 -2 -5 -7 -9 -10 -9 -4 0 -3 -5
24 24 24 23 23 22 22 21 21 20 18 17 16 15 16 17 18 17 16 20 21 16 19 16 10 5 9 7 4 -0 -0 -0 -3 -7 -10 -12 -13 -14 -12 -9 -9 -10 -12 -9
23 23 22 22 21 20 18 18 20 20 20 19 18 18 19 17 17 23 22 19 17 16 13 9 9 9 4 2 0 -1 -2 -7 -10 -12 -9 -10 -15 -15 -13 -16 -15 -17 -16 -13
20 21 20 20 21 21 20 21 20 20 21 22 22 21 23 23 18 17 19 16 17 15 12 10 10 6 2 -1 -3 -5 -9 -12 -14 -15 -15 -16 -18 -19 -20 -20 -21 -20 -18 -15
23 22 22 24 23 22 21 21 20 21 21 18 18 18 17 22 21 19 17 15 14 14 12 9 6 3 -2 -3 -6 -7 -10 -9 -14 -14 -16 -18 -19 -19 -21 -21 -23 -21 -18 -15
24 23 23 24 24 23 22 21 19 18 18 19 19 16 17 18 19 18 16 16 15 14 11 8 5 1 -3 -4 -6 -9 -13 -14 -15 -13 -20 -22 -22 -24 -25 -25 -25 -23 -20 -16